<?xml version="1.0" encoding="UTF-8" standalone="no" ?>
<gpx xmlns="http://www.topografix.com/GPX/1/1" xmlns:xsi="http://www.w3.org/2001/XMLSchema-instance" xsi:schemaLocation="http://www.topografix.com/GPX/1/1 http://www.topografix.com/GPX/1/1/gpx.xsd" version="1.1" creator="VisuGPX - https://www.visugpx.com">
  <metadata>
    <name>L\'esterel et le cap roux</name>
    <desc><![CDATA[La fin en courant, trop sympa !!
Org Gilles
Avec Isabelle (train en retard de 30 min, merci la SNCF)]]></desc>
  </metadata>
  <trk>
    <name><![CDATA[2015-11-14 16:54:44]]></name>
    <trkseg>
      <trkpt lat="43.46635" lon="6.87627">
        <ele>-99.84</ele>
        <time>2015-11-14T09:29:33Z</time>
      </trkpt>
      <trkpt lat="43.46638" lon="6.87628">
        <ele>-99.84</ele>
        <time>2015-11-14T09:29:34Z</time>
      </trkpt>
      <trkpt lat="43.46654" lon="6.87638">
        <ele>-94.55</ele>
        <time>2015-11-14T09:29:40Z</time>
      </trkpt>
      <trkpt lat="43.46655" lon="6.87638">
        <ele>-89.75</ele>
        <time>2015-11-14T09:29:41Z</time>
      </trkpt>
      <trkpt lat="43.46657" lon="6.87639">
        <ele>-85.42</ele>
        <time>2015-11-14T09:29:42Z</time>
      </trkpt>
      <trkpt lat="43.46658" lon="6.8764">
        <ele>-81.09</ele>
        <time>2015-11-14T09:29:43Z</time>
      </trkpt>
      <trkpt lat="43.46661" lon="6.87641">
        <ele>-72.44</ele>
        <time>2015-11-14T09:29:45Z</time>
      </trkpt>
      <trkpt lat="43.46662" lon="6.87641">
        <ele>-68.6</ele>
        <time>2015-11-14T09:29:46Z</time>
      </trkpt>
      <trkpt lat="43.46664" lon="6.87642">
        <ele>-64.75</ele>
        <time>2015-11-14T09:29:47Z</time>
      </trkpt>
      <trkpt lat="43.46665" lon="6.87642">
        <ele>-61.39</ele>
        <time>2015-11-14T09:29:48Z</time>
      </trkpt>
      <trkpt lat="43.46667" lon="6.87643">
        <ele>-57.54</ele>
        <time>2015-11-14T09:29:49Z</time>
      </trkpt>
      <trkpt lat="43.46668" lon="6.87644">
        <ele>-54.18</ele>
        <time>2015-11-14T09:29:50Z</time>
      </trkpt>
      <trkpt lat="43.46669" lon="6.87645">
        <ele>-50.81</ele>
        <time>2015-11-14T09:29:51Z</time>
      </trkpt>
      <trkpt lat="43.4667" lon="6.87647">
        <ele>-47.93</ele>
        <time>2015-11-14T09:29:52Z</time>
      </trkpt>
      <trkpt lat="43.46672" lon="6.87647">
        <ele>-44.56</ele>
        <time>2015-11-14T09:29:53Z</time>
      </trkpt>
      <trkpt lat="43.46673" lon="6.87648">
        <ele>-41.68</ele>
        <time>2015-11-14T09:29:54Z</time>
      </trkpt>
      <trkpt lat="43.46676" lon="6.8765">
        <ele>-35.91</ele>
        <time>2015-11-14T09:29:56Z</time>
      </trkpt>
      <trkpt lat="43.46679" lon="6.87651">
        <ele>-30.62</ele>
        <time>2015-11-14T09:29:58Z</time>
      </trkpt>
      <trkpt lat="43.46682" lon="6.87651">
        <ele>-25.82</ele>
        <time>2015-11-14T09:30:00Z</time>
      </trkpt>
      <trkpt lat="43.46684" lon="6.87652">
        <ele>-21.01</ele>
        <time>2015-11-14T09:30:01Z</time>
      </trkpt>
      <trkpt lat="43.46687" lon="6.87653">
        <ele>-18.61</ele>
        <time>2015-11-14T09:30:03Z</time>
      </trkpt>
      <trkpt lat="43.46689" lon="6.87654">
        <ele>-16.69</ele>
        <time>2015-11-14T09:30:05Z</time>
      </trkpt>
      <trkpt lat="43.46693" lon="6.87656">
        <ele>-12.36</ele>
        <time>2015-11-14T09:30:08Z</time>
      </trkpt>
      <trkpt lat="43.46696" lon="6.87656">
        <ele>-10.44</ele>
        <time>2015-11-14T09:30:10Z</time>
      </trkpt>
      <trkpt lat="43.46699" lon="6.87657">
        <ele>-9</ele>
        <time>2015-11-14T09:30:12Z</time>
      </trkpt>
      <trkpt lat="43.46705" lon="6.8766">
        <ele>-5.15</ele>
        <time>2015-11-14T09:30:16Z</time>
      </trkpt>
      <trkpt lat="43.46708" lon="6.87661">
        <ele>-1.79</ele>
        <time>2015-11-14T09:30:18Z</time>
      </trkpt>
      <trkpt lat="43.46712" lon="6.87662">
        <ele>1.1</ele>
        <time>2015-11-14T09:30:20Z</time>
      </trkpt>
      <trkpt lat="43.46716" lon="6.87663">
        <ele>3.98</ele>
        <time>2015-11-14T09:30:22Z</time>
      </trkpt>
      <trkpt lat="43.46723" lon="6.87668">
        <ele>8.31</ele>
        <time>2015-11-14T09:30:27Z</time>
      </trkpt>
      <trkpt lat="43.46725" lon="6.87671">
        <ele>11.67</ele>
        <time>2015-11-14T09:30:30Z</time>
      </trkpt>
      <trkpt lat="43.46726" lon="6.87672">
        <ele>11.67</ele>
        <time>2015-11-14T09:30:31Z</time>
      </trkpt>
      <trkpt lat="43.46731" lon="6.87675">
        <ele>15.04</ele>
        <time>2015-11-14T09:30:36Z</time>
      </trkpt>
      <trkpt lat="43.46735" lon="6.87679">
        <ele>18.88</ele>
        <time>2015-11-14T09:30:40Z</time>
      </trkpt>
      <trkpt lat="43.46737" lon="6.87681">
        <ele>13.6</ele>
        <time>2015-11-14T09:30:42Z</time>
      </trkpt>
      <trkpt lat="43.46738" lon="6.87681">
        <ele>16</ele>
        <time>2015-11-14T09:30:43Z</time>
      </trkpt>
      <trkpt lat="43.46739" lon="6.87682">
        <ele>3.02</ele>
        <time>2015-11-14T09:30:44Z</time>
      </trkpt>
      <trkpt lat="43.4674" lon="6.87682">
        <ele>3.02</ele>
        <time>2015-11-14T09:30:45Z</time>
      </trkpt>
      <trkpt lat="43.46742" lon="6.87682">
        <ele>14.56</ele>
        <time>2015-11-14T09:30:46Z</time>
      </trkpt>
      <trkpt lat="43.46745" lon="6.87683">
        <ele>23.69</ele>
        <time>2015-11-14T09:30:49Z</time>
      </trkpt>
      <trkpt lat="43.4675" lon="6.87687">
        <ele>27.05</ele>
        <time>2015-11-14T09:30:53Z</time>
      </trkpt>
      <trkpt lat="43.46755" lon="6.87689">
        <ele>28.98</ele>
        <time>2015-11-14T09:30:56Z</time>
      </trkpt>
      <trkpt lat="43.46765" lon="6.87692">
        <ele>31.38</ele>
        <time>2015-11-14T09:31:01Z</time>
      </trkpt>
      <trkpt lat="43.46769" lon="6.87694">
        <ele>29.94</ele>
        <time>2015-11-14T09:31:04Z</time>
      </trkpt>
      <trkpt lat="43.46769" lon="6.87697">
        <ele>31.86</ele>
        <time>2015-11-14T09:31:07Z</time>
      </trkpt>
      <trkpt lat="43.46774" lon="6.87704">
        <ele>33.78</ele>
        <time>2015-11-14T09:31:14Z</time>
      </trkpt>
      <trkpt lat="43.46792" lon="6.8772">
        <ele>35.71</ele>
        <time>2015-11-14T09:31:28Z</time>
      </trkpt>
      <trkpt lat="43.46812" lon="6.87739">
        <ele>38.59</ele>
        <time>2015-11-14T09:31:42Z</time>
      </trkpt>
      <trkpt lat="43.46823" lon="6.87746">
        <ele>41.95</ele>
        <time>2015-11-14T09:31:50Z</time>
      </trkpt>
      <trkpt lat="43.46834" lon="6.87752">
        <ele>45.32</ele>
        <time>2015-11-14T09:32:00Z</time>
      </trkpt>
      <trkpt lat="43.46835" lon="6.87753">
        <ele>45.32</ele>
        <time>2015-11-14T09:32:01Z</time>
      </trkpt>
      <trkpt lat="43.46847" lon="6.87758">
        <ele>47.24</ele>
        <time>2015-11-14T09:32:15Z</time>
      </trkpt>
      <trkpt lat="43.46853" lon="6.87761">
        <ele>47.72</ele>
        <time>2015-11-14T09:32:29Z</time>
      </trkpt>
      <trkpt lat="43.4687" lon="6.8777">
        <ele>48.2</ele>
        <time>2015-11-14T09:32:44Z</time>
      </trkpt>
      <trkpt lat="43.46887" lon="6.87779">
        <ele>49.65</ele>
        <time>2015-11-14T09:33:00Z</time>
      </trkpt>
      <trkpt lat="43.46894" lon="6.87788">
        <ele>50.13</ele>
        <time>2015-11-14T09:33:13Z</time>
      </trkpt>
      <trkpt lat="43.46894" lon="6.87792">
        <ele>50.13</ele>
        <time>2015-11-14T09:33:21Z</time>
      </trkpt>
      <trkpt lat="43.46897" lon="6.87795">
        <ele>50.13</ele>
        <time>2015-11-14T09:33:25Z</time>
      </trkpt>
      <trkpt lat="43.469" lon="6.87798">
        <ele>50.13</ele>
        <time>2015-11-14T09:33:28Z</time>
      </trkpt>
      <trkpt lat="43.46904" lon="6.87806">
        <ele>51.09</ele>
        <time>2015-11-14T09:33:33Z</time>
      </trkpt>
      <trkpt lat="43.46916" lon="6.8782">
        <ele>51.57</ele>
        <time>2015-11-14T09:33:47Z</time>
      </trkpt>
      <trkpt lat="43.46918" lon="6.87823">
        <ele>52.05</ele>
        <time>2015-11-14T09:33:49Z</time>
      </trkpt>
      <trkpt lat="43.46923" lon="6.87832">
        <ele>52.53</ele>
        <time>2015-11-14T09:33:56Z</time>
      </trkpt>
      <trkpt lat="43.46939" lon="6.87854">
        <ele>53.97</ele>
        <time>2015-11-14T09:34:11Z</time>
      </trkpt>
      <trkpt lat="43.46941" lon="6.87856">
        <ele>53.97</ele>
        <time>2015-11-14T09:34:12Z</time>
      </trkpt>
      <trkpt lat="43.46964" lon="6.87877">
        <ele>54.45</ele>
        <time>2015-11-14T09:34:31Z</time>
      </trkpt>
      <trkpt lat="43.46989" lon="6.87894">
        <ele>55.41</ele>
        <time>2015-11-14T09:34:49Z</time>
      </trkpt>
      <trkpt lat="43.4701" lon="6.87914">
        <ele>57.34</ele>
        <time>2015-11-14T09:35:06Z</time>
      </trkpt>
      <trkpt lat="43.47021" lon="6.8794">
        <ele>57.82</ele>
        <time>2015-11-14T09:35:22Z</time>
      </trkpt>
      <trkpt lat="43.47029" lon="6.87966">
        <ele>58.78</ele>
        <time>2015-11-14T09:35:36Z</time>
      </trkpt>
      <trkpt lat="43.47032" lon="6.87978">
        <ele>58.78</ele>
        <time>2015-11-14T09:35:52Z</time>
      </trkpt>
      <trkpt lat="43.47032" lon="6.87977">
        <ele>58.78</ele>
        <time>2015-11-14T09:35:56Z</time>
      </trkpt>
      <trkpt lat="43.47037" lon="6.8798">
        <ele>58.78</ele>
        <time>2015-11-14T09:36:01Z</time>
      </trkpt>
      <trkpt lat="43.47057" lon="6.87989">
        <ele>57.34</ele>
        <time>2015-11-14T09:36:19Z</time>
      </trkpt>
      <trkpt lat="43.47068" lon="6.8799">
        <ele>57.34</ele>
        <time>2015-11-14T09:36:27Z</time>
      </trkpt>
      <trkpt lat="43.47075" lon="6.87989">
        <ele>57.34</ele>
        <time>2015-11-14T09:36:32Z</time>
      </trkpt>
      <trkpt lat="43.4709" lon="6.87982">
        <ele>57.34</ele>
        <time>2015-11-14T09:36:46Z</time>
      </trkpt>
      <trkpt lat="43.47104" lon="6.87972">
        <ele>57.34</ele>
        <time>2015-11-14T09:36:59Z</time>
      </trkpt>
      <trkpt lat="43.47106" lon="6.87967">
        <ele>57.34</ele>
        <time>2015-11-14T09:37:02Z</time>
      </trkpt>
      <trkpt lat="43.47123" lon="6.87946">
        <ele>56.86</ele>
        <time>2015-11-14T09:37:18Z</time>
      </trkpt>
      <trkpt lat="43.47133" lon="6.87926">
        <ele>55.89</ele>
        <time>2015-11-14T09:37:31Z</time>
      </trkpt>
      <trkpt lat="43.47148" lon="6.8791">
        <ele>55.41</ele>
        <time>2015-11-14T09:37:45Z</time>
      </trkpt>
      <trkpt lat="43.4717" lon="6.87902">
        <ele>54.93</ele>
        <time>2015-11-14T09:38:01Z</time>
      </trkpt>
      <trkpt lat="43.47182" lon="6.87896">
        <ele>56.37</ele>
        <time>2015-11-14T09:38:11Z</time>
      </trkpt>
      <trkpt lat="43.47183" lon="6.87896">
        <ele>56.37</ele>
        <time>2015-11-14T09:38:12Z</time>
      </trkpt>
      <trkpt lat="43.47186" lon="6.87892">
        <ele>56.37</ele>
        <time>2015-11-14T09:38:25Z</time>
      </trkpt>
      <trkpt lat="43.47191" lon="6.87882">
        <ele>56.86</ele>
        <time>2015-11-14T09:38:39Z</time>
      </trkpt>
      <trkpt lat="43.472" lon="6.87864">
        <ele>57.34</ele>
        <time>2015-11-14T09:38:51Z</time>
      </trkpt>
      <trkpt lat="43.47221" lon="6.87861">
        <ele>57.34</ele>
        <time>2015-11-14T09:39:05Z</time>
      </trkpt>
      <trkpt lat="43.47226" lon="6.87888">
        <ele>57.34</ele>
        <time>2015-11-14T09:39:22Z</time>
      </trkpt>
      <trkpt lat="43.47229" lon="6.87915">
        <ele>57.82</ele>
        <time>2015-11-14T09:39:37Z</time>
      </trkpt>
      <trkpt lat="43.47242" lon="6.87945">
        <ele>58.78</ele>
        <time>2015-11-14T09:39:55Z</time>
      </trkpt>
      <trkpt lat="43.47252" lon="6.87971">
        <ele>59.74</ele>
        <time>2015-11-14T09:40:11Z</time>
      </trkpt>
      <trkpt lat="43.47256" lon="6.88009">
        <ele>60.7</ele>
        <time>2015-11-14T09:40:29Z</time>
      </trkpt>
      <trkpt lat="43.47255" lon="6.88037">
        <ele>61.18</ele>
        <time>2015-11-14T09:40:44Z</time>
      </trkpt>
      <trkpt lat="43.47253" lon="6.88046">
        <ele>61.66</ele>
        <time>2015-11-14T09:40:49Z</time>
      </trkpt>
      <trkpt lat="43.47251" lon="6.88058">
        <ele>61.66</ele>
        <time>2015-11-14T09:40:56Z</time>
      </trkpt>
      <trkpt lat="43.47259" lon="6.88086">
        <ele>61.66</ele>
        <time>2015-11-14T09:41:14Z</time>
      </trkpt>
      <trkpt lat="43.47273" lon="6.88093">
        <ele>60.7</ele>
        <time>2015-11-14T09:41:24Z</time>
      </trkpt>
      <trkpt lat="43.47293" lon="6.88097">
        <ele>60.22</ele>
        <time>2015-11-14T09:41:38Z</time>
      </trkpt>
      <trkpt lat="43.47306" lon="6.88085">
        <ele>60.22</ele>
        <time>2015-11-14T09:41:51Z</time>
      </trkpt>
      <trkpt lat="43.47315" lon="6.88067">
        <ele>60.22</ele>
        <time>2015-11-14T09:42:03Z</time>
      </trkpt>
      <trkpt lat="43.47317" lon="6.88064">
        <ele>60.22</ele>
        <time>2015-11-14T09:42:05Z</time>
      </trkpt>
      <trkpt lat="43.4732" lon="6.88056">
        <ele>60.22</ele>
        <time>2015-11-14T09:42:10Z</time>
      </trkpt>
      <trkpt lat="43.47336" lon="6.88037">
        <ele>62.14</ele>
        <time>2015-11-14T09:42:24Z</time>
      </trkpt>
      <trkpt lat="43.47355" lon="6.88023">
        <ele>63.1</ele>
        <time>2015-11-14T09:42:39Z</time>
      </trkpt>
      <trkpt lat="43.47374" lon="6.88019">
        <ele>63.58</ele>
        <time>2015-11-14T09:42:52Z</time>
      </trkpt>
      <trkpt lat="43.47391" lon="6.88035">
        <ele>64.07</ele>
        <time>2015-11-14T09:43:06Z</time>
      </trkpt>
      <trkpt lat="43.47394" lon="6.88068">
        <ele>64.55</ele>
        <time>2015-11-14T09:43:23Z</time>
      </trkpt>
      <trkpt lat="43.47392" lon="6.88094">
        <ele>65.03</ele>
        <time>2015-11-14T09:43:37Z</time>
      </trkpt>
      <trkpt lat="43.47378" lon="6.88123">
        <ele>65.03</ele>
        <time>2015-11-14T09:43:53Z</time>
      </trkpt>
      <trkpt lat="43.47372" lon="6.88153">
        <ele>65.99</ele>
        <time>2015-11-14T09:44:09Z</time>
      </trkpt>
      <trkpt lat="43.47371" lon="6.88156">
        <ele>65.99</ele>
        <time>2015-11-14T09:44:11Z</time>
      </trkpt>
      <trkpt lat="43.47369" lon="6.88166">
        <ele>65.99</ele>
        <time>2015-11-14T09:44:17Z</time>
      </trkpt>
      <trkpt lat="43.47368" lon="6.88174">
        <ele>65.99</ele>
        <time>2015-11-14T09:44:22Z</time>
      </trkpt>
      <trkpt lat="43.47372" lon="6.88212">
        <ele>66.47</ele>
        <time>2015-11-14T09:44:42Z</time>
      </trkpt>
      <trkpt lat="43.47374" lon="6.88232">
        <ele>66.47</ele>
        <time>2015-11-14T09:44:56Z</time>
      </trkpt>
      <trkpt lat="43.47372" lon="6.88239">
        <ele>66.47</ele>
        <time>2015-11-14T09:45:00Z</time>
      </trkpt>
      <trkpt lat="43.47366" lon="6.88269">
        <ele>66.95</ele>
        <time>2015-11-14T09:45:13Z</time>
      </trkpt>
      <trkpt lat="43.4736" lon="6.88302">
        <ele>67.91</ele>
        <time>2015-11-14T09:45:29Z</time>
      </trkpt>
      <trkpt lat="43.47357" lon="6.88329">
        <ele>67.91</ele>
        <time>2015-11-14T09:45:44Z</time>
      </trkpt>
      <trkpt lat="43.47354" lon="6.88354">
        <ele>67.91</ele>
        <time>2015-11-14T09:45:58Z</time>
      </trkpt>
      <trkpt lat="43.47348" lon="6.88389">
        <ele>67.91</ele>
        <time>2015-11-14T09:46:13Z</time>
      </trkpt>
      <trkpt lat="43.47336" lon="6.88418">
        <ele>68.87</ele>
        <time>2015-11-14T09:46:29Z</time>
      </trkpt>
      <trkpt lat="43.47313" lon="6.8843">
        <ele>71.27</ele>
        <time>2015-11-14T09:46:45Z</time>
      </trkpt>
      <trkpt lat="43.47294" lon="6.88437">
        <ele>72.72</ele>
        <time>2015-11-14T09:46:59Z</time>
      </trkpt>
      <trkpt lat="43.47292" lon="6.88438">
        <ele>72.72</ele>
        <time>2015-11-14T09:47:01Z</time>
      </trkpt>
      <trkpt lat="43.47286" lon="6.88446">
        <ele>73.2</ele>
        <time>2015-11-14T09:47:07Z</time>
      </trkpt>
      <trkpt lat="43.4727" lon="6.88467">
        <ele>75.12</ele>
        <time>2015-11-14T09:47:23Z</time>
      </trkpt>
      <trkpt lat="43.47269" lon="6.88468">
        <ele>75.12</ele>
        <time>2015-11-14T09:47:24Z</time>
      </trkpt>
      <trkpt lat="43.47264" lon="6.88472">
        <ele>76.08</ele>
        <time>2015-11-14T09:47:29Z</time>
      </trkpt>
      <trkpt lat="43.47246" lon="6.88494">
        <ele>78</ele>
        <time>2015-11-14T09:47:46Z</time>
      </trkpt>
      <trkpt lat="43.47232" lon="6.88512">
        <ele>79.93</ele>
        <time>2015-11-14T09:48:00Z</time>
      </trkpt>
      <trkpt lat="43.47227" lon="6.88536">
        <ele>81.85</ele>
        <time>2015-11-14T09:48:15Z</time>
      </trkpt>
      <trkpt lat="43.47224" lon="6.88542">
        <ele>81.85</ele>
        <time>2015-11-14T09:48:20Z</time>
      </trkpt>
      <trkpt lat="43.47212" lon="6.88562">
        <ele>83.77</ele>
        <time>2015-11-14T09:48:34Z</time>
      </trkpt>
      <trkpt lat="43.47203" lon="6.88585">
        <ele>85.69</ele>
        <time>2015-11-14T09:48:48Z</time>
      </trkpt>
      <trkpt lat="43.47187" lon="6.88608">
        <ele>87.14</ele>
        <time>2015-11-14T09:49:04Z</time>
      </trkpt>
      <trkpt lat="43.47184" lon="6.88616">
        <ele>87.62</ele>
        <time>2015-11-14T09:49:09Z</time>
      </trkpt>
      <trkpt lat="43.47181" lon="6.88626">
        <ele>88.58</ele>
        <time>2015-11-14T09:49:15Z</time>
      </trkpt>
      <trkpt lat="43.47177" lon="6.88638">
        <ele>89.54</ele>
        <time>2015-11-14T09:49:22Z</time>
      </trkpt>
      <trkpt lat="43.47171" lon="6.88652">
        <ele>90.98</ele>
        <time>2015-11-14T09:49:30Z</time>
      </trkpt>
      <trkpt lat="43.47166" lon="6.88659">
        <ele>92.42</ele>
        <time>2015-11-14T09:49:35Z</time>
      </trkpt>
      <trkpt lat="43.47157" lon="6.88667">
        <ele>93.39</ele>
        <time>2015-11-14T09:49:43Z</time>
      </trkpt>
      <trkpt lat="43.47151" lon="6.88677">
        <ele>93.87</ele>
        <time>2015-11-14T09:49:51Z</time>
      </trkpt>
      <trkpt lat="43.47143" lon="6.88696">
        <ele>95.79</ele>
        <time>2015-11-14T09:50:03Z</time>
      </trkpt>
      <trkpt lat="43.47138" lon="6.88709">
        <ele>96.75</ele>
        <time>2015-11-14T09:50:13Z</time>
      </trkpt>
      <trkpt lat="43.47127" lon="6.88731">
        <ele>99.15</ele>
        <time>2015-11-14T09:50:26Z</time>
      </trkpt>
      <trkpt lat="43.47114" lon="6.88754">
        <ele>101.08</ele>
        <time>2015-11-14T09:50:41Z</time>
      </trkpt>
      <trkpt lat="43.47107" lon="6.8878">
        <ele>103</ele>
        <time>2015-11-14T09:50:56Z</time>
      </trkpt>
      <trkpt lat="43.47094" lon="6.88806">
        <ele>105.4</ele>
        <time>2015-11-14T09:51:12Z</time>
      </trkpt>
      <trkpt lat="43.47083" lon="6.88834">
        <ele>108.29</ele>
        <time>2015-11-14T09:51:30Z</time>
      </trkpt>
      <trkpt lat="43.47069" lon="6.88856">
        <ele>110.21</ele>
        <time>2015-11-14T09:51:45Z</time>
      </trkpt>
      <trkpt lat="43.47065" lon="6.88877">
        <ele>112.13</ele>
        <time>2015-11-14T09:51:59Z</time>
      </trkpt>
      <trkpt lat="43.47058" lon="6.88892">
        <ele>113.09</ele>
        <time>2015-11-14T09:52:11Z</time>
      </trkpt>
      <trkpt lat="43.47052" lon="6.88907">
        <ele>114.53</ele>
        <time>2015-11-14T09:52:24Z</time>
      </trkpt>
      <trkpt lat="43.47044" lon="6.88926">
        <ele>116.46</ele>
        <time>2015-11-14T09:52:38Z</time>
      </trkpt>
      <trkpt lat="43.47039" lon="6.88945">
        <ele>117.9</ele>
        <time>2015-11-14T09:52:52Z</time>
      </trkpt>
      <trkpt lat="43.47038" lon="6.88964">
        <ele>119.82</ele>
        <time>2015-11-14T09:53:04Z</time>
      </trkpt>
      <trkpt lat="43.47035" lon="6.88992">
        <ele>121.74</ele>
        <time>2015-11-14T09:53:19Z</time>
      </trkpt>
      <trkpt lat="43.47032" lon="6.89016">
        <ele>123.19</ele>
        <time>2015-11-14T09:53:32Z</time>
      </trkpt>
      <trkpt lat="43.4703" lon="6.89047">
        <ele>125.59</ele>
        <time>2015-11-14T09:53:49Z</time>
      </trkpt>
      <trkpt lat="43.47023" lon="6.89075">
        <ele>127.99</ele>
        <time>2015-11-14T09:54:04Z</time>
      </trkpt>
      <trkpt lat="43.47009" lon="6.89096">
        <ele>128.95</ele>
        <time>2015-11-14T09:54:18Z</time>
      </trkpt>
      <trkpt lat="43.46998" lon="6.89108">
        <ele>130.88</ele>
        <time>2015-11-14T09:54:29Z</time>
      </trkpt>
      <trkpt lat="43.46988" lon="6.89127">
        <ele>133.28</ele>
        <time>2015-11-14T09:54:44Z</time>
      </trkpt>
      <trkpt lat="43.46987" lon="6.89152">
        <ele>135.68</ele>
        <time>2015-11-14T09:55:00Z</time>
      </trkpt>
      <trkpt lat="43.46989" lon="6.89179">
        <ele>138.09</ele>
        <time>2015-11-14T09:55:15Z</time>
      </trkpt>
      <trkpt lat="43.46989" lon="6.8918">
        <ele>138.57</ele>
        <time>2015-11-14T09:55:16Z</time>
      </trkpt>
      <trkpt lat="43.46989" lon="6.89204">
        <ele>140.01</ele>
        <time>2015-11-14T09:55:31Z</time>
      </trkpt>
      <trkpt lat="43.46991" lon="6.89232">
        <ele>142.89</ele>
        <time>2015-11-14T09:55:47Z</time>
      </trkpt>
      <trkpt lat="43.46991" lon="6.89258">
        <ele>144.82</ele>
        <time>2015-11-14T09:56:02Z</time>
      </trkpt>
      <trkpt lat="43.4699" lon="6.89264">
        <ele>144.82</ele>
        <time>2015-11-14T09:56:07Z</time>
      </trkpt>
      <trkpt lat="43.46983" lon="6.89285">
        <ele>146.74</ele>
        <time>2015-11-14T09:56:20Z</time>
      </trkpt>
      <trkpt lat="43.46979" lon="6.89296">
        <ele>147.22</ele>
        <time>2015-11-14T09:56:27Z</time>
      </trkpt>
      <trkpt lat="43.46977" lon="6.89304">
        <ele>148.18</ele>
        <time>2015-11-14T09:56:32Z</time>
      </trkpt>
      <trkpt lat="43.46976" lon="6.89327">
        <ele>150.58</ele>
        <time>2015-11-14T09:56:45Z</time>
      </trkpt>
      <trkpt lat="43.46974" lon="6.89338">
        <ele>151.06</ele>
        <time>2015-11-14T09:56:53Z</time>
      </trkpt>
      <trkpt lat="43.4697" lon="6.89345">
        <ele>152.03</ele>
        <time>2015-11-14T09:57:05Z</time>
      </trkpt>
      <trkpt lat="43.4697" lon="6.89343">
        <ele>152.03</ele>
        <time>2015-11-14T09:57:37Z</time>
      </trkpt>
      <trkpt lat="43.46969" lon="6.89347">
        <ele>152.03</ele>
        <time>2015-11-14T09:58:06Z</time>
      </trkpt>
      <trkpt lat="43.46967" lon="6.89342">
        <ele>152.51</ele>
        <time>2015-11-14T09:58:26Z</time>
      </trkpt>
      <trkpt lat="43.46968" lon="6.89344">
        <ele>152.99</ele>
        <time>2015-11-14T09:58:51Z</time>
      </trkpt>
      <trkpt lat="43.4697" lon="6.89346">
        <ele>152.99</ele>
        <time>2015-11-14T09:59:07Z</time>
      </trkpt>
      <trkpt lat="43.46971" lon="6.89345">
        <ele>150.58</ele>
        <time>2015-11-14T09:59:09Z</time>
      </trkpt>
      <trkpt lat="43.4697" lon="6.89344">
        <ele>152.51</ele>
        <time>2015-11-14T09:59:11Z</time>
      </trkpt>
      <trkpt lat="43.46971" lon="6.89346">
        <ele>152.51</ele>
        <time>2015-11-14T09:59:20Z</time>
      </trkpt>
      <trkpt lat="43.4697" lon="6.89345">
        <ele>152.51</ele>
        <time>2015-11-14T09:59:37Z</time>
      </trkpt>
      <trkpt lat="43.4697" lon="6.89345">
        <ele>152.51</ele>
        <time>2015-11-14T09:59:53Z</time>
      </trkpt>
      <trkpt lat="43.4697" lon="6.89345">
        <ele>152.51</ele>
        <time>2015-11-14T10:00:12Z</time>
      </trkpt>
      <trkpt lat="43.4697" lon="6.89347">
        <ele>152.51</ele>
        <time>2015-11-14T10:00:36Z</time>
      </trkpt>
      <trkpt lat="43.46965" lon="6.8935">
        <ele>152.51</ele>
        <time>2015-11-14T10:00:50Z</time>
      </trkpt>
      <trkpt lat="43.4696" lon="6.89358">
        <ele>152.99</ele>
        <time>2015-11-14T10:00:59Z</time>
      </trkpt>
      <trkpt lat="43.46952" lon="6.89374">
        <ele>154.91</ele>
        <time>2015-11-14T10:01:13Z</time>
      </trkpt>
      <trkpt lat="43.46948" lon="6.8938">
        <ele>155.87</ele>
        <time>2015-11-14T10:01:19Z</time>
      </trkpt>
      <trkpt lat="43.46936" lon="6.89395">
        <ele>157.79</ele>
        <time>2015-11-14T10:01:33Z</time>
      </trkpt>
      <trkpt lat="43.46933" lon="6.89399">
        <ele>158.27</ele>
        <time>2015-11-14T10:01:36Z</time>
      </trkpt>
      <trkpt lat="43.46932" lon="6.89402">
        <ele>158.75</ele>
        <time>2015-11-14T10:01:38Z</time>
      </trkpt>
      <trkpt lat="43.4693" lon="6.89409">
        <ele>159.24</ele>
        <time>2015-11-14T10:01:42Z</time>
      </trkpt>
      <trkpt lat="43.46926" lon="6.89414">
        <ele>159.24</ele>
        <time>2015-11-14T10:01:47Z</time>
      </trkpt>
      <trkpt lat="43.4692" lon="6.89429">
        <ele>160.2</ele>
        <time>2015-11-14T10:01:57Z</time>
      </trkpt>
      <trkpt lat="43.46908" lon="6.89456">
        <ele>161.64</ele>
        <time>2015-11-14T10:02:14Z</time>
      </trkpt>
      <trkpt lat="43.46897" lon="6.89477">
        <ele>163.08</ele>
        <time>2015-11-14T10:02:30Z</time>
      </trkpt>
      <trkpt lat="43.46891" lon="6.89497">
        <ele>165</ele>
        <time>2015-11-14T10:02:44Z</time>
      </trkpt>
      <trkpt lat="43.46883" lon="6.89521">
        <ele>166.93</ele>
        <time>2015-11-14T10:02:59Z</time>
      </trkpt>
      <trkpt lat="43.46879" lon="6.89529">
        <ele>167.41</ele>
        <time>2015-11-14T10:03:04Z</time>
      </trkpt>
      <trkpt lat="43.46868" lon="6.89553">
        <ele>169.33</ele>
        <time>2015-11-14T10:03:19Z</time>
      </trkpt>
      <trkpt lat="43.46858" lon="6.89573">
        <ele>171.25</ele>
        <time>2015-11-14T10:03:33Z</time>
      </trkpt>
      <trkpt lat="43.46849" lon="6.89597">
        <ele>173.17</ele>
        <time>2015-11-14T10:03:48Z</time>
      </trkpt>
      <trkpt lat="43.46837" lon="6.89618">
        <ele>175.1</ele>
        <time>2015-11-14T10:04:04Z</time>
      </trkpt>
      <trkpt lat="43.46831" lon="6.89646">
        <ele>176.54</ele>
        <time>2015-11-14T10:04:21Z</time>
      </trkpt>
      <trkpt lat="43.46825" lon="6.89672">
        <ele>178.46</ele>
        <time>2015-11-14T10:04:37Z</time>
      </trkpt>
      <trkpt lat="43.46818" lon="6.89701">
        <ele>179.9</ele>
        <time>2015-11-14T10:04:53Z</time>
      </trkpt>
      <trkpt lat="43.46806" lon="6.89725">
        <ele>182.31</ele>
        <time>2015-11-14T10:05:11Z</time>
      </trkpt>
      <trkpt lat="43.46794" lon="6.89745">
        <ele>184.71</ele>
        <time>2015-11-14T10:05:27Z</time>
      </trkpt>
      <trkpt lat="43.46788" lon="6.89771">
        <ele>186.63</ele>
        <time>2015-11-14T10:05:44Z</time>
      </trkpt>
      <trkpt lat="43.46789" lon="6.89797">
        <ele>188.56</ele>
        <time>2015-11-14T10:06:00Z</time>
      </trkpt>
      <trkpt lat="43.46793" lon="6.89826">
        <ele>190.96</ele>
        <time>2015-11-14T10:06:17Z</time>
      </trkpt>
      <trkpt lat="43.46792" lon="6.89833">
        <ele>190.96</ele>
        <time>2015-11-14T10:06:21Z</time>
      </trkpt>
      <trkpt lat="43.46782" lon="6.89864">
        <ele>193.84</ele>
        <time>2015-11-14T10:06:40Z</time>
      </trkpt>
      <trkpt lat="43.46776" lon="6.89884">
        <ele>194.8</ele>
        <time>2015-11-14T10:06:53Z</time>
      </trkpt>
      <trkpt lat="43.46775" lon="6.89889">
        <ele>195.28</ele>
        <time>2015-11-14T10:06:56Z</time>
      </trkpt>
      <trkpt lat="43.46782" lon="6.89911">
        <ele>197.21</ele>
        <time>2015-11-14T10:07:12Z</time>
      </trkpt>
      <trkpt lat="43.46791" lon="6.89934">
        <ele>198.65</ele>
        <time>2015-11-14T10:07:25Z</time>
      </trkpt>
      <trkpt lat="43.46796" lon="6.8995">
        <ele>200.09</ele>
        <time>2015-11-14T10:07:35Z</time>
      </trkpt>
      <trkpt lat="43.46799" lon="6.89976">
        <ele>202.01</ele>
        <time>2015-11-14T10:07:51Z</time>
      </trkpt>
      <trkpt lat="43.468" lon="6.90002">
        <ele>204.42</ele>
        <time>2015-11-14T10:08:07Z</time>
      </trkpt>
      <trkpt lat="43.46796" lon="6.90033">
        <ele>206.82</ele>
        <time>2015-11-14T10:08:24Z</time>
      </trkpt>
      <trkpt lat="43.46795" lon="6.90036">
        <ele>206.82</ele>
        <time>2015-11-14T10:08:26Z</time>
      </trkpt>
      <trkpt lat="43.46791" lon="6.9005">
        <ele>207.78</ele>
        <time>2015-11-14T10:08:34Z</time>
      </trkpt>
      <trkpt lat="43.4679" lon="6.90065">
        <ele>209.22</ele>
        <time>2015-11-14T10:08:46Z</time>
      </trkpt>
      <trkpt lat="43.4679" lon="6.90068">
        <ele>209.22</ele>
        <time>2015-11-14T10:08:48Z</time>
      </trkpt>
      <trkpt lat="43.4679" lon="6.90077">
        <ele>209.7</ele>
        <time>2015-11-14T10:08:53Z</time>
      </trkpt>
      <trkpt lat="43.4679" lon="6.90084">
        <ele>210.19</ele>
        <time>2015-11-14T10:08:57Z</time>
      </trkpt>
      <trkpt lat="43.46788" lon="6.90109">
        <ele>212.11</ele>
        <time>2015-11-14T10:09:12Z</time>
      </trkpt>
      <trkpt lat="43.46787" lon="6.9012">
        <ele>211.15</ele>
        <time>2015-11-14T10:09:20Z</time>
      </trkpt>
      <trkpt lat="43.46786" lon="6.90124">
        <ele>213.07</ele>
        <time>2015-11-14T10:09:22Z</time>
      </trkpt>
      <trkpt lat="43.46784" lon="6.90154">
        <ele>214.99</ele>
        <time>2015-11-14T10:09:37Z</time>
      </trkpt>
      <trkpt lat="43.46785" lon="6.90182">
        <ele>216.91</ele>
        <time>2015-11-14T10:09:52Z</time>
      </trkpt>
      <trkpt lat="43.46777" lon="6.90211">
        <ele>219.8</ele>
        <time>2015-11-14T10:10:07Z</time>
      </trkpt>
      <trkpt lat="43.46786" lon="6.90236">
        <ele>221.24</ele>
        <time>2015-11-14T10:10:21Z</time>
      </trkpt>
      <trkpt lat="43.46797" lon="6.90265">
        <ele>223.16</ele>
        <time>2015-11-14T10:10:38Z</time>
      </trkpt>
      <trkpt lat="43.46799" lon="6.90294">
        <ele>224.61</ele>
        <time>2015-11-14T10:10:54Z</time>
      </trkpt>
      <trkpt lat="43.46797" lon="6.90305">
        <ele>226.53</ele>
        <time>2015-11-14T10:11:00Z</time>
      </trkpt>
      <trkpt lat="43.46793" lon="6.90341">
        <ele>228.93</ele>
        <time>2015-11-14T10:11:18Z</time>
      </trkpt>
      <trkpt lat="43.46791" lon="6.90355">
        <ele>230.85</ele>
        <time>2015-11-14T10:11:26Z</time>
      </trkpt>
      <trkpt lat="43.4679" lon="6.90388">
        <ele>232.78</ele>
        <time>2015-11-14T10:11:43Z</time>
      </trkpt>
      <trkpt lat="43.46785" lon="6.90411">
        <ele>234.22</ele>
        <time>2015-11-14T10:11:57Z</time>
      </trkpt>
      <trkpt lat="43.46776" lon="6.90436">
        <ele>236.14</ele>
        <time>2015-11-14T10:12:12Z</time>
      </trkpt>
      <trkpt lat="43.46773" lon="6.90444">
        <ele>236.62</ele>
        <time>2015-11-14T10:12:25Z</time>
      </trkpt>
      <trkpt lat="43.4677" lon="6.90468">
        <ele>238.54</ele>
        <time>2015-11-14T10:12:39Z</time>
      </trkpt>
      <trkpt lat="43.46773" lon="6.90493">
        <ele>239.99</ele>
        <time>2015-11-14T10:12:53Z</time>
      </trkpt>
      <trkpt lat="43.46781" lon="6.90519">
        <ele>241.91</ele>
        <time>2015-11-14T10:13:08Z</time>
      </trkpt>
      <trkpt lat="43.46783" lon="6.90523">
        <ele>242.39</ele>
        <time>2015-11-14T10:13:10Z</time>
      </trkpt>
      <trkpt lat="43.46797" lon="6.90545">
        <ele>244.31</ele>
        <time>2015-11-14T10:13:25Z</time>
      </trkpt>
      <trkpt lat="43.46815" lon="6.90561">
        <ele>246.23</ele>
        <time>2015-11-14T10:13:41Z</time>
      </trkpt>
      <trkpt lat="43.46832" lon="6.90576">
        <ele>247.68</ele>
        <time>2015-11-14T10:13:56Z</time>
      </trkpt>
      <trkpt lat="43.46846" lon="6.90592">
        <ele>249.6</ele>
        <time>2015-11-14T10:14:10Z</time>
      </trkpt>
      <trkpt lat="43.46858" lon="6.90608">
        <ele>251.52</ele>
        <time>2015-11-14T10:14:24Z</time>
      </trkpt>
      <trkpt lat="43.46865" lon="6.90617">
        <ele>252.48</ele>
        <time>2015-11-14T10:14:31Z</time>
      </trkpt>
      <trkpt lat="43.46872" lon="6.9063">
        <ele>254.41</ele>
        <time>2015-11-14T10:14:40Z</time>
      </trkpt>
      <trkpt lat="43.46876" lon="6.9064">
        <ele>255.37</ele>
        <time>2015-11-14T10:14:47Z</time>
      </trkpt>
      <trkpt lat="43.46884" lon="6.90663">
        <ele>257.77</ele>
        <time>2015-11-14T10:15:02Z</time>
      </trkpt>
      <trkpt lat="43.46891" lon="6.90687">
        <ele>259.69</ele>
        <time>2015-11-14T10:15:17Z</time>
      </trkpt>
      <trkpt lat="43.46898" lon="6.90708">
        <ele>261.62</ele>
        <time>2015-11-14T10:15:31Z</time>
      </trkpt>
      <trkpt lat="43.4691" lon="6.90729">
        <ele>264.02</ele>
        <time>2015-11-14T10:15:47Z</time>
      </trkpt>
      <trkpt lat="43.46922" lon="6.9075">
        <ele>265.94</ele>
        <time>2015-11-14T10:16:03Z</time>
      </trkpt>
      <trkpt lat="43.46929" lon="6.90766">
        <ele>268.35</ele>
        <time>2015-11-14T10:16:16Z</time>
      </trkpt>
      <trkpt lat="43.46931" lon="6.90768">
        <ele>268.35</ele>
        <time>2015-11-14T10:16:19Z</time>
      </trkpt>
      <trkpt lat="43.46933" lon="6.90779">
        <ele>269.31</ele>
        <time>2015-11-14T10:16:27Z</time>
      </trkpt>
      <trkpt lat="43.46932" lon="6.9078">
        <ele>267.38</ele>
        <time>2015-11-14T10:16:31Z</time>
      </trkpt>
      <trkpt lat="43.46932" lon="6.90781">
        <ele>269.79</ele>
        <time>2015-11-14T10:16:33Z</time>
      </trkpt>
      <trkpt lat="43.46932" lon="6.90781">
        <ele>268.35</ele>
        <time>2015-11-14T10:16:35Z</time>
      </trkpt>
      <trkpt lat="43.46932" lon="6.90784">
        <ele>269.31</ele>
        <time>2015-11-14T10:16:59Z</time>
      </trkpt>
      <trkpt lat="43.46933" lon="6.90783">
        <ele>267.86</ele>
        <time>2015-11-14T10:17:13Z</time>
      </trkpt>
      <trkpt lat="43.46933" lon="6.90784">
        <ele>268.83</ele>
        <time>2015-11-14T10:17:27Z</time>
      </trkpt>
      <trkpt lat="43.46935" lon="6.90782">
        <ele>268.83</ele>
        <time>2015-11-14T10:17:41Z</time>
      </trkpt>
      <trkpt lat="43.46935" lon="6.90784">
        <ele>268.83</ele>
        <time>2015-11-14T10:17:56Z</time>
      </trkpt>
      <trkpt lat="43.46935" lon="6.90785">
        <ele>268.83</ele>
        <time>2015-11-14T10:18:18Z</time>
      </trkpt>
      <trkpt lat="43.46936" lon="6.90785">
        <ele>267.38</ele>
        <time>2015-11-14T10:18:35Z</time>
      </trkpt>
      <trkpt lat="43.46937" lon="6.90788">
        <ele>269.31</ele>
        <time>2015-11-14T10:18:54Z</time>
      </trkpt>
      <trkpt lat="43.46941" lon="6.90792">
        <ele>268.83</ele>
        <time>2015-11-14T10:19:10Z</time>
      </trkpt>
      <trkpt lat="43.46941" lon="6.90794">
        <ele>268.83</ele>
        <time>2015-11-14T10:19:35Z</time>
      </trkpt>
      <trkpt lat="43.46943" lon="6.90791">
        <ele>268.83</ele>
        <time>2015-11-14T10:19:55Z</time>
      </trkpt>
      <trkpt lat="43.46943" lon="6.90794">
        <ele>267.86</ele>
        <time>2015-11-14T10:20:10Z</time>
      </trkpt>
      <trkpt lat="43.46956" lon="6.90811">
        <ele>268.83</ele>
        <time>2015-11-14T10:20:24Z</time>
      </trkpt>
      <trkpt lat="43.46958" lon="6.90813">
        <ele>269.79</ele>
        <time>2015-11-14T10:20:26Z</time>
      </trkpt>
      <trkpt lat="43.46961" lon="6.90817">
        <ele>269.79</ele>
        <time>2015-11-14T10:20:30Z</time>
      </trkpt>
      <trkpt lat="43.46965" lon="6.90822">
        <ele>268.35</ele>
        <time>2015-11-14T10:20:34Z</time>
      </trkpt>
      <trkpt lat="43.46966" lon="6.90825">
        <ele>269.79</ele>
        <time>2015-11-14T10:20:36Z</time>
      </trkpt>
      <trkpt lat="43.46976" lon="6.90838">
        <ele>269.31</ele>
        <time>2015-11-14T10:20:45Z</time>
      </trkpt>
      <trkpt lat="43.46979" lon="6.90843">
        <ele>270.75</ele>
        <time>2015-11-14T10:20:49Z</time>
      </trkpt>
      <trkpt lat="43.46991" lon="6.90861">
        <ele>271.71</ele>
        <time>2015-11-14T10:21:02Z</time>
      </trkpt>
      <trkpt lat="43.46996" lon="6.90874">
        <ele>272.67</ele>
        <time>2015-11-14T10:21:09Z</time>
      </trkpt>
      <trkpt lat="43.46992" lon="6.90881">
        <ele>273.15</ele>
        <time>2015-11-14T10:21:15Z</time>
      </trkpt>
      <trkpt lat="43.46987" lon="6.90884">
        <ele>274.11</ele>
        <time>2015-11-14T10:21:20Z</time>
      </trkpt>
      <trkpt lat="43.46975" lon="6.90902">
        <ele>275.56</ele>
        <time>2015-11-14T10:21:36Z</time>
      </trkpt>
      <trkpt lat="43.46973" lon="6.90905">
        <ele>274.59</ele>
        <time>2015-11-14T10:21:39Z</time>
      </trkpt>
      <trkpt lat="43.46961" lon="6.90922">
        <ele>272.67</ele>
        <time>2015-11-14T10:21:53Z</time>
      </trkpt>
      <trkpt lat="43.46944" lon="6.90933">
        <ele>272.19</ele>
        <time>2015-11-14T10:22:08Z</time>
      </trkpt>
      <trkpt lat="43.46928" lon="6.90946">
        <ele>273.15</ele>
        <time>2015-11-14T10:22:22Z</time>
      </trkpt>
      <trkpt lat="43.46923" lon="6.90949">
        <ele>273.15</ele>
        <time>2015-11-14T10:22:26Z</time>
      </trkpt>
      <trkpt lat="43.46902" lon="6.90959">
        <ele>273.15</ele>
        <time>2015-11-14T10:22:42Z</time>
      </trkpt>
      <trkpt lat="43.46879" lon="6.90966">
        <ele>273.15</ele>
        <time>2015-11-14T10:22:58Z</time>
      </trkpt>
      <trkpt lat="43.46864" lon="6.90972">
        <ele>273.15</ele>
        <time>2015-11-14T10:23:11Z</time>
      </trkpt>
      <trkpt lat="43.46848" lon="6.90979">
        <ele>273.15</ele>
        <time>2015-11-14T10:23:24Z</time>
      </trkpt>
      <trkpt lat="43.46828" lon="6.90993">
        <ele>273.63</ele>
        <time>2015-11-14T10:23:39Z</time>
      </trkpt>
      <trkpt lat="43.46813" lon="6.91012">
        <ele>274.11</ele>
        <time>2015-11-14T10:23:54Z</time>
      </trkpt>
      <trkpt lat="43.46796" lon="6.9103">
        <ele>274.59</ele>
        <time>2015-11-14T10:24:10Z</time>
      </trkpt>
      <trkpt lat="43.46791" lon="6.91034">
        <ele>274.59</ele>
        <time>2015-11-14T10:24:15Z</time>
      </trkpt>
      <trkpt lat="43.46785" lon="6.91037">
        <ele>274.59</ele>
        <time>2015-11-14T10:24:20Z</time>
      </trkpt>
      <trkpt lat="43.4677" lon="6.91045">
        <ele>275.56</ele>
        <time>2015-11-14T10:24:33Z</time>
      </trkpt>
      <trkpt lat="43.46747" lon="6.91056">
        <ele>276.04</ele>
        <time>2015-11-14T10:24:50Z</time>
      </trkpt>
      <trkpt lat="43.46733" lon="6.91068">
        <ele>276.52</ele>
        <time>2015-11-14T10:25:04Z</time>
      </trkpt>
      <trkpt lat="43.4673" lon="6.91069">
        <ele>276.52</ele>
        <time>2015-11-14T10:25:06Z</time>
      </trkpt>
      <trkpt lat="43.46716" lon="6.91085">
        <ele>277.48</ele>
        <time>2015-11-14T10:25:20Z</time>
      </trkpt>
      <trkpt lat="43.46702" lon="6.91108">
        <ele>277.48</ele>
        <time>2015-11-14T10:25:37Z</time>
      </trkpt>
      <trkpt lat="43.46691" lon="6.91133">
        <ele>277.96</ele>
        <time>2015-11-14T10:25:53Z</time>
      </trkpt>
      <trkpt lat="43.46687" lon="6.91143">
        <ele>277.96</ele>
        <time>2015-11-14T10:25:59Z</time>
      </trkpt>
      <trkpt lat="43.46679" lon="6.91167">
        <ele>277.96</ele>
        <time>2015-11-14T10:26:15Z</time>
      </trkpt>
      <trkpt lat="43.46673" lon="6.91187">
        <ele>277.96</ele>
        <time>2015-11-14T10:26:29Z</time>
      </trkpt>
      <trkpt lat="43.46673" lon="6.91189">
        <ele>277.96</ele>
        <time>2015-11-14T10:26:30Z</time>
      </trkpt>
      <trkpt lat="43.46671" lon="6.91211">
        <ele>278.44</ele>
        <time>2015-11-14T10:26:42Z</time>
      </trkpt>
      <trkpt lat="43.46671" lon="6.91219">
        <ele>278.44</ele>
        <time>2015-11-14T10:26:47Z</time>
      </trkpt>
      <trkpt lat="43.46667" lon="6.9124">
        <ele>280.84</ele>
        <time>2015-11-14T10:27:02Z</time>
      </trkpt>
      <trkpt lat="43.46667" lon="6.91256">
        <ele>283.73</ele>
        <time>2015-11-14T10:27:13Z</time>
      </trkpt>
      <trkpt lat="43.4667" lon="6.91276">
        <ele>287.09</ele>
        <time>2015-11-14T10:27:26Z</time>
      </trkpt>
      <trkpt lat="43.4667" lon="6.91283">
        <ele>287.57</ele>
        <time>2015-11-14T10:27:31Z</time>
      </trkpt>
      <trkpt lat="43.4667" lon="6.91294">
        <ele>289.01</ele>
        <time>2015-11-14T10:27:38Z</time>
      </trkpt>
      <trkpt lat="43.46668" lon="6.91319">
        <ele>293.34</ele>
        <time>2015-11-14T10:27:54Z</time>
      </trkpt>
      <trkpt lat="43.46667" lon="6.91339">
        <ele>296.22</ele>
        <time>2015-11-14T10:28:07Z</time>
      </trkpt>
      <trkpt lat="43.46663" lon="6.91359">
        <ele>300.07</ele>
        <time>2015-11-14T10:28:20Z</time>
      </trkpt>
      <trkpt lat="43.46662" lon="6.91377">
        <ele>301.99</ele>
        <time>2015-11-14T10:28:32Z</time>
      </trkpt>
      <trkpt lat="43.46661" lon="6.91386">
        <ele>303.43</ele>
        <time>2015-11-14T10:28:37Z</time>
      </trkpt>
      <trkpt lat="43.4666" lon="6.91407">
        <ele>306.32</ele>
        <time>2015-11-14T10:28:52Z</time>
      </trkpt>
      <trkpt lat="43.46654" lon="6.91426">
        <ele>308.24</ele>
        <time>2015-11-14T10:29:06Z</time>
      </trkpt>
      <trkpt lat="43.46652" lon="6.9144">
        <ele>310.64</ele>
        <time>2015-11-14T10:29:21Z</time>
      </trkpt>
      <trkpt lat="43.46651" lon="6.91454">
        <ele>312.57</ele>
        <time>2015-11-14T10:29:37Z</time>
      </trkpt>
      <trkpt lat="43.46648" lon="6.91453">
        <ele>314.49</ele>
        <time>2015-11-14T10:29:52Z</time>
      </trkpt>
      <trkpt lat="43.46647" lon="6.91451">
        <ele>315.45</ele>
        <time>2015-11-14T10:29:55Z</time>
      </trkpt>
      <trkpt lat="43.46645" lon="6.91448">
        <ele>315.93</ele>
        <time>2015-11-14T10:29:58Z</time>
      </trkpt>
      <trkpt lat="43.46639" lon="6.91451">
        <ele>319.3</ele>
        <time>2015-11-14T10:30:11Z</time>
      </trkpt>
      <trkpt lat="43.46638" lon="6.91456">
        <ele>319.78</ele>
        <time>2015-11-14T10:30:18Z</time>
      </trkpt>
      <trkpt lat="43.46636" lon="6.91463">
        <ele>321.22</ele>
        <time>2015-11-14T10:30:23Z</time>
      </trkpt>
      <trkpt lat="43.46632" lon="6.91476">
        <ele>324.58</ele>
        <time>2015-11-14T10:30:36Z</time>
      </trkpt>
      <trkpt lat="43.46629" lon="6.91482">
        <ele>326.99</ele>
        <time>2015-11-14T10:30:53Z</time>
      </trkpt>
      <trkpt lat="43.46625" lon="6.91482">
        <ele>327.95</ele>
        <time>2015-11-14T10:31:06Z</time>
      </trkpt>
      <trkpt lat="43.46626" lon="6.91475">
        <ele>326.02</ele>
        <time>2015-11-14T10:31:20Z</time>
      </trkpt>
      <trkpt lat="43.46626" lon="6.91473">
        <ele>325.54</ele>
        <time>2015-11-14T10:31:22Z</time>
      </trkpt>
      <trkpt lat="43.46623" lon="6.9147">
        <ele>326.99</ele>
        <time>2015-11-14T10:31:29Z</time>
      </trkpt>
      <trkpt lat="43.46622" lon="6.9147">
        <ele>326.99</ele>
        <time>2015-11-14T10:31:31Z</time>
      </trkpt>
      <trkpt lat="43.46622" lon="6.91472">
        <ele>326.99</ele>
        <time>2015-11-14T10:31:33Z</time>
      </trkpt>
      <trkpt lat="43.46613" lon="6.91486">
        <ele>328.91</ele>
        <time>2015-11-14T10:31:48Z</time>
      </trkpt>
      <trkpt lat="43.46606" lon="6.91494">
        <ele>328.91</ele>
        <time>2015-11-14T10:32:02Z</time>
      </trkpt>
      <trkpt lat="43.46597" lon="6.91502">
        <ele>330.35</ele>
        <time>2015-11-14T10:32:15Z</time>
      </trkpt>
      <trkpt lat="43.46599" lon="6.91506">
        <ele>330.35</ele>
        <time>2015-11-14T10:32:29Z</time>
      </trkpt>
      <trkpt lat="43.46599" lon="6.91506">
        <ele>328.91</ele>
        <time>2015-11-14T10:32:32Z</time>
      </trkpt>
      <trkpt lat="43.46599" lon="6.91507">
        <ele>328.91</ele>
        <time>2015-11-14T10:33:05Z</time>
      </trkpt>
      <trkpt lat="43.466" lon="6.91509">
        <ele>328.91</ele>
        <time>2015-11-14T10:33:49Z</time>
      </trkpt>
      <trkpt lat="43.46599" lon="6.91508">
        <ele>328.91</ele>
        <time>2015-11-14T10:34:27Z</time>
      </trkpt>
      <trkpt lat="43.46597" lon="6.91511">
        <ele>328.91</ele>
        <time>2015-11-14T10:35:05Z</time>
      </trkpt>
      <trkpt lat="43.46598" lon="6.9151">
        <ele>328.91</ele>
        <time>2015-11-14T10:35:44Z</time>
      </trkpt>
      <trkpt lat="43.46598" lon="6.91511">
        <ele>328.91</ele>
        <time>2015-11-14T10:36:22Z</time>
      </trkpt>
      <trkpt lat="43.46599" lon="6.9151">
        <ele>328.91</ele>
        <time>2015-11-14T10:37:03Z</time>
      </trkpt>
      <trkpt lat="43.466" lon="6.91511">
        <ele>328.91</ele>
        <time>2015-11-14T10:37:44Z</time>
      </trkpt>
      <trkpt lat="43.46598" lon="6.91509">
        <ele>329.87</ele>
        <time>2015-11-14T10:38:02Z</time>
      </trkpt>
      <trkpt lat="43.46597" lon="6.91507">
        <ele>330.35</ele>
        <time>2015-11-14T10:38:19Z</time>
      </trkpt>
      <trkpt lat="43.466" lon="6.91502">
        <ele>329.39</ele>
        <time>2015-11-14T10:38:44Z</time>
      </trkpt>
      <trkpt lat="43.46601" lon="6.91501">
        <ele>329.39</ele>
        <time>2015-11-14T10:38:45Z</time>
      </trkpt>
      <trkpt lat="43.46607" lon="6.91491">
        <ele>328.43</ele>
        <time>2015-11-14T10:38:59Z</time>
      </trkpt>
      <trkpt lat="43.46614" lon="6.91479">
        <ele>328.43</ele>
        <time>2015-11-14T10:39:12Z</time>
      </trkpt>
      <trkpt lat="43.46619" lon="6.91471">
        <ele>326.5</ele>
        <time>2015-11-14T10:39:23Z</time>
      </trkpt>
      <trkpt lat="43.4663" lon="6.91476">
        <ele>323.14</ele>
        <time>2015-11-14T10:39:36Z</time>
      </trkpt>
      <trkpt lat="43.46633" lon="6.91476">
        <ele>322.66</ele>
        <time>2015-11-14T10:39:40Z</time>
      </trkpt>
      <trkpt lat="43.46633" lon="6.91472">
        <ele>321.22</ele>
        <time>2015-11-14T10:39:43Z</time>
      </trkpt>
      <trkpt lat="43.46638" lon="6.91456">
        <ele>318.33</ele>
        <time>2015-11-14T10:39:57Z</time>
      </trkpt>
      <trkpt lat="43.46639" lon="6.91451">
        <ele>316.89</ele>
        <time>2015-11-14T10:40:03Z</time>
      </trkpt>
      <trkpt lat="43.46645" lon="6.91458">
        <ele>313.53</ele>
        <time>2015-11-14T10:40:17Z</time>
      </trkpt>
      <trkpt lat="43.46648" lon="6.91458">
        <ele>313.05</ele>
        <time>2015-11-14T10:40:21Z</time>
      </trkpt>
      <trkpt lat="43.46652" lon="6.91444">
        <ele>310.64</ele>
        <time>2015-11-14T10:40:34Z</time>
      </trkpt>
      <trkpt lat="43.46658" lon="6.91427">
        <ele>308.24</ele>
        <time>2015-11-14T10:40:48Z</time>
      </trkpt>
      <trkpt lat="43.4666" lon="6.91414">
        <ele>305.84</ele>
        <time>2015-11-14T10:40:59Z</time>
      </trkpt>
      <trkpt lat="43.46663" lon="6.91391">
        <ele>301.99</ele>
        <time>2015-11-14T10:41:15Z</time>
      </trkpt>
      <trkpt lat="43.46666" lon="6.91368">
        <ele>298.63</ele>
        <time>2015-11-14T10:41:30Z</time>
      </trkpt>
      <trkpt lat="43.46667" lon="6.91366">
        <ele>298.15</ele>
        <time>2015-11-14T10:41:31Z</time>
      </trkpt>
      <trkpt lat="43.4667" lon="6.91345">
        <ele>295.26</ele>
        <time>2015-11-14T10:41:42Z</time>
      </trkpt>
      <trkpt lat="43.46671" lon="6.91343">
        <ele>295.26</ele>
        <time>2015-11-14T10:41:43Z</time>
      </trkpt>
      <trkpt lat="43.46671" lon="6.91321">
        <ele>291.9</ele>
        <time>2015-11-14T10:41:56Z</time>
      </trkpt>
      <trkpt lat="43.46671" lon="6.913">
        <ele>288.05</ele>
        <time>2015-11-14T10:42:10Z</time>
      </trkpt>
      <trkpt lat="43.4667" lon="6.91279">
        <ele>287.09</ele>
        <time>2015-11-14T10:42:27Z</time>
      </trkpt>
      <trkpt lat="43.4667" lon="6.91277">
        <ele>287.09</ele>
        <time>2015-11-14T10:42:28Z</time>
      </trkpt>
      <trkpt lat="43.46668" lon="6.91262">
        <ele>285.17</ele>
        <time>2015-11-14T10:42:37Z</time>
      </trkpt>
      <trkpt lat="43.46669" lon="6.91244">
        <ele>282.28</ele>
        <time>2015-11-14T10:42:50Z</time>
      </trkpt>
      <trkpt lat="43.46673" lon="6.91232">
        <ele>280.36</ele>
        <time>2015-11-14T10:43:00Z</time>
      </trkpt>
      <trkpt lat="43.46672" lon="6.91222">
        <ele>280.84</ele>
        <time>2015-11-14T10:43:05Z</time>
      </trkpt>
      <trkpt lat="43.46673" lon="6.91212">
        <ele>279.4</ele>
        <time>2015-11-14T10:43:10Z</time>
      </trkpt>
      <trkpt lat="43.46674" lon="6.91202">
        <ele>279.4</ele>
        <time>2015-11-14T10:43:15Z</time>
      </trkpt>
      <trkpt lat="43.46682" lon="6.91169">
        <ele>279.4</ele>
        <time>2015-11-14T10:43:32Z</time>
      </trkpt>
      <trkpt lat="43.46689" lon="6.91144">
        <ele>279.88</ele>
        <time>2015-11-14T10:43:46Z</time>
      </trkpt>
      <trkpt lat="43.46703" lon="6.91109">
        <ele>279.4</ele>
        <time>2015-11-14T10:44:05Z</time>
      </trkpt>
      <trkpt lat="43.46709" lon="6.91097">
        <ele>279.4</ele>
        <time>2015-11-14T10:44:12Z</time>
      </trkpt>
      <trkpt lat="43.46724" lon="6.91074">
        <ele>278.92</ele>
        <time>2015-11-14T10:44:29Z</time>
      </trkpt>
      <trkpt lat="43.46742" lon="6.91061">
        <ele>277.96</ele>
        <time>2015-11-14T10:44:44Z</time>
      </trkpt>
      <trkpt lat="43.46766" lon="6.9105">
        <ele>277</ele>
        <time>2015-11-14T10:45:04Z</time>
      </trkpt>
      <trkpt lat="43.46788" lon="6.91036">
        <ele>276.52</ele>
        <time>2015-11-14T10:45:22Z</time>
      </trkpt>
      <trkpt lat="43.46809" lon="6.91018">
        <ele>276.52</ele>
        <time>2015-11-14T10:45:40Z</time>
      </trkpt>
      <trkpt lat="43.46826" lon="6.91">
        <ele>276.04</ele>
        <time>2015-11-14T10:45:55Z</time>
      </trkpt>
      <trkpt lat="43.46845" lon="6.90983">
        <ele>275.56</ele>
        <time>2015-11-14T10:46:12Z</time>
      </trkpt>
      <trkpt lat="43.46863" lon="6.90976">
        <ele>275.07</ele>
        <time>2015-11-14T10:46:28Z</time>
      </trkpt>
      <trkpt lat="43.46886" lon="6.90966">
        <ele>275.07</ele>
        <time>2015-11-14T10:46:48Z</time>
      </trkpt>
      <trkpt lat="43.46916" lon="6.90955">
        <ele>275.07</ele>
        <time>2015-11-14T10:47:08Z</time>
      </trkpt>
      <trkpt lat="43.4694" lon="6.90939">
        <ele>275.07</ele>
        <time>2015-11-14T10:47:27Z</time>
      </trkpt>
      <trkpt lat="43.46959" lon="6.90924">
        <ele>274.59</ele>
        <time>2015-11-14T10:47:43Z</time>
      </trkpt>
      <trkpt lat="43.46969" lon="6.90909">
        <ele>277</ele>
        <time>2015-11-14T10:47:56Z</time>
      </trkpt>
      <trkpt lat="43.46973" lon="6.90905">
        <ele>277.48</ele>
        <time>2015-11-14T10:48:00Z</time>
      </trkpt>
      <trkpt lat="43.46981" lon="6.90894">
        <ele>276.52</ele>
        <time>2015-11-14T10:48:09Z</time>
      </trkpt>
      <trkpt lat="43.46983" lon="6.90886">
        <ele>276.52</ele>
        <time>2015-11-14T10:48:24Z</time>
      </trkpt>
      <trkpt lat="43.46983" lon="6.90887">
        <ele>276.52</ele>
        <time>2015-11-14T10:48:41Z</time>
      </trkpt>
      <trkpt lat="43.46982" lon="6.90888">
        <ele>276.52</ele>
        <time>2015-11-14T10:49:00Z</time>
      </trkpt>
      <trkpt lat="43.46982" lon="6.90886">
        <ele>276.52</ele>
        <time>2015-11-14T10:49:27Z</time>
      </trkpt>
      <trkpt lat="43.46979" lon="6.90886">
        <ele>276.04</ele>
        <time>2015-11-14T10:49:45Z</time>
      </trkpt>
      <trkpt lat="43.4698" lon="6.90885">
        <ele>276.04</ele>
        <time>2015-11-14T10:50:08Z</time>
      </trkpt>
      <trkpt lat="43.46982" lon="6.90883">
        <ele>276.04</ele>
        <time>2015-11-14T10:50:27Z</time>
      </trkpt>
      <trkpt lat="43.46984" lon="6.90885">
        <ele>276.04</ele>
        <time>2015-11-14T10:50:48Z</time>
      </trkpt>
      <trkpt lat="43.46985" lon="6.90879">
        <ele>274.59</ele>
        <time>2015-11-14T10:51:02Z</time>
      </trkpt>
      <trkpt lat="43.46996" lon="6.90877">
        <ele>273.63</ele>
        <time>2015-11-14T10:51:16Z</time>
      </trkpt>
      <trkpt lat="43.46998" lon="6.90877">
        <ele>273.63</ele>
        <time>2015-11-14T10:51:33Z</time>
      </trkpt>
      <trkpt lat="43.47009" lon="6.90872">
        <ele>273.63</ele>
        <time>2015-11-14T10:51:54Z</time>
      </trkpt>
      <trkpt lat="43.47011" lon="6.90872">
        <ele>275.07</ele>
        <time>2015-11-14T10:51:56Z</time>
      </trkpt>
      <trkpt lat="43.47021" lon="6.90866">
        <ele>276.52</ele>
        <time>2015-11-14T10:52:12Z</time>
      </trkpt>
      <trkpt lat="43.47034" lon="6.9085">
        <ele>279.4</ele>
        <time>2015-11-14T10:52:31Z</time>
      </trkpt>
      <trkpt lat="43.47048" lon="6.90838">
        <ele>282.77</ele>
        <time>2015-11-14T10:52:51Z</time>
      </trkpt>
      <trkpt lat="43.47061" lon="6.90824">
        <ele>286.13</ele>
        <time>2015-11-14T10:53:09Z</time>
      </trkpt>
      <trkpt lat="43.47074" lon="6.90805">
        <ele>286.13</ele>
        <time>2015-11-14T10:53:29Z</time>
      </trkpt>
      <trkpt lat="43.47083" lon="6.90796">
        <ele>289.01</ele>
        <time>2015-11-14T10:53:43Z</time>
      </trkpt>
      <trkpt lat="43.47091" lon="6.90786">
        <ele>292.38</ele>
        <time>2015-11-14T10:53:57Z</time>
      </trkpt>
      <trkpt lat="43.47104" lon="6.9077">
        <ele>294.78</ele>
        <time>2015-11-14T10:54:16Z</time>
      </trkpt>
      <trkpt lat="43.47116" lon="6.90757">
        <ele>297.18</ele>
        <time>2015-11-14T10:54:34Z</time>
      </trkpt>
      <trkpt lat="43.47129" lon="6.90745">
        <ele>300.07</ele>
        <time>2015-11-14T10:54:53Z</time>
      </trkpt>
      <trkpt lat="43.4714" lon="6.90745">
        <ele>303.91</ele>
        <time>2015-11-14T10:55:10Z</time>
      </trkpt>
      <trkpt lat="43.47139" lon="6.90746">
        <ele>303.91</ele>
        <time>2015-11-14T10:55:11Z</time>
      </trkpt>
      <trkpt lat="43.4713" lon="6.90766">
        <ele>305.84</ele>
        <time>2015-11-14T10:55:30Z</time>
      </trkpt>
      <trkpt lat="43.47126" lon="6.90788">
        <ele>308.72</ele>
        <time>2015-11-14T10:55:48Z</time>
      </trkpt>
      <trkpt lat="43.47126" lon="6.90809">
        <ele>311.12</ele>
        <time>2015-11-14T10:56:02Z</time>
      </trkpt>
      <trkpt lat="43.47123" lon="6.90833">
        <ele>313.53</ele>
        <time>2015-11-14T10:56:19Z</time>
      </trkpt>
      <trkpt lat="43.47123" lon="6.90856">
        <ele>316.89</ele>
        <time>2015-11-14T10:56:35Z</time>
      </trkpt>
      <trkpt lat="43.47126" lon="6.90881">
        <ele>319.3</ele>
        <time>2015-11-14T10:56:51Z</time>
      </trkpt>
      <trkpt lat="43.47128" lon="6.90902">
        <ele>321.22</ele>
        <time>2015-11-14T10:57:07Z</time>
      </trkpt>
      <trkpt lat="43.47133" lon="6.90916">
        <ele>323.62</ele>
        <time>2015-11-14T10:57:21Z</time>
      </trkpt>
      <trkpt lat="43.47142" lon="6.90933">
        <ele>326.02</ele>
        <time>2015-11-14T10:57:36Z</time>
      </trkpt>
      <trkpt lat="43.47151" lon="6.90942">
        <ele>327.95</ele>
        <time>2015-11-14T10:57:51Z</time>
      </trkpt>
      <trkpt lat="43.47165" lon="6.90951">
        <ele>330.35</ele>
        <time>2015-11-14T10:58:09Z</time>
      </trkpt>
      <trkpt lat="43.4718" lon="6.90955">
        <ele>332.27</ele>
        <time>2015-11-14T10:58:26Z</time>
      </trkpt>
      <trkpt lat="43.47194" lon="6.90952">
        <ele>334.68</ele>
        <time>2015-11-14T10:58:43Z</time>
      </trkpt>
      <trkpt lat="43.47212" lon="6.90943">
        <ele>337.08</ele>
        <time>2015-11-14T10:59:02Z</time>
      </trkpt>
      <trkpt lat="43.47224" lon="6.90934">
        <ele>339</ele>
        <time>2015-11-14T10:59:17Z</time>
      </trkpt>
      <trkpt lat="43.47238" lon="6.90927">
        <ele>341.89</ele>
        <time>2015-11-14T10:59:36Z</time>
      </trkpt>
      <trkpt lat="43.47254" lon="6.90917">
        <ele>344.77</ele>
        <time>2015-11-14T10:59:54Z</time>
      </trkpt>
      <trkpt lat="43.47273" lon="6.90907">
        <ele>347.65</ele>
        <time>2015-11-14T11:00:13Z</time>
      </trkpt>
      <trkpt lat="43.47291" lon="6.90902">
        <ele>351.02</ele>
        <time>2015-11-14T11:00:32Z</time>
      </trkpt>
      <trkpt lat="43.47306" lon="6.90894">
        <ele>352.94</ele>
        <time>2015-11-14T11:00:50Z</time>
      </trkpt>
      <trkpt lat="43.4732" lon="6.90891">
        <ele>356.31</ele>
        <time>2015-11-14T11:01:06Z</time>
      </trkpt>
      <trkpt lat="43.47335" lon="6.90889">
        <ele>358.71</ele>
        <time>2015-11-14T11:01:24Z</time>
      </trkpt>
      <trkpt lat="43.47348" lon="6.90886">
        <ele>361.59</ele>
        <time>2015-11-14T11:01:41Z</time>
      </trkpt>
      <trkpt lat="43.47352" lon="6.90887">
        <ele>361.59</ele>
        <time>2015-11-14T11:01:56Z</time>
      </trkpt>
      <trkpt lat="43.47347" lon="6.90883">
        <ele>362.55</ele>
        <time>2015-11-14T11:02:11Z</time>
      </trkpt>
      <trkpt lat="43.47333" lon="6.90873">
        <ele>365.92</ele>
        <time>2015-11-14T11:02:28Z</time>
      </trkpt>
      <trkpt lat="43.47317" lon="6.90863">
        <ele>368.32</ele>
        <time>2015-11-14T11:02:44Z</time>
      </trkpt>
      <trkpt lat="43.47306" lon="6.9085">
        <ele>371.69</ele>
        <time>2015-11-14T11:02:58Z</time>
      </trkpt>
      <trkpt lat="43.47305" lon="6.90848">
        <ele>371.69</ele>
        <time>2015-11-14T11:03:04Z</time>
      </trkpt>
      <trkpt lat="43.47307" lon="6.90847">
        <ele>372.17</ele>
        <time>2015-11-14T11:03:06Z</time>
      </trkpt>
      <trkpt lat="43.47327" lon="6.90846">
        <ele>374.57</ele>
        <time>2015-11-14T11:03:25Z</time>
      </trkpt>
      <trkpt lat="43.47342" lon="6.9085">
        <ele>375.53</ele>
        <time>2015-11-14T11:03:41Z</time>
      </trkpt>
      <trkpt lat="43.47358" lon="6.90847">
        <ele>378.9</ele>
        <time>2015-11-14T11:03:56Z</time>
      </trkpt>
      <trkpt lat="43.47378" lon="6.9085">
        <ele>380.82</ele>
        <time>2015-11-14T11:04:15Z</time>
      </trkpt>
      <trkpt lat="43.47391" lon="6.90854">
        <ele>384.18</ele>
        <time>2015-11-14T11:04:28Z</time>
      </trkpt>
      <trkpt lat="43.47401" lon="6.90856">
        <ele>385.15</ele>
        <time>2015-11-14T11:04:42Z</time>
      </trkpt>
      <trkpt lat="43.47401" lon="6.90856">
        <ele>383.7</ele>
        <time>2015-11-14T11:05:13Z</time>
      </trkpt>
      <trkpt lat="43.47402" lon="6.90854">
        <ele>383.7</ele>
        <time>2015-11-14T11:05:30Z</time>
      </trkpt>
      <trkpt lat="43.47403" lon="6.90855">
        <ele>383.7</ele>
        <time>2015-11-14T11:05:48Z</time>
      </trkpt>
      <trkpt lat="43.47409" lon="6.90864">
        <ele>383.7</ele>
        <time>2015-11-14T11:05:58Z</time>
      </trkpt>
      <trkpt lat="43.4741" lon="6.90864">
        <ele>383.7</ele>
        <time>2015-11-14T11:05:59Z</time>
      </trkpt>
      <trkpt lat="43.47421" lon="6.90868">
        <ele>385.63</ele>
        <time>2015-11-14T11:06:14Z</time>
      </trkpt>
      <trkpt lat="43.47422" lon="6.90869">
        <ele>385.63</ele>
        <time>2015-11-14T11:06:15Z</time>
      </trkpt>
      <trkpt lat="43.47427" lon="6.90874">
        <ele>387.55</ele>
        <time>2015-11-14T11:06:22Z</time>
      </trkpt>
      <trkpt lat="43.47435" lon="6.90883">
        <ele>389.47</ele>
        <time>2015-11-14T11:06:39Z</time>
      </trkpt>
      <trkpt lat="43.47441" lon="6.90887">
        <ele>391.39</ele>
        <time>2015-11-14T11:06:54Z</time>
      </trkpt>
      <trkpt lat="43.47452" lon="6.90901">
        <ele>392.84</ele>
        <time>2015-11-14T11:07:09Z</time>
      </trkpt>
      <trkpt lat="43.47465" lon="6.90919">
        <ele>396.2</ele>
        <time>2015-11-14T11:07:26Z</time>
      </trkpt>
      <trkpt lat="43.47476" lon="6.90935">
        <ele>398.6</ele>
        <time>2015-11-14T11:07:40Z</time>
      </trkpt>
      <trkpt lat="43.47488" lon="6.90953">
        <ele>401.97</ele>
        <time>2015-11-14T11:07:56Z</time>
      </trkpt>
      <trkpt lat="43.47493" lon="6.90966">
        <ele>403.41</ele>
        <time>2015-11-14T11:08:10Z</time>
      </trkpt>
      <trkpt lat="43.47502" lon="6.9098">
        <ele>406.77</ele>
        <time>2015-11-14T11:08:24Z</time>
      </trkpt>
      <trkpt lat="43.47501" lon="6.90968">
        <ele>409.66</ele>
        <time>2015-11-14T11:08:36Z</time>
      </trkpt>
      <trkpt lat="43.47499" lon="6.90947">
        <ele>412.06</ele>
        <time>2015-11-14T11:08:52Z</time>
      </trkpt>
      <trkpt lat="43.47502" lon="6.90943">
        <ele>414.95</ele>
        <time>2015-11-14T11:08:59Z</time>
      </trkpt>
      <trkpt lat="43.47511" lon="6.90954">
        <ele>417.35</ele>
        <time>2015-11-14T11:09:14Z</time>
      </trkpt>
      <trkpt lat="43.4752" lon="6.90973">
        <ele>421.19</ele>
        <time>2015-11-14T11:09:31Z</time>
      </trkpt>
      <trkpt lat="43.47522" lon="6.90967">
        <ele>423.12</ele>
        <time>2015-11-14T11:09:43Z</time>
      </trkpt>
      <trkpt lat="43.47519" lon="6.90949">
        <ele>425.52</ele>
        <time>2015-11-14T11:09:57Z</time>
      </trkpt>
      <trkpt lat="43.47515" lon="6.90923">
        <ele>428.89</ele>
        <time>2015-11-14T11:10:16Z</time>
      </trkpt>
      <trkpt lat="43.47511" lon="6.90897">
        <ele>431.77</ele>
        <time>2015-11-14T11:10:33Z</time>
      </trkpt>
      <trkpt lat="43.47508" lon="6.9088">
        <ele>434.17</ele>
        <time>2015-11-14T11:10:50Z</time>
      </trkpt>
      <trkpt lat="43.47499" lon="6.9086">
        <ele>437.06</ele>
        <time>2015-11-14T11:11:09Z</time>
      </trkpt>
      <trkpt lat="43.47498" lon="6.90847">
        <ele>439.94</ele>
        <time>2015-11-14T11:11:23Z</time>
      </trkpt>
      <trkpt lat="43.475" lon="6.90843">
        <ele>442.34</ele>
        <time>2015-11-14T11:11:30Z</time>
      </trkpt>
      <trkpt lat="43.47504" lon="6.90836">
        <ele>442.34</ele>
        <time>2015-11-14T11:11:46Z</time>
      </trkpt>
      <trkpt lat="43.47503" lon="6.90836">
        <ele>440.9</ele>
        <time>2015-11-14T11:12:40Z</time>
      </trkpt>
      <trkpt lat="43.47503" lon="6.90836">
        <ele>440.9</ele>
        <time>2015-11-14T11:13:18Z</time>
      </trkpt>
      <trkpt lat="43.47502" lon="6.90835">
        <ele>440.9</ele>
        <time>2015-11-14T11:13:41Z</time>
      </trkpt>
      <trkpt lat="43.475" lon="6.90835">
        <ele>440.9</ele>
        <time>2015-11-14T11:14:07Z</time>
      </trkpt>
      <trkpt lat="43.475" lon="6.90834">
        <ele>440.9</ele>
        <time>2015-11-14T11:14:21Z</time>
      </trkpt>
      <trkpt lat="43.475" lon="6.90834">
        <ele>440.9</ele>
        <time>2015-11-14T11:14:41Z</time>
      </trkpt>
      <trkpt lat="43.47503" lon="6.90833">
        <ele>440.42</ele>
        <time>2015-11-14T11:14:59Z</time>
      </trkpt>
      <trkpt lat="43.475" lon="6.9083">
        <ele>440.42</ele>
        <time>2015-11-14T11:15:18Z</time>
      </trkpt>
      <trkpt lat="43.475" lon="6.90829">
        <ele>440.42</ele>
        <time>2015-11-14T11:15:25Z</time>
      </trkpt>
      <trkpt lat="43.47497" lon="6.90825">
        <ele>440.42</ele>
        <time>2015-11-14T11:15:31Z</time>
      </trkpt>
      <trkpt lat="43.47496" lon="6.90806">
        <ele>440.9</ele>
        <time>2015-11-14T11:15:52Z</time>
      </trkpt>
      <trkpt lat="43.475" lon="6.90803">
        <ele>442.34</ele>
        <time>2015-11-14T11:15:57Z</time>
      </trkpt>
      <trkpt lat="43.47519" lon="6.90777">
        <ele>445.71</ele>
        <time>2015-11-14T11:16:19Z</time>
      </trkpt>
      <trkpt lat="43.47534" lon="6.90753">
        <ele>448.11</ele>
        <time>2015-11-14T11:16:40Z</time>
      </trkpt>
      <trkpt lat="43.47547" lon="6.90729">
        <ele>451</ele>
        <time>2015-11-14T11:17:01Z</time>
      </trkpt>
      <trkpt lat="43.47559" lon="6.90704">
        <ele>453.88</ele>
        <time>2015-11-14T11:17:20Z</time>
      </trkpt>
      <trkpt lat="43.47566" lon="6.90684">
        <ele>456.76</ele>
        <time>2015-11-14T11:17:39Z</time>
      </trkpt>
      <trkpt lat="43.47568" lon="6.90661">
        <ele>459.17</ele>
        <time>2015-11-14T11:17:57Z</time>
      </trkpt>
      <trkpt lat="43.47574" lon="6.90644">
        <ele>461.57</ele>
        <time>2015-11-14T11:18:15Z</time>
      </trkpt>
      <trkpt lat="43.47579" lon="6.90641">
        <ele>464.45</ele>
        <time>2015-11-14T11:18:34Z</time>
      </trkpt>
      <trkpt lat="43.47584" lon="6.90642">
        <ele>467.82</ele>
        <time>2015-11-14T11:18:45Z</time>
      </trkpt>
      <trkpt lat="43.47592" lon="6.90651">
        <ele>470.7</ele>
        <time>2015-11-14T11:18:59Z</time>
      </trkpt>
      <trkpt lat="43.47597" lon="6.9066">
        <ele>472.63</ele>
        <time>2015-11-14T11:19:17Z</time>
      </trkpt>
      <trkpt lat="43.47599" lon="6.90664">
        <ele>473.59</ele>
        <time>2015-11-14T11:19:38Z</time>
      </trkpt>
      <trkpt lat="43.47601" lon="6.90666">
        <ele>473.59</ele>
        <time>2015-11-14T11:19:55Z</time>
      </trkpt>
      <trkpt lat="43.476" lon="6.90673">
        <ele>472.14</ele>
        <time>2015-11-14T11:20:09Z</time>
      </trkpt>
      <trkpt lat="43.47605" lon="6.90689">
        <ele>471.66</ele>
        <time>2015-11-14T11:20:26Z</time>
      </trkpt>
      <trkpt lat="43.47605" lon="6.90683">
        <ele>471.66</ele>
        <time>2015-11-14T11:20:42Z</time>
      </trkpt>
      <trkpt lat="43.47603" lon="6.9068">
        <ele>471.66</ele>
        <time>2015-11-14T11:21:08Z</time>
      </trkpt>
      <trkpt lat="43.47602" lon="6.90679">
        <ele>471.66</ele>
        <time>2015-11-14T11:21:23Z</time>
      </trkpt>
      <trkpt lat="43.47592" lon="6.90703">
        <ele>470.22</ele>
        <time>2015-11-14T11:21:41Z</time>
      </trkpt>
      <trkpt lat="43.47594" lon="6.90718">
        <ele>472.14</ele>
        <time>2015-11-14T11:21:54Z</time>
      </trkpt>
      <trkpt lat="43.47591" lon="6.90724">
        <ele>473.11</ele>
        <time>2015-11-14T11:22:08Z</time>
      </trkpt>
      <trkpt lat="43.47589" lon="6.90724">
        <ele>473.11</ele>
        <time>2015-11-14T11:22:27Z</time>
      </trkpt>
      <trkpt lat="43.4759" lon="6.90722">
        <ele>467.82</ele>
        <time>2015-11-14T11:22:32Z</time>
      </trkpt>
      <trkpt lat="43.4759" lon="6.90722">
        <ele>472.63</ele>
        <time>2015-11-14T11:22:33Z</time>
      </trkpt>
      <trkpt lat="43.4759" lon="6.90723">
        <ele>471.66</ele>
        <time>2015-11-14T11:22:52Z</time>
      </trkpt>
      <trkpt lat="43.47591" lon="6.90724">
        <ele>470.7</ele>
        <time>2015-11-14T11:23:17Z</time>
      </trkpt>
      <trkpt lat="43.47592" lon="6.90727">
        <ele>472.14</ele>
        <time>2015-11-14T11:23:54Z</time>
      </trkpt>
      <trkpt lat="43.47592" lon="6.90727">
        <ele>472.14</ele>
        <time>2015-11-14T11:24:33Z</time>
      </trkpt>
      <trkpt lat="43.47592" lon="6.90727">
        <ele>472.14</ele>
        <time>2015-11-14T11:25:08Z</time>
      </trkpt>
      <trkpt lat="43.47592" lon="6.90726">
        <ele>472.14</ele>
        <time>2015-11-14T11:25:44Z</time>
      </trkpt>
      <trkpt lat="43.47592" lon="6.90726">
        <ele>472.14</ele>
        <time>2015-11-14T11:26:19Z</time>
      </trkpt>
      <trkpt lat="43.47592" lon="6.90726">
        <ele>472.14</ele>
        <time>2015-11-14T11:26:58Z</time>
      </trkpt>
      <trkpt lat="43.47592" lon="6.90726">
        <ele>472.14</ele>
        <time>2015-11-14T11:27:37Z</time>
      </trkpt>
      <trkpt lat="43.47592" lon="6.90727">
        <ele>472.14</ele>
        <time>2015-11-14T11:28:12Z</time>
      </trkpt>
      <trkpt lat="43.47591" lon="6.90727">
        <ele>472.14</ele>
        <time>2015-11-14T11:28:46Z</time>
      </trkpt>
      <trkpt lat="43.47592" lon="6.90728">
        <ele>472.63</ele>
        <time>2015-11-14T11:29:18Z</time>
      </trkpt>
      <trkpt lat="43.47592" lon="6.90727">
        <ele>472.14</ele>
        <time>2015-11-14T11:29:56Z</time>
      </trkpt>
      <trkpt lat="43.47593" lon="6.90727">
        <ele>472.14</ele>
        <time>2015-11-14T11:30:27Z</time>
      </trkpt>
      <trkpt lat="43.47592" lon="6.90727">
        <ele>472.14</ele>
        <time>2015-11-14T11:31:03Z</time>
      </trkpt>
      <trkpt lat="43.47593" lon="6.90727">
        <ele>472.63</ele>
        <time>2015-11-14T11:31:36Z</time>
      </trkpt>
      <trkpt lat="43.47591" lon="6.90725">
        <ele>472.14</ele>
        <time>2015-11-14T11:31:48Z</time>
      </trkpt>
      <trkpt lat="43.47591" lon="6.90725">
        <ele>472.63</ele>
        <time>2015-11-14T11:31:50Z</time>
      </trkpt>
      <trkpt lat="43.47591" lon="6.90723">
        <ele>472.63</ele>
        <time>2015-11-14T11:32:12Z</time>
      </trkpt>
      <trkpt lat="43.47591" lon="6.90723">
        <ele>472.63</ele>
        <time>2015-11-14T11:32:30Z</time>
      </trkpt>
      <trkpt lat="43.47591" lon="6.90722">
        <ele>472.63</ele>
        <time>2015-11-14T11:32:54Z</time>
      </trkpt>
      <trkpt lat="43.47592" lon="6.90722">
        <ele>472.63</ele>
        <time>2015-11-14T11:33:32Z</time>
      </trkpt>
      <trkpt lat="43.47592" lon="6.90722">
        <ele>473.11</ele>
        <time>2015-11-14T11:34:02Z</time>
      </trkpt>
      <trkpt lat="43.47594" lon="6.90726">
        <ele>473.59</ele>
        <time>2015-11-14T11:34:25Z</time>
      </trkpt>
      <trkpt lat="43.47593" lon="6.90726">
        <ele>473.59</ele>
        <time>2015-11-14T11:34:51Z</time>
      </trkpt>
      <trkpt lat="43.47593" lon="6.90725">
        <ele>473.11</ele>
        <time>2015-11-14T11:35:24Z</time>
      </trkpt>
      <trkpt lat="43.47593" lon="6.90726">
        <ele>473.59</ele>
        <time>2015-11-14T11:36:02Z</time>
      </trkpt>
      <trkpt lat="43.47593" lon="6.90726">
        <ele>473.59</ele>
        <time>2015-11-14T11:36:28Z</time>
      </trkpt>
      <trkpt lat="43.47593" lon="6.90727">
        <ele>473.59</ele>
        <time>2015-11-14T11:36:54Z</time>
      </trkpt>
      <trkpt lat="43.47593" lon="6.90726">
        <ele>473.11</ele>
        <time>2015-11-14T11:37:30Z</time>
      </trkpt>
      <trkpt lat="43.47593" lon="6.90727">
        <ele>473.11</ele>
        <time>2015-11-14T11:37:49Z</time>
      </trkpt>
      <trkpt lat="43.47592" lon="6.90727">
        <ele>473.11</ele>
        <time>2015-11-14T11:38:17Z</time>
      </trkpt>
      <trkpt lat="43.47592" lon="6.90726">
        <ele>473.11</ele>
        <time>2015-11-14T11:38:46Z</time>
      </trkpt>
      <trkpt lat="43.47593" lon="6.90727">
        <ele>473.11</ele>
        <time>2015-11-14T11:39:14Z</time>
      </trkpt>
      <trkpt lat="43.47593" lon="6.90728">
        <ele>473.11</ele>
        <time>2015-11-14T11:39:33Z</time>
      </trkpt>
      <trkpt lat="43.47593" lon="6.90728">
        <ele>473.11</ele>
        <time>2015-11-14T11:39:57Z</time>
      </trkpt>
      <trkpt lat="43.47593" lon="6.90729">
        <ele>473.11</ele>
        <time>2015-11-14T11:40:23Z</time>
      </trkpt>
      <trkpt lat="43.47593" lon="6.90728">
        <ele>473.11</ele>
        <time>2015-11-14T11:40:48Z</time>
      </trkpt>
      <trkpt lat="43.47593" lon="6.90728">
        <ele>473.11</ele>
        <time>2015-11-14T11:41:14Z</time>
      </trkpt>
      <trkpt lat="43.47593" lon="6.90729">
        <ele>472.63</ele>
        <time>2015-11-14T11:41:42Z</time>
      </trkpt>
      <trkpt lat="43.47593" lon="6.90728">
        <ele>472.63</ele>
        <time>2015-11-14T11:42:12Z</time>
      </trkpt>
      <trkpt lat="43.47592" lon="6.90727">
        <ele>472.63</ele>
        <time>2015-11-14T11:42:39Z</time>
      </trkpt>
      <trkpt lat="43.47593" lon="6.90727">
        <ele>472.63</ele>
        <time>2015-11-14T11:43:01Z</time>
      </trkpt>
      <trkpt lat="43.47593" lon="6.90727">
        <ele>472.63</ele>
        <time>2015-11-14T11:43:32Z</time>
      </trkpt>
      <trkpt lat="43.47592" lon="6.90727">
        <ele>472.63</ele>
        <time>2015-11-14T11:43:59Z</time>
      </trkpt>
      <trkpt lat="43.47593" lon="6.90727">
        <ele>472.63</ele>
        <time>2015-11-14T11:44:26Z</time>
      </trkpt>
      <trkpt lat="43.47593" lon="6.90727">
        <ele>472.14</ele>
        <time>2015-11-14T11:44:57Z</time>
      </trkpt>
      <trkpt lat="43.47593" lon="6.90727">
        <ele>472.14</ele>
        <time>2015-11-14T11:45:31Z</time>
      </trkpt>
      <trkpt lat="43.47593" lon="6.90727">
        <ele>472.63</ele>
        <time>2015-11-14T11:45:47Z</time>
      </trkpt>
      <trkpt lat="43.47593" lon="6.90727">
        <ele>472.63</ele>
        <time>2015-11-14T11:46:08Z</time>
      </trkpt>
      <trkpt lat="43.47593" lon="6.90727">
        <ele>472.63</ele>
        <time>2015-11-14T11:46:33Z</time>
      </trkpt>
      <trkpt lat="43.47593" lon="6.90726">
        <ele>472.63</ele>
        <time>2015-11-14T11:47:02Z</time>
      </trkpt>
      <trkpt lat="43.47593" lon="6.90726">
        <ele>472.63</ele>
        <time>2015-11-14T11:47:27Z</time>
      </trkpt>
      <trkpt lat="43.47592" lon="6.90727">
        <ele>472.63</ele>
        <time>2015-11-14T11:47:50Z</time>
      </trkpt>
      <trkpt lat="43.47593" lon="6.90726">
        <ele>472.63</ele>
        <time>2015-11-14T11:48:18Z</time>
      </trkpt>
      <trkpt lat="43.47593" lon="6.90727">
        <ele>472.63</ele>
        <time>2015-11-14T11:48:40Z</time>
      </trkpt>
      <trkpt lat="43.47592" lon="6.90727">
        <ele>472.14</ele>
        <time>2015-11-14T11:49:00Z</time>
      </trkpt>
      <trkpt lat="43.47593" lon="6.90727">
        <ele>472.14</ele>
        <time>2015-11-14T11:49:21Z</time>
      </trkpt>
      <trkpt lat="43.47592" lon="6.90726">
        <ele>472.63</ele>
        <time>2015-11-14T11:49:49Z</time>
      </trkpt>
      <trkpt lat="43.47592" lon="6.90726">
        <ele>472.63</ele>
        <time>2015-11-14T11:50:11Z</time>
      </trkpt>
      <trkpt lat="43.47593" lon="6.90728">
        <ele>472.63</ele>
        <time>2015-11-14T11:50:34Z</time>
      </trkpt>
      <trkpt lat="43.47593" lon="6.90727">
        <ele>472.63</ele>
        <time>2015-11-14T11:50:55Z</time>
      </trkpt>
      <trkpt lat="43.47592" lon="6.90728">
        <ele>472.63</ele>
        <time>2015-11-14T11:51:21Z</time>
      </trkpt>
      <trkpt lat="43.47593" lon="6.90727">
        <ele>472.63</ele>
        <time>2015-11-14T11:51:50Z</time>
      </trkpt>
      <trkpt lat="43.47593" lon="6.90726">
        <ele>472.63</ele>
        <time>2015-11-14T11:52:14Z</time>
      </trkpt>
      <trkpt lat="43.47593" lon="6.90727">
        <ele>472.14</ele>
        <time>2015-11-14T11:52:37Z</time>
      </trkpt>
      <trkpt lat="43.47592" lon="6.90729">
        <ele>472.14</ele>
        <time>2015-11-14T11:52:59Z</time>
      </trkpt>
      <trkpt lat="43.47593" lon="6.90729">
        <ele>472.14</ele>
        <time>2015-11-14T11:53:18Z</time>
      </trkpt>
      <trkpt lat="43.47593" lon="6.90728">
        <ele>472.14</ele>
        <time>2015-11-14T11:53:39Z</time>
      </trkpt>
      <trkpt lat="43.47593" lon="6.90728">
        <ele>472.14</ele>
        <time>2015-11-14T11:53:57Z</time>
      </trkpt>
      <trkpt lat="43.47594" lon="6.90728">
        <ele>472.14</ele>
        <time>2015-11-14T11:54:25Z</time>
      </trkpt>
      <trkpt lat="43.47593" lon="6.90728">
        <ele>472.14</ele>
        <time>2015-11-14T11:54:57Z</time>
      </trkpt>
      <trkpt lat="43.47593" lon="6.90728">
        <ele>472.14</ele>
        <time>2015-11-14T11:55:23Z</time>
      </trkpt>
      <trkpt lat="43.47594" lon="6.90728">
        <ele>472.14</ele>
        <time>2015-11-14T11:55:47Z</time>
      </trkpt>
      <trkpt lat="43.47593" lon="6.90729">
        <ele>472.63</ele>
        <time>2015-11-14T11:56:01Z</time>
      </trkpt>
      <trkpt lat="43.47594" lon="6.9073">
        <ele>472.63</ele>
        <time>2015-11-14T11:56:27Z</time>
      </trkpt>
      <trkpt lat="43.47594" lon="6.90731">
        <ele>472.63</ele>
        <time>2015-11-14T11:56:50Z</time>
      </trkpt>
      <trkpt lat="43.47594" lon="6.90731">
        <ele>473.11</ele>
        <time>2015-11-14T11:57:01Z</time>
      </trkpt>
      <trkpt lat="43.47594" lon="6.9073">
        <ele>473.11</ele>
        <time>2015-11-14T11:57:18Z</time>
      </trkpt>
      <trkpt lat="43.47593" lon="6.90728">
        <ele>473.11</ele>
        <time>2015-11-14T11:57:36Z</time>
      </trkpt>
      <trkpt lat="43.47594" lon="6.90727">
        <ele>473.11</ele>
        <time>2015-11-14T11:57:57Z</time>
      </trkpt>
      <trkpt lat="43.47594" lon="6.90727">
        <ele>473.11</ele>
        <time>2015-11-14T11:58:16Z</time>
      </trkpt>
      <trkpt lat="43.47594" lon="6.90725">
        <ele>473.11</ele>
        <time>2015-11-14T11:58:40Z</time>
      </trkpt>
      <trkpt lat="43.47597" lon="6.90723">
        <ele>471.66</ele>
        <time>2015-11-14T11:58:50Z</time>
      </trkpt>
      <trkpt lat="43.47597" lon="6.90722">
        <ele>471.66</ele>
        <time>2015-11-14T11:58:51Z</time>
      </trkpt>
      <trkpt lat="43.47595" lon="6.90716">
        <ele>470.7</ele>
        <time>2015-11-14T11:58:58Z</time>
      </trkpt>
      <trkpt lat="43.47594" lon="6.90704">
        <ele>470.22</ele>
        <time>2015-11-14T11:59:05Z</time>
      </trkpt>
      <trkpt lat="43.47596" lon="6.90693">
        <ele>470.22</ele>
        <time>2015-11-14T11:59:14Z</time>
      </trkpt>
      <trkpt lat="43.47598" lon="6.90692">
        <ele>470.22</ele>
        <time>2015-11-14T11:59:16Z</time>
      </trkpt>
      <trkpt lat="43.476" lon="6.90673">
        <ele>471.66</ele>
        <time>2015-11-14T11:59:29Z</time>
      </trkpt>
      <trkpt lat="43.476" lon="6.90672">
        <ele>471.66</ele>
        <time>2015-11-14T11:59:30Z</time>
      </trkpt>
      <trkpt lat="43.476" lon="6.90666">
        <ele>472.14</ele>
        <time>2015-11-14T11:59:34Z</time>
      </trkpt>
      <trkpt lat="43.476" lon="6.90663">
        <ele>472.63</ele>
        <time>2015-11-14T11:59:37Z</time>
      </trkpt>
      <trkpt lat="43.47599" lon="6.90655">
        <ele>472.63</ele>
        <time>2015-11-14T11:59:50Z</time>
      </trkpt>
      <trkpt lat="43.47599" lon="6.90654">
        <ele>472.63</ele>
        <time>2015-11-14T11:59:51Z</time>
      </trkpt>
      <trkpt lat="43.47596" lon="6.90653">
        <ele>470.7</ele>
        <time>2015-11-14T12:00:03Z</time>
      </trkpt>
      <trkpt lat="43.4759" lon="6.90644">
        <ele>468.3</ele>
        <time>2015-11-14T12:00:15Z</time>
      </trkpt>
      <trkpt lat="43.47586" lon="6.90639">
        <ele>465.42</ele>
        <time>2015-11-14T12:00:27Z</time>
      </trkpt>
      <trkpt lat="43.4758" lon="6.90638">
        <ele>463.01</ele>
        <time>2015-11-14T12:00:37Z</time>
      </trkpt>
      <trkpt lat="43.47575" lon="6.90637">
        <ele>460.13</ele>
        <time>2015-11-14T12:00:49Z</time>
      </trkpt>
      <trkpt lat="43.47573" lon="6.9064">
        <ele>459.17</ele>
        <time>2015-11-14T12:00:52Z</time>
      </trkpt>
      <trkpt lat="43.47573" lon="6.90646">
        <ele>457.72</ele>
        <time>2015-11-14T12:00:56Z</time>
      </trkpt>
      <trkpt lat="43.4757" lon="6.90661">
        <ele>457.24</ele>
        <time>2015-11-14T12:01:07Z</time>
      </trkpt>
      <trkpt lat="43.47569" lon="6.9067">
        <ele>456.28</ele>
        <time>2015-11-14T12:01:13Z</time>
      </trkpt>
      <trkpt lat="43.47568" lon="6.90672">
        <ele>455.32</ele>
        <time>2015-11-14T12:01:15Z</time>
      </trkpt>
      <trkpt lat="43.47567" lon="6.90677">
        <ele>455.32</ele>
        <time>2015-11-14T12:01:18Z</time>
      </trkpt>
      <trkpt lat="43.47563" lon="6.9069">
        <ele>453.88</ele>
        <time>2015-11-14T12:01:29Z</time>
      </trkpt>
      <trkpt lat="43.47561" lon="6.90698">
        <ele>452.44</ele>
        <time>2015-11-14T12:01:34Z</time>
      </trkpt>
      <trkpt lat="43.47558" lon="6.90703">
        <ele>452.92</ele>
        <time>2015-11-14T12:01:38Z</time>
      </trkpt>
      <trkpt lat="43.47557" lon="6.90706">
        <ele>452.44</ele>
        <time>2015-11-14T12:01:40Z</time>
      </trkpt>
      <trkpt lat="43.47555" lon="6.9071">
        <ele>451.48</ele>
        <time>2015-11-14T12:01:43Z</time>
      </trkpt>
      <trkpt lat="43.47553" lon="6.90715">
        <ele>451</ele>
        <time>2015-11-14T12:01:47Z</time>
      </trkpt>
      <trkpt lat="43.47543" lon="6.90736">
        <ele>448.11</ele>
        <time>2015-11-14T12:02:03Z</time>
      </trkpt>
      <trkpt lat="43.47535" lon="6.90752">
        <ele>447.15</ele>
        <time>2015-11-14T12:02:16Z</time>
      </trkpt>
      <trkpt lat="43.47527" lon="6.90764">
        <ele>444.75</ele>
        <time>2015-11-14T12:02:24Z</time>
      </trkpt>
      <trkpt lat="43.47526" lon="6.90767">
        <ele>445.71</ele>
        <time>2015-11-14T12:02:26Z</time>
      </trkpt>
      <trkpt lat="43.4752" lon="6.90776">
        <ele>444.27</ele>
        <time>2015-11-14T12:02:32Z</time>
      </trkpt>
      <trkpt lat="43.47519" lon="6.90778">
        <ele>444.27</ele>
        <time>2015-11-14T12:02:34Z</time>
      </trkpt>
      <trkpt lat="43.47515" lon="6.90782">
        <ele>442.34</ele>
        <time>2015-11-14T12:02:38Z</time>
      </trkpt>
      <trkpt lat="43.47513" lon="6.90784">
        <ele>444.27</ele>
        <time>2015-11-14T12:02:40Z</time>
      </trkpt>
      <trkpt lat="43.47508" lon="6.90791">
        <ele>442.82</ele>
        <time>2015-11-14T12:02:46Z</time>
      </trkpt>
      <trkpt lat="43.47502" lon="6.90802">
        <ele>440.42</ele>
        <time>2015-11-14T12:02:54Z</time>
      </trkpt>
      <trkpt lat="43.475" lon="6.90803">
        <ele>439.94</ele>
        <time>2015-11-14T12:02:59Z</time>
      </trkpt>
      <trkpt lat="43.47498" lon="6.90802">
        <ele>438.98</ele>
        <time>2015-11-14T12:03:02Z</time>
      </trkpt>
      <trkpt lat="43.47496" lon="6.90807">
        <ele>438.5</ele>
        <time>2015-11-14T12:03:06Z</time>
      </trkpt>
      <trkpt lat="43.47498" lon="6.90823">
        <ele>439.94</ele>
        <time>2015-11-14T12:03:15Z</time>
      </trkpt>
      <trkpt lat="43.47499" lon="6.90828">
        <ele>440.42</ele>
        <time>2015-11-14T12:03:27Z</time>
      </trkpt>
      <trkpt lat="43.47501" lon="6.9083">
        <ele>440.42</ele>
        <time>2015-11-14T12:03:45Z</time>
      </trkpt>
      <trkpt lat="43.47501" lon="6.90829">
        <ele>440.42</ele>
        <time>2015-11-14T12:03:58Z</time>
      </trkpt>
      <trkpt lat="43.47502" lon="6.90829">
        <ele>440.42</ele>
        <time>2015-11-14T12:04:09Z</time>
      </trkpt>
      <trkpt lat="43.47503" lon="6.90828">
        <ele>440.42</ele>
        <time>2015-11-14T12:04:22Z</time>
      </trkpt>
      <trkpt lat="43.47503" lon="6.90828">
        <ele>440.42</ele>
        <time>2015-11-14T12:04:38Z</time>
      </trkpt>
      <trkpt lat="43.47502" lon="6.90828">
        <ele>440.42</ele>
        <time>2015-11-14T12:04:53Z</time>
      </trkpt>
      <trkpt lat="43.47501" lon="6.9083">
        <ele>440.42</ele>
        <time>2015-11-14T12:05:12Z</time>
      </trkpt>
      <trkpt lat="43.47502" lon="6.90835">
        <ele>440.42</ele>
        <time>2015-11-14T12:05:26Z</time>
      </trkpt>
      <trkpt lat="43.47505" lon="6.90841">
        <ele>440.9</ele>
        <time>2015-11-14T12:05:38Z</time>
      </trkpt>
      <trkpt lat="43.47503" lon="6.90842">
        <ele>439.46</ele>
        <time>2015-11-14T12:05:43Z</time>
      </trkpt>
      <trkpt lat="43.475" lon="6.90842">
        <ele>438.02</ele>
        <time>2015-11-14T12:05:57Z</time>
      </trkpt>
      <trkpt lat="43.47499" lon="6.90843">
        <ele>437.54</ele>
        <time>2015-11-14T12:06:00Z</time>
      </trkpt>
      <trkpt lat="43.47498" lon="6.90848">
        <ele>436.1</ele>
        <time>2015-11-14T12:06:03Z</time>
      </trkpt>
      <trkpt lat="43.475" lon="6.90852">
        <ele>434.65</ele>
        <time>2015-11-14T12:06:06Z</time>
      </trkpt>
      <trkpt lat="43.47507" lon="6.90879">
        <ele>431.29</ele>
        <time>2015-11-14T12:06:22Z</time>
      </trkpt>
      <trkpt lat="43.47512" lon="6.90903">
        <ele>428.89</ele>
        <time>2015-11-14T12:06:35Z</time>
      </trkpt>
      <trkpt lat="43.47516" lon="6.9092">
        <ele>426.96</ele>
        <time>2015-11-14T12:06:44Z</time>
      </trkpt>
      <trkpt lat="43.47518" lon="6.90931">
        <ele>425.52</ele>
        <time>2015-11-14T12:06:50Z</time>
      </trkpt>
      <trkpt lat="43.4752" lon="6.90939">
        <ele>424.56</ele>
        <time>2015-11-14T12:06:55Z</time>
      </trkpt>
      <trkpt lat="43.47521" lon="6.90964">
        <ele>421.19</ele>
        <time>2015-11-14T12:07:08Z</time>
      </trkpt>
      <trkpt lat="43.47521" lon="6.90975">
        <ele>420.23</ele>
        <time>2015-11-14T12:07:16Z</time>
      </trkpt>
      <trkpt lat="43.4752" lon="6.90971">
        <ele>419.27</ele>
        <time>2015-11-14T12:07:20Z</time>
      </trkpt>
      <trkpt lat="43.4752" lon="6.90969">
        <ele>418.31</ele>
        <time>2015-11-14T12:07:22Z</time>
      </trkpt>
      <trkpt lat="43.47519" lon="6.90966">
        <ele>418.31</ele>
        <time>2015-11-14T12:07:24Z</time>
      </trkpt>
      <trkpt lat="43.47517" lon="6.90963">
        <ele>417.35</ele>
        <time>2015-11-14T12:07:26Z</time>
      </trkpt>
      <trkpt lat="43.47508" lon="6.90949">
        <ele>414.95</ele>
        <time>2015-11-14T12:07:39Z</time>
      </trkpt>
      <trkpt lat="43.47505" lon="6.90942">
        <ele>413.98</ele>
        <time>2015-11-14T12:07:44Z</time>
      </trkpt>
      <trkpt lat="43.47504" lon="6.90939">
        <ele>413.5</ele>
        <time>2015-11-14T12:07:47Z</time>
      </trkpt>
      <trkpt lat="43.47501" lon="6.90941">
        <ele>412.06</ele>
        <time>2015-11-14T12:07:49Z</time>
      </trkpt>
      <trkpt lat="43.475" lon="6.90947">
        <ele>410.14</ele>
        <time>2015-11-14T12:07:53Z</time>
      </trkpt>
      <trkpt lat="43.475" lon="6.90948">
        <ele>410.14</ele>
        <time>2015-11-14T12:07:54Z</time>
      </trkpt>
      <trkpt lat="43.47501" lon="6.90963">
        <ele>408.7</ele>
        <time>2015-11-14T12:08:03Z</time>
      </trkpt>
      <trkpt lat="43.47499" lon="6.90978">
        <ele>406.29</ele>
        <time>2015-11-14T12:08:13Z</time>
      </trkpt>
      <trkpt lat="43.47498" lon="6.9098">
        <ele>404.85</ele>
        <time>2015-11-14T12:08:15Z</time>
      </trkpt>
      <trkpt lat="43.47497" lon="6.90975">
        <ele>403.41</ele>
        <time>2015-11-14T12:08:19Z</time>
      </trkpt>
      <trkpt lat="43.47493" lon="6.9097">
        <ele>401.97</ele>
        <time>2015-11-14T12:08:24Z</time>
      </trkpt>
      <trkpt lat="43.47489" lon="6.90962">
        <ele>401.01</ele>
        <time>2015-11-14T12:08:34Z</time>
      </trkpt>
      <trkpt lat="43.47484" lon="6.90955">
        <ele>399.57</ele>
        <time>2015-11-14T12:08:40Z</time>
      </trkpt>
      <trkpt lat="43.47483" lon="6.90952">
        <ele>398.6</ele>
        <time>2015-11-14T12:08:42Z</time>
      </trkpt>
      <trkpt lat="43.4748" lon="6.90944">
        <ele>397.64</ele>
        <time>2015-11-14T12:08:47Z</time>
      </trkpt>
      <trkpt lat="43.47474" lon="6.90936">
        <ele>396.68</ele>
        <time>2015-11-14T12:08:55Z</time>
      </trkpt>
      <trkpt lat="43.4747" lon="6.9093">
        <ele>395.72</ele>
        <time>2015-11-14T12:08:59Z</time>
      </trkpt>
      <trkpt lat="43.47459" lon="6.90914">
        <ele>392.36</ele>
        <time>2015-11-14T12:09:11Z</time>
      </trkpt>
      <trkpt lat="43.47454" lon="6.90907">
        <ele>391.87</ele>
        <time>2015-11-14T12:09:18Z</time>
      </trkpt>
      <trkpt lat="43.47447" lon="6.90897">
        <ele>389.47</ele>
        <time>2015-11-14T12:09:29Z</time>
      </trkpt>
      <trkpt lat="43.47446" lon="6.90892">
        <ele>389.95</ele>
        <time>2015-11-14T12:09:33Z</time>
      </trkpt>
      <trkpt lat="43.47444" lon="6.9089">
        <ele>390.91</ele>
        <time>2015-11-14T12:09:36Z</time>
      </trkpt>
      <trkpt lat="43.47442" lon="6.90889">
        <ele>389.47</ele>
        <time>2015-11-14T12:09:40Z</time>
      </trkpt>
      <trkpt lat="43.47436" lon="6.90883">
        <ele>388.03</ele>
        <time>2015-11-14T12:09:47Z</time>
      </trkpt>
      <trkpt lat="43.47432" lon="6.90879">
        <ele>387.55</ele>
        <time>2015-11-14T12:09:51Z</time>
      </trkpt>
      <trkpt lat="43.47425" lon="6.90872">
        <ele>384.66</ele>
        <time>2015-11-14T12:10:00Z</time>
      </trkpt>
      <trkpt lat="43.4742" lon="6.90871">
        <ele>383.7</ele>
        <time>2015-11-14T12:10:09Z</time>
      </trkpt>
      <trkpt lat="43.47419" lon="6.9087">
        <ele>383.7</ele>
        <time>2015-11-14T12:10:11Z</time>
      </trkpt>
      <trkpt lat="43.47413" lon="6.90867">
        <ele>383.22</ele>
        <time>2015-11-14T12:10:25Z</time>
      </trkpt>
      <trkpt lat="43.47409" lon="6.90863">
        <ele>383.22</ele>
        <time>2015-11-14T12:10:40Z</time>
      </trkpt>
      <trkpt lat="43.47409" lon="6.90863">
        <ele>383.22</ele>
        <time>2015-11-14T12:10:41Z</time>
      </trkpt>
      <trkpt lat="43.47408" lon="6.9086">
        <ele>384.66</ele>
        <time>2015-11-14T12:10:43Z</time>
      </trkpt>
      <trkpt lat="43.47404" lon="6.90859">
        <ele>384.66</ele>
        <time>2015-11-14T12:10:57Z</time>
      </trkpt>
      <trkpt lat="43.47402" lon="6.90858">
        <ele>384.66</ele>
        <time>2015-11-14T12:11:16Z</time>
      </trkpt>
      <trkpt lat="43.47402" lon="6.90858">
        <ele>385.15</ele>
        <time>2015-11-14T12:11:42Z</time>
      </trkpt>
      <trkpt lat="43.47402" lon="6.90855">
        <ele>384.66</ele>
        <time>2015-11-14T12:12:07Z</time>
      </trkpt>
      <trkpt lat="43.474" lon="6.90855">
        <ele>384.66</ele>
        <time>2015-11-14T12:12:25Z</time>
      </trkpt>
      <trkpt lat="43.47399" lon="6.90855">
        <ele>384.66</ele>
        <time>2015-11-14T12:12:27Z</time>
      </trkpt>
      <trkpt lat="43.47394" lon="6.90852">
        <ele>382.74</ele>
        <time>2015-11-14T12:12:32Z</time>
      </trkpt>
      <trkpt lat="43.47391" lon="6.90849">
        <ele>381.78</ele>
        <time>2015-11-14T12:12:35Z</time>
      </trkpt>
      <trkpt lat="43.47387" lon="6.90847">
        <ele>381.3</ele>
        <time>2015-11-14T12:12:39Z</time>
      </trkpt>
      <trkpt lat="43.47379" lon="6.90846">
        <ele>379.86</ele>
        <time>2015-11-14T12:12:46Z</time>
      </trkpt>
      <trkpt lat="43.47362" lon="6.90843">
        <ele>377.94</ele>
        <time>2015-11-14T12:13:00Z</time>
      </trkpt>
      <trkpt lat="43.47357" lon="6.90844">
        <ele>376.97</ele>
        <time>2015-11-14T12:13:04Z</time>
      </trkpt>
      <trkpt lat="43.47349" lon="6.90845">
        <ele>376.01</ele>
        <time>2015-11-14T12:13:10Z</time>
      </trkpt>
      <trkpt lat="43.47343" lon="6.90844">
        <ele>375.53</ele>
        <time>2015-11-14T12:13:14Z</time>
      </trkpt>
      <trkpt lat="43.47328" lon="6.90843">
        <ele>374.09</ele>
        <time>2015-11-14T12:13:26Z</time>
      </trkpt>
      <trkpt lat="43.47323" lon="6.90842">
        <ele>373.13</ele>
        <time>2015-11-14T12:13:29Z</time>
      </trkpt>
      <trkpt lat="43.47306" lon="6.90843">
        <ele>371.21</ele>
        <time>2015-11-14T12:13:41Z</time>
      </trkpt>
      <trkpt lat="43.47307" lon="6.90848">
        <ele>370.73</ele>
        <time>2015-11-14T12:13:45Z</time>
      </trkpt>
      <trkpt lat="43.47311" lon="6.90854">
        <ele>369.28</ele>
        <time>2015-11-14T12:13:50Z</time>
      </trkpt>
      <trkpt lat="43.47312" lon="6.90856">
        <ele>368.8</ele>
        <time>2015-11-14T12:13:51Z</time>
      </trkpt>
      <trkpt lat="43.47317" lon="6.9086">
        <ele>367.84</ele>
        <time>2015-11-14T12:13:56Z</time>
      </trkpt>
      <trkpt lat="43.47332" lon="6.90873">
        <ele>364.48</ele>
        <time>2015-11-14T12:14:11Z</time>
      </trkpt>
      <trkpt lat="43.47333" lon="6.90874">
        <ele>364.48</ele>
        <time>2015-11-14T12:14:12Z</time>
      </trkpt>
      <trkpt lat="43.4735" lon="6.90883">
        <ele>360.63</ele>
        <time>2015-11-14T12:14:27Z</time>
      </trkpt>
      <trkpt lat="43.4735" lon="6.90884">
        <ele>362.07</ele>
        <time>2015-11-14T12:14:28Z</time>
      </trkpt>
      <trkpt lat="43.47345" lon="6.90884">
        <ele>359.67</ele>
        <time>2015-11-14T12:14:33Z</time>
      </trkpt>
      <trkpt lat="43.47343" lon="6.90883">
        <ele>360.63</ele>
        <time>2015-11-14T12:14:35Z</time>
      </trkpt>
      <trkpt lat="43.4734" lon="6.90884">
        <ele>357.75</ele>
        <time>2015-11-14T12:14:39Z</time>
      </trkpt>
      <trkpt lat="43.47331" lon="6.90884">
        <ele>356.31</ele>
        <time>2015-11-14T12:14:49Z</time>
      </trkpt>
      <trkpt lat="43.47319" lon="6.90886">
        <ele>353.9</ele>
        <time>2015-11-14T12:14:59Z</time>
      </trkpt>
      <trkpt lat="43.47306" lon="6.90892">
        <ele>352.94</ele>
        <time>2015-11-14T12:15:07Z</time>
      </trkpt>
      <trkpt lat="43.47301" lon="6.90895">
        <ele>351.02</ele>
        <time>2015-11-14T12:15:10Z</time>
      </trkpt>
      <trkpt lat="43.47296" lon="6.90897">
        <ele>351.02</ele>
        <time>2015-11-14T12:15:13Z</time>
      </trkpt>
      <trkpt lat="43.47293" lon="6.90898">
        <ele>349.58</ele>
        <time>2015-11-14T12:15:15Z</time>
      </trkpt>
      <trkpt lat="43.47283" lon="6.90901">
        <ele>348.62</ele>
        <time>2015-11-14T12:15:21Z</time>
      </trkpt>
      <trkpt lat="43.47266" lon="6.90911">
        <ele>345.25</ele>
        <time>2015-11-14T12:15:33Z</time>
      </trkpt>
      <trkpt lat="43.47259" lon="6.90914">
        <ele>343.33</ele>
        <time>2015-11-14T12:15:38Z</time>
      </trkpt>
      <trkpt lat="43.47245" lon="6.90922">
        <ele>341.41</ele>
        <time>2015-11-14T12:15:46Z</time>
      </trkpt>
      <trkpt lat="43.47227" lon="6.9093">
        <ele>339</ele>
        <time>2015-11-14T12:15:57Z</time>
      </trkpt>
      <trkpt lat="43.47211" lon="6.9094">
        <ele>336.12</ele>
        <time>2015-11-14T12:16:08Z</time>
      </trkpt>
      <trkpt lat="43.47192" lon="6.90951">
        <ele>332.75</ele>
        <time>2015-11-14T12:16:21Z</time>
      </trkpt>
      <trkpt lat="43.47188" lon="6.90953">
        <ele>332.27</ele>
        <time>2015-11-14T12:16:24Z</time>
      </trkpt>
      <trkpt lat="43.47178" lon="6.90951">
        <ele>328.91</ele>
        <time>2015-11-14T12:16:32Z</time>
      </trkpt>
      <trkpt lat="43.47164" lon="6.90946">
        <ele>327.47</ele>
        <time>2015-11-14T12:16:41Z</time>
      </trkpt>
      <trkpt lat="43.47153" lon="6.9094">
        <ele>326.02</ele>
        <time>2015-11-14T12:16:49Z</time>
      </trkpt>
      <trkpt lat="43.47146" lon="6.90931">
        <ele>324.58</ele>
        <time>2015-11-14T12:16:56Z</time>
      </trkpt>
      <trkpt lat="43.47143" lon="6.90927">
        <ele>323.62</ele>
        <time>2015-11-14T12:16:59Z</time>
      </trkpt>
      <trkpt lat="43.47139" lon="6.90923">
        <ele>323.62</ele>
        <time>2015-11-14T12:17:02Z</time>
      </trkpt>
      <trkpt lat="43.47131" lon="6.90909">
        <ele>321.22</ele>
        <time>2015-11-14T12:17:12Z</time>
      </trkpt>
      <trkpt lat="43.47129" lon="6.90905">
        <ele>320.26</ele>
        <time>2015-11-14T12:17:14Z</time>
      </trkpt>
      <trkpt lat="43.47129" lon="6.90901">
        <ele>319.3</ele>
        <time>2015-11-14T12:17:16Z</time>
      </trkpt>
      <trkpt lat="43.47126" lon="6.90882">
        <ele>317.37</ele>
        <time>2015-11-14T12:17:27Z</time>
      </trkpt>
      <trkpt lat="43.47125" lon="6.9088">
        <ele>317.37</ele>
        <time>2015-11-14T12:17:28Z</time>
      </trkpt>
      <trkpt lat="43.47122" lon="6.90862">
        <ele>314.49</ele>
        <time>2015-11-14T12:17:37Z</time>
      </trkpt>
      <trkpt lat="43.47121" lon="6.9085">
        <ele>313.53</ele>
        <time>2015-11-14T12:17:43Z</time>
      </trkpt>
      <trkpt lat="43.47122" lon="6.90836">
        <ele>312.09</ele>
        <time>2015-11-14T12:17:50Z</time>
      </trkpt>
      <trkpt lat="43.47124" lon="6.90825">
        <ele>310.64</ele>
        <time>2015-11-14T12:17:55Z</time>
      </trkpt>
      <trkpt lat="43.47124" lon="6.90815">
        <ele>309.68</ele>
        <time>2015-11-14T12:18:00Z</time>
      </trkpt>
      <trkpt lat="43.47125" lon="6.90801">
        <ele>307.28</ele>
        <time>2015-11-14T12:18:06Z</time>
      </trkpt>
      <trkpt lat="43.47127" lon="6.9078">
        <ele>305.36</ele>
        <time>2015-11-14T12:18:16Z</time>
      </trkpt>
      <trkpt lat="43.47128" lon="6.90774">
        <ele>303.91</ele>
        <time>2015-11-14T12:18:19Z</time>
      </trkpt>
      <trkpt lat="43.47138" lon="6.9075">
        <ele>301.99</ele>
        <time>2015-11-14T12:18:33Z</time>
      </trkpt>
      <trkpt lat="43.4714" lon="6.90746">
        <ele>300.55</ele>
        <time>2015-11-14T12:18:35Z</time>
      </trkpt>
      <trkpt lat="43.47138" lon="6.9074">
        <ele>300.55</ele>
        <time>2015-11-14T12:18:39Z</time>
      </trkpt>
      <trkpt lat="43.47136" lon="6.90741">
        <ele>300.07</ele>
        <time>2015-11-14T12:18:41Z</time>
      </trkpt>
      <trkpt lat="43.47131" lon="6.90743">
        <ele>298.15</ele>
        <time>2015-11-14T12:18:46Z</time>
      </trkpt>
      <trkpt lat="43.47123" lon="6.90749">
        <ele>295.74</ele>
        <time>2015-11-14T12:18:52Z</time>
      </trkpt>
      <trkpt lat="43.47118" lon="6.90754">
        <ele>295.26</ele>
        <time>2015-11-14T12:18:56Z</time>
      </trkpt>
      <trkpt lat="43.47114" lon="6.90757">
        <ele>294.78</ele>
        <time>2015-11-14T12:18:59Z</time>
      </trkpt>
      <trkpt lat="43.47104" lon="6.90768">
        <ele>290.94</ele>
        <time>2015-11-14T12:19:07Z</time>
      </trkpt>
      <trkpt lat="43.47103" lon="6.9077">
        <ele>290.46</ele>
        <time>2015-11-14T12:19:08Z</time>
      </trkpt>
      <trkpt lat="43.471" lon="6.90775">
        <ele>291.9</ele>
        <time>2015-11-14T12:19:11Z</time>
      </trkpt>
      <trkpt lat="43.47097" lon="6.9078">
        <ele>290.46</ele>
        <time>2015-11-14T12:19:14Z</time>
      </trkpt>
      <trkpt lat="43.47095" lon="6.90782">
        <ele>290.46</ele>
        <time>2015-11-14T12:19:15Z</time>
      </trkpt>
      <trkpt lat="43.47093" lon="6.90785">
        <ele>289.01</ele>
        <time>2015-11-14T12:19:17Z</time>
      </trkpt>
      <trkpt lat="43.47091" lon="6.90788">
        <ele>289.01</ele>
        <time>2015-11-14T12:19:19Z</time>
      </trkpt>
      <trkpt lat="43.47088" lon="6.9079">
        <ele>288.05</ele>
        <time>2015-11-14T12:19:23Z</time>
      </trkpt>
      <trkpt lat="43.47086" lon="6.9079">
        <ele>287.09</ele>
        <time>2015-11-14T12:19:25Z</time>
      </trkpt>
      <trkpt lat="43.47085" lon="6.90793">
        <ele>285.17</ele>
        <time>2015-11-14T12:19:27Z</time>
      </trkpt>
      <trkpt lat="43.47081" lon="6.90798">
        <ele>284.69</ele>
        <time>2015-11-14T12:19:32Z</time>
      </trkpt>
      <trkpt lat="43.47075" lon="6.90799">
        <ele>284.21</ele>
        <time>2015-11-14T12:19:43Z</time>
      </trkpt>
      <trkpt lat="43.47074" lon="6.90797">
        <ele>284.21</ele>
        <time>2015-11-14T12:19:59Z</time>
      </trkpt>
      <trkpt lat="43.47075" lon="6.90796">
        <ele>283.73</ele>
        <time>2015-11-14T12:20:24Z</time>
      </trkpt>
      <trkpt lat="43.47075" lon="6.90797">
        <ele>285.17</ele>
        <time>2015-11-14T12:20:32Z</time>
      </trkpt>
      <trkpt lat="43.47071" lon="6.908">
        <ele>285.17</ele>
        <time>2015-11-14T12:20:48Z</time>
      </trkpt>
      <trkpt lat="43.47072" lon="6.90803">
        <ele>285.17</ele>
        <time>2015-11-14T12:21:00Z</time>
      </trkpt>
      <trkpt lat="43.47072" lon="6.908">
        <ele>284.69</ele>
        <time>2015-11-14T12:21:14Z</time>
      </trkpt>
      <trkpt lat="43.47074" lon="6.908">
        <ele>284.69</ele>
        <time>2015-11-14T12:21:37Z</time>
      </trkpt>
      <trkpt lat="43.47074" lon="6.90799">
        <ele>284.69</ele>
        <time>2015-11-14T12:21:56Z</time>
      </trkpt>
      <trkpt lat="43.47074" lon="6.90798">
        <ele>284.69</ele>
        <time>2015-11-14T12:22:15Z</time>
      </trkpt>
      <trkpt lat="43.47073" lon="6.90806">
        <ele>284.69</ele>
        <time>2015-11-14T12:22:27Z</time>
      </trkpt>
      <trkpt lat="43.47072" lon="6.9081">
        <ele>284.69</ele>
        <time>2015-11-14T12:22:30Z</time>
      </trkpt>
      <trkpt lat="43.47068" lon="6.90815">
        <ele>284.69</ele>
        <time>2015-11-14T12:22:35Z</time>
      </trkpt>
      <trkpt lat="43.47066" lon="6.90819">
        <ele>283.25</ele>
        <time>2015-11-14T12:22:38Z</time>
      </trkpt>
      <trkpt lat="43.47063" lon="6.90823">
        <ele>279.88</ele>
        <time>2015-11-14T12:22:43Z</time>
      </trkpt>
      <trkpt lat="43.47062" lon="6.90824">
        <ele>283.25</ele>
        <time>2015-11-14T12:22:44Z</time>
      </trkpt>
      <trkpt lat="43.47062" lon="6.90824">
        <ele>281.8</ele>
        <time>2015-11-14T12:22:45Z</time>
      </trkpt>
      <trkpt lat="43.4706" lon="6.90828">
        <ele>280.84</ele>
        <time>2015-11-14T12:22:49Z</time>
      </trkpt>
      <trkpt lat="43.47054" lon="6.90833">
        <ele>280.36</ele>
        <time>2015-11-14T12:22:56Z</time>
      </trkpt>
      <trkpt lat="43.47051" lon="6.90835">
        <ele>278.44</ele>
        <time>2015-11-14T12:23:00Z</time>
      </trkpt>
      <trkpt lat="43.47038" lon="6.90846">
        <ele>277</ele>
        <time>2015-11-14T12:23:13Z</time>
      </trkpt>
      <trkpt lat="43.47035" lon="6.90848">
        <ele>276.52</ele>
        <time>2015-11-14T12:23:16Z</time>
      </trkpt>
      <trkpt lat="43.47028" lon="6.9086">
        <ele>275.07</ele>
        <time>2015-11-14T12:23:24Z</time>
      </trkpt>
      <trkpt lat="43.4702" lon="6.90871">
        <ele>273.63</ele>
        <time>2015-11-14T12:23:33Z</time>
      </trkpt>
      <trkpt lat="43.47017" lon="6.90869">
        <ele>273.63</ele>
        <time>2015-11-14T12:23:36Z</time>
      </trkpt>
      <trkpt lat="43.47007" lon="6.90869">
        <ele>272.19</ele>
        <time>2015-11-14T12:23:44Z</time>
      </trkpt>
      <trkpt lat="43.47005" lon="6.90871">
        <ele>272.19</ele>
        <time>2015-11-14T12:23:46Z</time>
      </trkpt>
      <trkpt lat="43.47002" lon="6.90877">
        <ele>273.15</ele>
        <time>2015-11-14T12:24:04Z</time>
      </trkpt>
      <trkpt lat="43.47002" lon="6.90879">
        <ele>273.15</ele>
        <time>2015-11-14T12:24:24Z</time>
      </trkpt>
      <trkpt lat="43.46999" lon="6.90876">
        <ele>273.15</ele>
        <time>2015-11-14T12:24:34Z</time>
      </trkpt>
      <trkpt lat="43.46999" lon="6.90875">
        <ele>273.15</ele>
        <time>2015-11-14T12:24:36Z</time>
      </trkpt>
      <trkpt lat="43.46999" lon="6.90872">
        <ele>271.71</ele>
        <time>2015-11-14T12:24:38Z</time>
      </trkpt>
      <trkpt lat="43.46999" lon="6.90872">
        <ele>271.71</ele>
        <time>2015-11-14T12:24:51Z</time>
      </trkpt>
      <trkpt lat="43.46999" lon="6.90872">
        <ele>271.71</ele>
        <time>2015-11-14T12:24:52Z</time>
      </trkpt>
      <trkpt lat="43.47004" lon="6.9088">
        <ele>272.67</ele>
        <time>2015-11-14T12:25:08Z</time>
      </trkpt>
      <trkpt lat="43.47003" lon="6.90882">
        <ele>272.67</ele>
        <time>2015-11-14T12:25:23Z</time>
      </trkpt>
      <trkpt lat="43.47002" lon="6.9088">
        <ele>273.63</ele>
        <time>2015-11-14T12:25:34Z</time>
      </trkpt>
      <trkpt lat="43.47001" lon="6.90879">
        <ele>272.19</ele>
        <time>2015-11-14T12:25:37Z</time>
      </trkpt>
      <trkpt lat="43.46997" lon="6.90881">
        <ele>272.19</ele>
        <time>2015-11-14T12:25:51Z</time>
      </trkpt>
      <trkpt lat="43.46998" lon="6.9088">
        <ele>272.19</ele>
        <time>2015-11-14T12:26:02Z</time>
      </trkpt>
      <trkpt lat="43.47" lon="6.9088">
        <ele>272.19</ele>
        <time>2015-11-14T12:26:13Z</time>
      </trkpt>
      <trkpt lat="43.47001" lon="6.9088">
        <ele>272.19</ele>
        <time>2015-11-14T12:26:27Z</time>
      </trkpt>
      <trkpt lat="43.47001" lon="6.9088">
        <ele>273.15</ele>
        <time>2015-11-14T12:26:32Z</time>
      </trkpt>
      <trkpt lat="43.47001" lon="6.90878">
        <ele>272.19</ele>
        <time>2015-11-14T12:26:56Z</time>
      </trkpt>
      <trkpt lat="43.46999" lon="6.90877">
        <ele>272.19</ele>
        <time>2015-11-14T12:27:07Z</time>
      </trkpt>
      <trkpt lat="43.47" lon="6.90882">
        <ele>272.19</ele>
        <time>2015-11-14T12:27:19Z</time>
      </trkpt>
      <trkpt lat="43.47002" lon="6.90886">
        <ele>271.71</ele>
        <time>2015-11-14T12:27:27Z</time>
      </trkpt>
      <trkpt lat="43.47013" lon="6.90906">
        <ele>268.35</ele>
        <time>2015-11-14T12:27:42Z</time>
      </trkpt>
      <trkpt lat="43.47019" lon="6.90928">
        <ele>264.5</ele>
        <time>2015-11-14T12:27:56Z</time>
      </trkpt>
      <trkpt lat="43.47023" lon="6.90937">
        <ele>264.02</ele>
        <time>2015-11-14T12:28:02Z</time>
      </trkpt>
      <trkpt lat="43.47029" lon="6.90956">
        <ele>261.14</ele>
        <time>2015-11-14T12:28:14Z</time>
      </trkpt>
      <trkpt lat="43.47033" lon="6.90969">
        <ele>260.17</ele>
        <time>2015-11-14T12:28:21Z</time>
      </trkpt>
      <trkpt lat="43.47042" lon="6.90994">
        <ele>257.29</ele>
        <time>2015-11-14T12:28:35Z</time>
      </trkpt>
      <trkpt lat="43.47042" lon="6.90995">
        <ele>257.29</ele>
        <time>2015-11-14T12:28:36Z</time>
      </trkpt>
      <trkpt lat="43.47043" lon="6.90999">
        <ele>255.85</ele>
        <time>2015-11-14T12:28:38Z</time>
      </trkpt>
      <trkpt lat="43.4705" lon="6.91016">
        <ele>253.93</ele>
        <time>2015-11-14T12:28:49Z</time>
      </trkpt>
      <trkpt lat="43.47052" lon="6.91025">
        <ele>252</ele>
        <time>2015-11-14T12:28:54Z</time>
      </trkpt>
      <trkpt lat="43.47056" lon="6.91033">
        <ele>251.52</ele>
        <time>2015-11-14T12:29:00Z</time>
      </trkpt>
      <trkpt lat="43.47058" lon="6.91042">
        <ele>251.04</ele>
        <time>2015-11-14T12:29:06Z</time>
      </trkpt>
      <trkpt lat="43.4706" lon="6.91045">
        <ele>250.56</ele>
        <time>2015-11-14T12:29:08Z</time>
      </trkpt>
      <trkpt lat="43.47063" lon="6.91052">
        <ele>249.6</ele>
        <time>2015-11-14T12:29:12Z</time>
      </trkpt>
      <trkpt lat="43.47072" lon="6.91073">
        <ele>246.72</ele>
        <time>2015-11-14T12:29:25Z</time>
      </trkpt>
      <trkpt lat="43.47078" lon="6.91087">
        <ele>245.75</ele>
        <time>2015-11-14T12:29:38Z</time>
      </trkpt>
      <trkpt lat="43.47087" lon="6.91105">
        <ele>242.87</ele>
        <time>2015-11-14T12:29:50Z</time>
      </trkpt>
      <trkpt lat="43.47088" lon="6.91107">
        <ele>242.87</ele>
        <time>2015-11-14T12:29:52Z</time>
      </trkpt>
      <trkpt lat="43.47096" lon="6.91124">
        <ele>240.95</ele>
        <time>2015-11-14T12:30:02Z</time>
      </trkpt>
      <trkpt lat="43.471" lon="6.91136">
        <ele>238.54</ele>
        <time>2015-11-14T12:30:10Z</time>
      </trkpt>
      <trkpt lat="43.47109" lon="6.91155">
        <ele>236.62</ele>
        <time>2015-11-14T12:30:23Z</time>
      </trkpt>
      <trkpt lat="43.47114" lon="6.91169">
        <ele>234.22</ele>
        <time>2015-11-14T12:30:35Z</time>
      </trkpt>
      <trkpt lat="43.47114" lon="6.91172">
        <ele>234.22</ele>
        <time>2015-11-14T12:30:37Z</time>
      </trkpt>
      <trkpt lat="43.47121" lon="6.91189">
        <ele>233.26</ele>
        <time>2015-11-14T12:30:48Z</time>
      </trkpt>
      <trkpt lat="43.47136" lon="6.91205">
        <ele>230.37</ele>
        <time>2015-11-14T12:31:02Z</time>
      </trkpt>
      <trkpt lat="43.47144" lon="6.91207">
        <ele>228.45</ele>
        <time>2015-11-14T12:31:08Z</time>
      </trkpt>
      <trkpt lat="43.47161" lon="6.91203">
        <ele>226.05</ele>
        <time>2015-11-14T12:31:22Z</time>
      </trkpt>
      <trkpt lat="43.47174" lon="6.91199">
        <ele>223.64</ele>
        <time>2015-11-14T12:31:32Z</time>
      </trkpt>
      <trkpt lat="43.47186" lon="6.91195">
        <ele>222.2</ele>
        <time>2015-11-14T12:31:41Z</time>
      </trkpt>
      <trkpt lat="43.47196" lon="6.91194">
        <ele>220.28</ele>
        <time>2015-11-14T12:31:48Z</time>
      </trkpt>
      <trkpt lat="43.47211" lon="6.91193">
        <ele>217.88</ele>
        <time>2015-11-14T12:31:58Z</time>
      </trkpt>
      <trkpt lat="43.47215" lon="6.91191">
        <ele>216.91</ele>
        <time>2015-11-14T12:32:01Z</time>
      </trkpt>
      <trkpt lat="43.4722" lon="6.91188">
        <ele>215.95</ele>
        <time>2015-11-14T12:32:06Z</time>
      </trkpt>
      <trkpt lat="43.47237" lon="6.91189">
        <ele>213.55</ele>
        <time>2015-11-14T12:32:18Z</time>
      </trkpt>
      <trkpt lat="43.4724" lon="6.91195">
        <ele>212.11</ele>
        <time>2015-11-14T12:32:24Z</time>
      </trkpt>
      <trkpt lat="43.47241" lon="6.91204">
        <ele>210.67</ele>
        <time>2015-11-14T12:32:30Z</time>
      </trkpt>
      <trkpt lat="43.47242" lon="6.91212">
        <ele>209.22</ele>
        <time>2015-11-14T12:32:35Z</time>
      </trkpt>
      <trkpt lat="43.4724" lon="6.91238">
        <ele>205.38</ele>
        <time>2015-11-14T12:32:50Z</time>
      </trkpt>
      <trkpt lat="43.47241" lon="6.9126">
        <ele>202.49</ele>
        <time>2015-11-14T12:33:01Z</time>
      </trkpt>
      <trkpt lat="43.4724" lon="6.91281">
        <ele>199.13</ele>
        <time>2015-11-14T12:33:13Z</time>
      </trkpt>
      <trkpt lat="43.47238" lon="6.91287">
        <ele>198.65</ele>
        <time>2015-11-14T12:33:17Z</time>
      </trkpt>
      <trkpt lat="43.47237" lon="6.91291">
        <ele>198.65</ele>
        <time>2015-11-14T12:33:19Z</time>
      </trkpt>
      <trkpt lat="43.47237" lon="6.91312">
        <ele>195.77</ele>
        <time>2015-11-14T12:33:31Z</time>
      </trkpt>
      <trkpt lat="43.47238" lon="6.9132">
        <ele>193.84</ele>
        <time>2015-11-14T12:33:36Z</time>
      </trkpt>
      <trkpt lat="43.47239" lon="6.91328">
        <ele>192.4</ele>
        <time>2015-11-14T12:33:41Z</time>
      </trkpt>
      <trkpt lat="43.47244" lon="6.91345">
        <ele>190.48</ele>
        <time>2015-11-14T12:33:54Z</time>
      </trkpt>
      <trkpt lat="43.47245" lon="6.91349">
        <ele>189.52</ele>
        <time>2015-11-14T12:33:56Z</time>
      </trkpt>
      <trkpt lat="43.47245" lon="6.9136">
        <ele>188.08</ele>
        <time>2015-11-14T12:34:03Z</time>
      </trkpt>
      <trkpt lat="43.47244" lon="6.9137">
        <ele>186.63</ele>
        <time>2015-11-14T12:34:10Z</time>
      </trkpt>
      <trkpt lat="43.47243" lon="6.91372">
        <ele>186.63</ele>
        <time>2015-11-14T12:34:11Z</time>
      </trkpt>
      <trkpt lat="43.47242" lon="6.91375">
        <ele>185.19</ele>
        <time>2015-11-14T12:34:14Z</time>
      </trkpt>
      <trkpt lat="43.47241" lon="6.91377">
        <ele>185.19</ele>
        <time>2015-11-14T12:34:16Z</time>
      </trkpt>
      <trkpt lat="43.4723" lon="6.91385">
        <ele>181.83</ele>
        <time>2015-11-14T12:34:31Z</time>
      </trkpt>
      <trkpt lat="43.47223" lon="6.91393">
        <ele>179.9</ele>
        <time>2015-11-14T12:34:39Z</time>
      </trkpt>
      <trkpt lat="43.47211" lon="6.9141">
        <ele>176.54</ele>
        <time>2015-11-14T12:34:54Z</time>
      </trkpt>
      <trkpt lat="43.47208" lon="6.91413">
        <ele>175.1</ele>
        <time>2015-11-14T12:34:57Z</time>
      </trkpt>
      <trkpt lat="43.47206" lon="6.91416">
        <ele>174.14</ele>
        <time>2015-11-14T12:34:59Z</time>
      </trkpt>
      <trkpt lat="43.47201" lon="6.91424">
        <ele>174.14</ele>
        <time>2015-11-14T12:35:05Z</time>
      </trkpt>
      <trkpt lat="43.47196" lon="6.91431">
        <ele>172.69</ele>
        <time>2015-11-14T12:35:10Z</time>
      </trkpt>
      <trkpt lat="43.47187" lon="6.91449">
        <ele>169.33</ele>
        <time>2015-11-14T12:35:21Z</time>
      </trkpt>
      <trkpt lat="43.47184" lon="6.9146">
        <ele>168.37</ele>
        <time>2015-11-14T12:35:27Z</time>
      </trkpt>
      <trkpt lat="43.47177" lon="6.91481">
        <ele>165.96</ele>
        <time>2015-11-14T12:35:38Z</time>
      </trkpt>
      <trkpt lat="43.47176" lon="6.91485">
        <ele>164.52</ele>
        <time>2015-11-14T12:35:40Z</time>
      </trkpt>
      <trkpt lat="43.47173" lon="6.91492">
        <ele>164.52</ele>
        <time>2015-11-14T12:35:43Z</time>
      </trkpt>
      <trkpt lat="43.47168" lon="6.91504">
        <ele>162.12</ele>
        <time>2015-11-14T12:35:49Z</time>
      </trkpt>
      <trkpt lat="43.47164" lon="6.91519">
        <ele>159.24</ele>
        <time>2015-11-14T12:35:56Z</time>
      </trkpt>
      <trkpt lat="43.47162" lon="6.91531">
        <ele>159.24</ele>
        <time>2015-11-14T12:36:02Z</time>
      </trkpt>
      <trkpt lat="43.47161" lon="6.91551">
        <ele>157.31</ele>
        <time>2015-11-14T12:36:12Z</time>
      </trkpt>
      <trkpt lat="43.47163" lon="6.91562">
        <ele>154.91</ele>
        <time>2015-11-14T12:36:18Z</time>
      </trkpt>
      <trkpt lat="43.47166" lon="6.91573">
        <ele>153.47</ele>
        <time>2015-11-14T12:36:25Z</time>
      </trkpt>
      <trkpt lat="43.47166" lon="6.91575">
        <ele>155.39</ele>
        <time>2015-11-14T12:36:26Z</time>
      </trkpt>
      <trkpt lat="43.47167" lon="6.91577">
        <ele>154.43</ele>
        <time>2015-11-14T12:36:28Z</time>
      </trkpt>
      <trkpt lat="43.47168" lon="6.91589">
        <ele>152.99</ele>
        <time>2015-11-14T12:36:35Z</time>
      </trkpt>
      <trkpt lat="43.47169" lon="6.91592">
        <ele>151.54</ele>
        <time>2015-11-14T12:36:37Z</time>
      </trkpt>
      <trkpt lat="43.47175" lon="6.91613">
        <ele>149.62</ele>
        <time>2015-11-14T12:36:51Z</time>
      </trkpt>
      <trkpt lat="43.47176" lon="6.91617">
        <ele>148.66</ele>
        <time>2015-11-14T12:36:54Z</time>
      </trkpt>
      <trkpt lat="43.47179" lon="6.91624">
        <ele>147.22</ele>
        <time>2015-11-14T12:37:01Z</time>
      </trkpt>
      <trkpt lat="43.47187" lon="6.91645">
        <ele>144.34</ele>
        <time>2015-11-14T12:37:17Z</time>
      </trkpt>
      <trkpt lat="43.47193" lon="6.91661">
        <ele>141.93</ele>
        <time>2015-11-14T12:37:31Z</time>
      </trkpt>
      <trkpt lat="43.47197" lon="6.91679">
        <ele>139.53</ele>
        <time>2015-11-14T12:37:44Z</time>
      </trkpt>
      <trkpt lat="43.47202" lon="6.91701">
        <ele>136.16</ele>
        <time>2015-11-14T12:37:59Z</time>
      </trkpt>
      <trkpt lat="43.47206" lon="6.91712">
        <ele>135.2</ele>
        <time>2015-11-14T12:38:07Z</time>
      </trkpt>
      <trkpt lat="43.47208" lon="6.91716">
        <ele>133.28</ele>
        <time>2015-11-14T12:38:10Z</time>
      </trkpt>
      <trkpt lat="43.47214" lon="6.91732">
        <ele>132.8</ele>
        <time>2015-11-14T12:38:26Z</time>
      </trkpt>
      <trkpt lat="43.47214" lon="6.91735">
        <ele>131.84</ele>
        <time>2015-11-14T12:38:45Z</time>
      </trkpt>
      <trkpt lat="43.47216" lon="6.91736">
        <ele>133.28</ele>
        <time>2015-11-14T12:38:51Z</time>
      </trkpt>
      <trkpt lat="43.47217" lon="6.91735">
        <ele>133.28</ele>
        <time>2015-11-14T12:39:12Z</time>
      </trkpt>
      <trkpt lat="43.47217" lon="6.91732">
        <ele>133.28</ele>
        <time>2015-11-14T12:39:34Z</time>
      </trkpt>
      <trkpt lat="43.47217" lon="6.91733">
        <ele>133.28</ele>
        <time>2015-11-14T12:39:39Z</time>
      </trkpt>
      <trkpt lat="43.47221" lon="6.91739">
        <ele>131.36</ele>
        <time>2015-11-14T12:39:48Z</time>
      </trkpt>
      <trkpt lat="43.47222" lon="6.91741">
        <ele>130.4</ele>
        <time>2015-11-14T12:39:50Z</time>
      </trkpt>
      <trkpt lat="43.47223" lon="6.91742">
        <ele>130.4</ele>
        <time>2015-11-14T12:39:51Z</time>
      </trkpt>
      <trkpt lat="43.47231" lon="6.91751">
        <ele>129.43</ele>
        <time>2015-11-14T12:40:01Z</time>
      </trkpt>
      <trkpt lat="43.47232" lon="6.91753">
        <ele>127.99</ele>
        <time>2015-11-14T12:40:03Z</time>
      </trkpt>
      <trkpt lat="43.47237" lon="6.91759">
        <ele>126.55</ele>
        <time>2015-11-14T12:40:09Z</time>
      </trkpt>
      <trkpt lat="43.47242" lon="6.91784">
        <ele>123.67</ele>
        <time>2015-11-14T12:40:25Z</time>
      </trkpt>
      <trkpt lat="43.47244" lon="6.91801">
        <ele>121.26</ele>
        <time>2015-11-14T12:40:36Z</time>
      </trkpt>
      <trkpt lat="43.47245" lon="6.91807">
        <ele>119.82</ele>
        <time>2015-11-14T12:40:40Z</time>
      </trkpt>
      <trkpt lat="43.47246" lon="6.91823">
        <ele>118.38</ele>
        <time>2015-11-14T12:40:51Z</time>
      </trkpt>
      <trkpt lat="43.47246" lon="6.91828">
        <ele>117.9</ele>
        <time>2015-11-14T12:40:55Z</time>
      </trkpt>
      <trkpt lat="43.47244" lon="6.91841">
        <ele>115.5</ele>
        <time>2015-11-14T12:41:04Z</time>
      </trkpt>
      <trkpt lat="43.47243" lon="6.91872">
        <ele>112.61</ele>
        <time>2015-11-14T12:41:22Z</time>
      </trkpt>
      <trkpt lat="43.47246" lon="6.91894">
        <ele>110.21</ele>
        <time>2015-11-14T12:41:37Z</time>
      </trkpt>
      <trkpt lat="43.47247" lon="6.91902">
        <ele>108.77</ele>
        <time>2015-11-14T12:41:42Z</time>
      </trkpt>
      <trkpt lat="43.47249" lon="6.91907">
        <ele>108.77</ele>
        <time>2015-11-14T12:41:45Z</time>
      </trkpt>
      <trkpt lat="43.47251" lon="6.91913">
        <ele>107.32</ele>
        <time>2015-11-14T12:41:49Z</time>
      </trkpt>
      <trkpt lat="43.47253" lon="6.91919">
        <ele>106.36</ele>
        <time>2015-11-14T12:41:53Z</time>
      </trkpt>
      <trkpt lat="43.47254" lon="6.91923">
        <ele>105.4</ele>
        <time>2015-11-14T12:41:56Z</time>
      </trkpt>
      <trkpt lat="43.47255" lon="6.91927">
        <ele>105.4</ele>
        <time>2015-11-14T12:41:59Z</time>
      </trkpt>
      <trkpt lat="43.47259" lon="6.91933">
        <ele>103.96</ele>
        <time>2015-11-14T12:42:05Z</time>
      </trkpt>
      <trkpt lat="43.47262" lon="6.9194">
        <ele>102.52</ele>
        <time>2015-11-14T12:42:12Z</time>
      </trkpt>
      <trkpt lat="43.47274" lon="6.91953">
        <ele>100.11</ele>
        <time>2015-11-14T12:42:26Z</time>
      </trkpt>
      <trkpt lat="43.47283" lon="6.9196">
        <ele>97.23</ele>
        <time>2015-11-14T12:42:36Z</time>
      </trkpt>
      <trkpt lat="43.47292" lon="6.91971">
        <ele>95.79</ele>
        <time>2015-11-14T12:42:50Z</time>
      </trkpt>
      <trkpt lat="43.47291" lon="6.91984">
        <ele>93.87</ele>
        <time>2015-11-14T12:43:03Z</time>
      </trkpt>
      <trkpt lat="43.47291" lon="6.91985">
        <ele>93.87</ele>
        <time>2015-11-14T12:43:04Z</time>
      </trkpt>
      <trkpt lat="43.47291" lon="6.9199">
        <ele>92.42</ele>
        <time>2015-11-14T12:43:08Z</time>
      </trkpt>
      <trkpt lat="43.47291" lon="6.91995">
        <ele>90.5</ele>
        <time>2015-11-14T12:43:13Z</time>
      </trkpt>
      <trkpt lat="43.47289" lon="6.92011">
        <ele>89.54</ele>
        <time>2015-11-14T12:43:27Z</time>
      </trkpt>
      <trkpt lat="43.47287" lon="6.92022">
        <ele>88.1</ele>
        <time>2015-11-14T12:43:35Z</time>
      </trkpt>
      <trkpt lat="43.47284" lon="6.92034">
        <ele>86.18</ele>
        <time>2015-11-14T12:43:44Z</time>
      </trkpt>
      <trkpt lat="43.47281" lon="6.92047">
        <ele>84.73</ele>
        <time>2015-11-14T12:43:56Z</time>
      </trkpt>
      <trkpt lat="43.47277" lon="6.92067">
        <ele>83.77</ele>
        <time>2015-11-14T12:44:12Z</time>
      </trkpt>
      <trkpt lat="43.47276" lon="6.92072">
        <ele>81.85</ele>
        <time>2015-11-14T12:44:15Z</time>
      </trkpt>
      <trkpt lat="43.47275" lon="6.92089">
        <ele>79.93</ele>
        <time>2015-11-14T12:44:30Z</time>
      </trkpt>
      <trkpt lat="43.47272" lon="6.92103">
        <ele>77.04</ele>
        <time>2015-11-14T12:44:42Z</time>
      </trkpt>
      <trkpt lat="43.47272" lon="6.92114">
        <ele>76.56</ele>
        <time>2015-11-14T12:44:50Z</time>
      </trkpt>
      <trkpt lat="43.47276" lon="6.92134">
        <ele>75.12</ele>
        <time>2015-11-14T12:45:04Z</time>
      </trkpt>
      <trkpt lat="43.4728" lon="6.92151">
        <ele>73.2</ele>
        <time>2015-11-14T12:45:17Z</time>
      </trkpt>
      <trkpt lat="43.47288" lon="6.92167">
        <ele>71.27</ele>
        <time>2015-11-14T12:45:32Z</time>
      </trkpt>
      <trkpt lat="43.4729" lon="6.92178">
        <ele>69.83</ele>
        <time>2015-11-14T12:45:44Z</time>
      </trkpt>
      <trkpt lat="43.47291" lon="6.92178">
        <ele>69.83</ele>
        <time>2015-11-14T12:45:46Z</time>
      </trkpt>
      <trkpt lat="43.47293" lon="6.92175">
        <ele>69.83</ele>
        <time>2015-11-14T12:46:02Z</time>
      </trkpt>
      <trkpt lat="43.47293" lon="6.92176">
        <ele>70.31</ele>
        <time>2015-11-14T12:46:26Z</time>
      </trkpt>
      <trkpt lat="43.47293" lon="6.92176">
        <ele>70.31</ele>
        <time>2015-11-14T12:46:27Z</time>
      </trkpt>
      <trkpt lat="43.47287" lon="6.92177">
        <ele>70.31</ele>
        <time>2015-11-14T12:46:40Z</time>
      </trkpt>
      <trkpt lat="43.47287" lon="6.92175">
        <ele>70.31</ele>
        <time>2015-11-14T12:46:48Z</time>
      </trkpt>
      <trkpt lat="43.4728" lon="6.92172">
        <ele>70.31</ele>
        <time>2015-11-14T12:46:56Z</time>
      </trkpt>
      <trkpt lat="43.47274" lon="6.92171">
        <ele>68.87</ele>
        <time>2015-11-14T12:47:01Z</time>
      </trkpt>
      <trkpt lat="43.47259" lon="6.92164">
        <ele>68.39</ele>
        <time>2015-11-14T12:47:15Z</time>
      </trkpt>
      <trkpt lat="43.47259" lon="6.92164">
        <ele>67.91</ele>
        <time>2015-11-14T12:47:16Z</time>
      </trkpt>
      <trkpt lat="43.47249" lon="6.92143">
        <ele>66.95</ele>
        <time>2015-11-14T12:47:31Z</time>
      </trkpt>
      <trkpt lat="43.47241" lon="6.92121">
        <ele>65.51</ele>
        <time>2015-11-14T12:47:46Z</time>
      </trkpt>
      <trkpt lat="43.4724" lon="6.92116">
        <ele>65.51</ele>
        <time>2015-11-14T12:47:49Z</time>
      </trkpt>
      <trkpt lat="43.47234" lon="6.92086">
        <ele>64.07</ele>
        <time>2015-11-14T12:48:07Z</time>
      </trkpt>
      <trkpt lat="43.47219" lon="6.92078">
        <ele>63.1</ele>
        <time>2015-11-14T12:48:21Z</time>
      </trkpt>
      <trkpt lat="43.47203" lon="6.92094">
        <ele>61.66</ele>
        <time>2015-11-14T12:48:36Z</time>
      </trkpt>
      <trkpt lat="43.47191" lon="6.92123">
        <ele>60.22</ele>
        <time>2015-11-14T12:48:53Z</time>
      </trkpt>
      <trkpt lat="43.47181" lon="6.92141">
        <ele>59.26</ele>
        <time>2015-11-14T12:49:06Z</time>
      </trkpt>
      <trkpt lat="43.47175" lon="6.92132">
        <ele>58.3</ele>
        <time>2015-11-14T12:49:15Z</time>
      </trkpt>
      <trkpt lat="43.4717" lon="6.92107">
        <ele>56.86</ele>
        <time>2015-11-14T12:49:31Z</time>
      </trkpt>
      <trkpt lat="43.47169" lon="6.92073">
        <ele>55.89</ele>
        <time>2015-11-14T12:49:51Z</time>
      </trkpt>
      <trkpt lat="43.47168" lon="6.92047">
        <ele>53.97</ele>
        <time>2015-11-14T12:50:06Z</time>
      </trkpt>
      <trkpt lat="43.47168" lon="6.92037">
        <ele>53.97</ele>
        <time>2015-11-14T12:50:12Z</time>
      </trkpt>
      <trkpt lat="43.47169" lon="6.92004">
        <ele>52.05</ele>
        <time>2015-11-14T12:50:30Z</time>
      </trkpt>
      <trkpt lat="43.47169" lon="6.91974">
        <ele>51.09</ele>
        <time>2015-11-14T12:50:46Z</time>
      </trkpt>
      <trkpt lat="43.47164" lon="6.91945">
        <ele>49.65</ele>
        <time>2015-11-14T12:51:03Z</time>
      </trkpt>
      <trkpt lat="43.47156" lon="6.91921">
        <ele>49.16</ele>
        <time>2015-11-14T12:51:17Z</time>
      </trkpt>
      <trkpt lat="43.47144" lon="6.91896">
        <ele>48.68</ele>
        <time>2015-11-14T12:51:33Z</time>
      </trkpt>
      <trkpt lat="43.4713" lon="6.91871">
        <ele>48.68</ele>
        <time>2015-11-14T12:51:49Z</time>
      </trkpt>
      <trkpt lat="43.47113" lon="6.91858">
        <ele>49.65</ele>
        <time>2015-11-14T12:52:04Z</time>
      </trkpt>
      <trkpt lat="43.47107" lon="6.91867">
        <ele>49.65</ele>
        <time>2015-11-14T12:52:10Z</time>
      </trkpt>
      <trkpt lat="43.47108" lon="6.91879">
        <ele>50.13</ele>
        <time>2015-11-14T12:52:17Z</time>
      </trkpt>
      <trkpt lat="43.47119" lon="6.91904">
        <ele>50.13</ele>
        <time>2015-11-14T12:52:33Z</time>
      </trkpt>
      <trkpt lat="43.47123" lon="6.9193">
        <ele>50.61</ele>
        <time>2015-11-14T12:52:47Z</time>
      </trkpt>
      <trkpt lat="43.47124" lon="6.91944">
        <ele>51.09</ele>
        <time>2015-11-14T12:52:55Z</time>
      </trkpt>
      <trkpt lat="43.47121" lon="6.91974">
        <ele>52.05</ele>
        <time>2015-11-14T12:53:11Z</time>
      </trkpt>
      <trkpt lat="43.47116" lon="6.92006">
        <ele>52.53</ele>
        <time>2015-11-14T12:53:27Z</time>
      </trkpt>
      <trkpt lat="43.4711" lon="6.92029">
        <ele>53.49</ele>
        <time>2015-11-14T12:53:40Z</time>
      </trkpt>
      <trkpt lat="43.47098" lon="6.92053">
        <ele>54.45</ele>
        <time>2015-11-14T12:53:57Z</time>
      </trkpt>
      <trkpt lat="43.47086" lon="6.92073">
        <ele>55.41</ele>
        <time>2015-11-14T12:54:11Z</time>
      </trkpt>
      <trkpt lat="43.47073" lon="6.92092">
        <ele>57.34</ele>
        <time>2015-11-14T12:54:25Z</time>
      </trkpt>
      <trkpt lat="43.47059" lon="6.92104">
        <ele>58.78</ele>
        <time>2015-11-14T12:54:38Z</time>
      </trkpt>
      <trkpt lat="43.47043" lon="6.92093">
        <ele>59.74</ele>
        <time>2015-11-14T12:54:54Z</time>
      </trkpt>
      <trkpt lat="43.4704" lon="6.92087">
        <ele>59.74</ele>
        <time>2015-11-14T12:54:59Z</time>
      </trkpt>
      <trkpt lat="43.47035" lon="6.92082">
        <ele>60.7</ele>
        <time>2015-11-14T12:55:04Z</time>
      </trkpt>
      <trkpt lat="43.4703" lon="6.92075">
        <ele>61.18</ele>
        <time>2015-11-14T12:55:10Z</time>
      </trkpt>
      <trkpt lat="43.47015" lon="6.92068">
        <ele>61.66</ele>
        <time>2015-11-14T12:55:22Z</time>
      </trkpt>
      <trkpt lat="43.46994" lon="6.92071">
        <ele>62.62</ele>
        <time>2015-11-14T12:55:38Z</time>
      </trkpt>
      <trkpt lat="43.46985" lon="6.92074">
        <ele>63.58</ele>
        <time>2015-11-14T12:55:45Z</time>
      </trkpt>
      <trkpt lat="43.46965" lon="6.92075">
        <ele>64.55</ele>
        <time>2015-11-14T12:56:01Z</time>
      </trkpt>
      <trkpt lat="43.46961" lon="6.92078">
        <ele>65.03</ele>
        <time>2015-11-14T12:56:05Z</time>
      </trkpt>
      <trkpt lat="43.46946" lon="6.92097">
        <ele>65.99</ele>
        <time>2015-11-14T12:56:21Z</time>
      </trkpt>
      <trkpt lat="43.46944" lon="6.92099">
        <ele>65.99</ele>
        <time>2015-11-14T12:56:23Z</time>
      </trkpt>
      <trkpt lat="43.46933" lon="6.92106">
        <ele>66.95</ele>
        <time>2015-11-14T12:56:33Z</time>
      </trkpt>
      <trkpt lat="43.4693" lon="6.9211">
        <ele>67.43</ele>
        <time>2015-11-14T12:56:47Z</time>
      </trkpt>
      <trkpt lat="43.46922" lon="6.92116">
        <ele>67.91</ele>
        <time>2015-11-14T12:56:54Z</time>
      </trkpt>
      <trkpt lat="43.46904" lon="6.92128">
        <ele>68.87</ele>
        <time>2015-11-14T12:57:09Z</time>
      </trkpt>
      <trkpt lat="43.46888" lon="6.92136">
        <ele>70.31</ele>
        <time>2015-11-14T12:57:22Z</time>
      </trkpt>
      <trkpt lat="43.46872" lon="6.92149">
        <ele>71.27</ele>
        <time>2015-11-14T12:57:35Z</time>
      </trkpt>
      <trkpt lat="43.46855" lon="6.92159">
        <ele>72.24</ele>
        <time>2015-11-14T12:57:49Z</time>
      </trkpt>
      <trkpt lat="43.46837" lon="6.92169">
        <ele>73.2</ele>
        <time>2015-11-14T12:58:04Z</time>
      </trkpt>
      <trkpt lat="43.46819" lon="6.92176">
        <ele>74.16</ele>
        <time>2015-11-14T12:58:19Z</time>
      </trkpt>
      <trkpt lat="43.46817" lon="6.92176">
        <ele>74.64</ele>
        <time>2015-11-14T12:58:20Z</time>
      </trkpt>
      <trkpt lat="43.46797" lon="6.92173">
        <ele>76.08</ele>
        <time>2015-11-14T12:58:35Z</time>
      </trkpt>
      <trkpt lat="43.46777" lon="6.92172">
        <ele>77.04</ele>
        <time>2015-11-14T12:58:50Z</time>
      </trkpt>
      <trkpt lat="43.46759" lon="6.92171">
        <ele>78.48</ele>
        <time>2015-11-14T12:59:04Z</time>
      </trkpt>
      <trkpt lat="43.46739" lon="6.92157">
        <ele>79.45</ele>
        <time>2015-11-14T12:59:21Z</time>
      </trkpt>
      <trkpt lat="43.46724" lon="6.92142">
        <ele>80.89</ele>
        <time>2015-11-14T12:59:35Z</time>
      </trkpt>
      <trkpt lat="43.46712" lon="6.92123">
        <ele>82.33</ele>
        <time>2015-11-14T12:59:49Z</time>
      </trkpt>
      <trkpt lat="43.46691" lon="6.92123">
        <ele>83.29</ele>
        <time>2015-11-14T13:00:04Z</time>
      </trkpt>
      <trkpt lat="43.46676" lon="6.9211">
        <ele>84.25</ele>
        <time>2015-11-14T13:00:18Z</time>
      </trkpt>
      <trkpt lat="43.46658" lon="6.92094">
        <ele>86.18</ele>
        <time>2015-11-14T13:00:34Z</time>
      </trkpt>
      <trkpt lat="43.46639" lon="6.92098">
        <ele>87.62</ele>
        <time>2015-11-14T13:00:48Z</time>
      </trkpt>
      <trkpt lat="43.46619" lon="6.92095">
        <ele>88.58</ele>
        <time>2015-11-14T13:01:03Z</time>
      </trkpt>
      <trkpt lat="43.46599" lon="6.92087">
        <ele>90.5</ele>
        <time>2015-11-14T13:01:19Z</time>
      </trkpt>
      <trkpt lat="43.46583" lon="6.92079">
        <ele>91.46</ele>
        <time>2015-11-14T13:01:32Z</time>
      </trkpt>
      <trkpt lat="43.46582" lon="6.92078">
        <ele>91.46</ele>
        <time>2015-11-14T13:01:33Z</time>
      </trkpt>
      <trkpt lat="43.46571" lon="6.92052">
        <ele>92.9</ele>
        <time>2015-11-14T13:01:50Z</time>
      </trkpt>
      <trkpt lat="43.46557" lon="6.92037">
        <ele>93.87</ele>
        <time>2015-11-14T13:02:05Z</time>
      </trkpt>
      <trkpt lat="43.46539" lon="6.92041">
        <ele>94.83</ele>
        <time>2015-11-14T13:02:18Z</time>
      </trkpt>
      <trkpt lat="43.46523" lon="6.92034">
        <ele>95.79</ele>
        <time>2015-11-14T13:02:32Z</time>
      </trkpt>
      <trkpt lat="43.46508" lon="6.92019">
        <ele>97.23</ele>
        <time>2015-11-14T13:02:47Z</time>
      </trkpt>
      <trkpt lat="43.46499" lon="6.92009">
        <ele>97.71</ele>
        <time>2015-11-14T13:02:56Z</time>
      </trkpt>
      <trkpt lat="43.46492" lon="6.91985">
        <ele>99.15</ele>
        <time>2015-11-14T13:03:12Z</time>
      </trkpt>
      <trkpt lat="43.46485" lon="6.91956">
        <ele>101.08</ele>
        <time>2015-11-14T13:03:29Z</time>
      </trkpt>
      <trkpt lat="43.46465" lon="6.91958">
        <ele>101.56</ele>
        <time>2015-11-14T13:03:43Z</time>
      </trkpt>
      <trkpt lat="43.46448" lon="6.9195">
        <ele>102.52</ele>
        <time>2015-11-14T13:03:57Z</time>
      </trkpt>
      <trkpt lat="43.46434" lon="6.91934">
        <ele>103.96</ele>
        <time>2015-11-14T13:04:12Z</time>
      </trkpt>
      <trkpt lat="43.46428" lon="6.91927">
        <ele>104.44</ele>
        <time>2015-11-14T13:04:18Z</time>
      </trkpt>
      <trkpt lat="43.46427" lon="6.91925">
        <ele>104.92</ele>
        <time>2015-11-14T13:04:20Z</time>
      </trkpt>
      <trkpt lat="43.46413" lon="6.91898">
        <ele>106.36</ele>
        <time>2015-11-14T13:04:39Z</time>
      </trkpt>
      <trkpt lat="43.46407" lon="6.91882">
        <ele>106.84</ele>
        <time>2015-11-14T13:04:49Z</time>
      </trkpt>
      <trkpt lat="43.46404" lon="6.91875">
        <ele>107.32</ele>
        <time>2015-11-14T13:04:54Z</time>
      </trkpt>
      <trkpt lat="43.46397" lon="6.91854">
        <ele>108.77</ele>
        <time>2015-11-14T13:05:08Z</time>
      </trkpt>
      <trkpt lat="43.46392" lon="6.91827">
        <ele>109.73</ele>
        <time>2015-11-14T13:05:23Z</time>
      </trkpt>
      <trkpt lat="43.4638" lon="6.91808">
        <ele>111.17</ele>
        <time>2015-11-14T13:05:37Z</time>
      </trkpt>
      <trkpt lat="43.46366" lon="6.91788">
        <ele>112.13</ele>
        <time>2015-11-14T13:05:52Z</time>
      </trkpt>
      <trkpt lat="43.46353" lon="6.91769">
        <ele>114.05</ele>
        <time>2015-11-14T13:06:07Z</time>
      </trkpt>
      <trkpt lat="43.46343" lon="6.91745">
        <ele>114.53</ele>
        <time>2015-11-14T13:06:23Z</time>
      </trkpt>
      <trkpt lat="43.4634" lon="6.91717">
        <ele>115.98</ele>
        <time>2015-11-14T13:06:39Z</time>
      </trkpt>
      <trkpt lat="43.46342" lon="6.91693">
        <ele>117.42</ele>
        <time>2015-11-14T13:06:53Z</time>
      </trkpt>
      <trkpt lat="43.46339" lon="6.91667">
        <ele>118.86</ele>
        <time>2015-11-14T13:07:09Z</time>
      </trkpt>
      <trkpt lat="43.46334" lon="6.91642">
        <ele>119.82</ele>
        <time>2015-11-14T13:07:24Z</time>
      </trkpt>
      <trkpt lat="43.46332" lon="6.9163">
        <ele>119.82</ele>
        <time>2015-11-14T13:07:31Z</time>
      </trkpt>
      <trkpt lat="43.46326" lon="6.91606">
        <ele>121.26</ele>
        <time>2015-11-14T13:07:46Z</time>
      </trkpt>
      <trkpt lat="43.46318" lon="6.91578">
        <ele>122.71</ele>
        <time>2015-11-14T13:08:03Z</time>
      </trkpt>
      <trkpt lat="43.46315" lon="6.91548">
        <ele>123.67</ele>
        <time>2015-11-14T13:08:20Z</time>
      </trkpt>
      <trkpt lat="43.46318" lon="6.91523">
        <ele>125.11</ele>
        <time>2015-11-14T13:08:34Z</time>
      </trkpt>
      <trkpt lat="43.46322" lon="6.91495">
        <ele>126.55</ele>
        <time>2015-11-14T13:08:50Z</time>
      </trkpt>
      <trkpt lat="43.46319" lon="6.91469">
        <ele>127.51</ele>
        <time>2015-11-14T13:09:05Z</time>
      </trkpt>
      <trkpt lat="43.46312" lon="6.91441">
        <ele>128.47</ele>
        <time>2015-11-14T13:09:22Z</time>
      </trkpt>
      <trkpt lat="43.46309" lon="6.91415">
        <ele>130.4</ele>
        <time>2015-11-14T13:09:38Z</time>
      </trkpt>
      <trkpt lat="43.46313" lon="6.91392">
        <ele>130.88</ele>
        <time>2015-11-14T13:09:52Z</time>
      </trkpt>
      <trkpt lat="43.46322" lon="6.91376">
        <ele>132.32</ele>
        <time>2015-11-14T13:10:05Z</time>
      </trkpt>
      <trkpt lat="43.46329" lon="6.91368">
        <ele>132.8</ele>
        <time>2015-11-14T13:10:13Z</time>
      </trkpt>
      <trkpt lat="43.46345" lon="6.91349">
        <ele>133.76</ele>
        <time>2015-11-14T13:10:30Z</time>
      </trkpt>
      <trkpt lat="43.46356" lon="6.91332">
        <ele>134.72</ele>
        <time>2015-11-14T13:10:44Z</time>
      </trkpt>
      <trkpt lat="43.46368" lon="6.9131">
        <ele>135.68</ele>
        <time>2015-11-14T13:11:00Z</time>
      </trkpt>
      <trkpt lat="43.46375" lon="6.91287">
        <ele>137.13</ele>
        <time>2015-11-14T13:11:14Z</time>
      </trkpt>
      <trkpt lat="43.46374" lon="6.91265">
        <ele>138.09</ele>
        <time>2015-11-14T13:11:27Z</time>
      </trkpt>
      <trkpt lat="43.46364" lon="6.91245">
        <ele>138.57</ele>
        <time>2015-11-14T13:11:41Z</time>
      </trkpt>
      <trkpt lat="43.46351" lon="6.91228">
        <ele>140.01</ele>
        <time>2015-11-14T13:11:56Z</time>
      </trkpt>
      <trkpt lat="43.4634" lon="6.91213">
        <ele>140.97</ele>
        <time>2015-11-14T13:12:08Z</time>
      </trkpt>
      <trkpt lat="43.46333" lon="6.91191">
        <ele>142.41</ele>
        <time>2015-11-14T13:12:24Z</time>
      </trkpt>
      <trkpt lat="43.46335" lon="6.91167">
        <ele>143.37</ele>
        <time>2015-11-14T13:12:39Z</time>
      </trkpt>
      <trkpt lat="43.46344" lon="6.91142">
        <ele>144.34</ele>
        <time>2015-11-14T13:12:55Z</time>
      </trkpt>
      <trkpt lat="43.46351" lon="6.91116">
        <ele>145.78</ele>
        <time>2015-11-14T13:13:12Z</time>
      </trkpt>
      <trkpt lat="43.46354" lon="6.91111">
        <ele>146.26</ele>
        <time>2015-11-14T13:13:20Z</time>
      </trkpt>
      <trkpt lat="43.46354" lon="6.91107">
        <ele>146.74</ele>
        <time>2015-11-14T13:13:23Z</time>
      </trkpt>
      <trkpt lat="43.46359" lon="6.91081">
        <ele>147.7</ele>
        <time>2015-11-14T13:13:39Z</time>
      </trkpt>
      <trkpt lat="43.46357" lon="6.9105">
        <ele>149.14</ele>
        <time>2015-11-14T13:13:56Z</time>
      </trkpt>
      <trkpt lat="43.46354" lon="6.9102">
        <ele>150.58</ele>
        <time>2015-11-14T13:14:12Z</time>
      </trkpt>
      <trkpt lat="43.46348" lon="6.90991">
        <ele>151.54</ele>
        <time>2015-11-14T13:14:27Z</time>
      </trkpt>
      <trkpt lat="43.46332" lon="6.9097">
        <ele>152.99</ele>
        <time>2015-11-14T13:14:43Z</time>
      </trkpt>
      <trkpt lat="43.46321" lon="6.90967">
        <ele>153.95</ele>
        <time>2015-11-14T13:14:52Z</time>
      </trkpt>
      <trkpt lat="43.46298" lon="6.90951">
        <ele>154.91</ele>
        <time>2015-11-14T13:15:10Z</time>
      </trkpt>
      <trkpt lat="43.46287" lon="6.90926">
        <ele>156.35</ele>
        <time>2015-11-14T13:15:26Z</time>
      </trkpt>
      <trkpt lat="43.46282" lon="6.90898">
        <ele>157.79</ele>
        <time>2015-11-14T13:15:41Z</time>
      </trkpt>
      <trkpt lat="43.46278" lon="6.90868">
        <ele>158.75</ele>
        <time>2015-11-14T13:15:57Z</time>
      </trkpt>
      <trkpt lat="43.46268" lon="6.90842">
        <ele>160.2</ele>
        <time>2015-11-14T13:16:12Z</time>
      </trkpt>
      <trkpt lat="43.46257" lon="6.90815">
        <ele>161.16</ele>
        <time>2015-11-14T13:16:28Z</time>
      </trkpt>
      <trkpt lat="43.46242" lon="6.90787">
        <ele>163.08</ele>
        <time>2015-11-14T13:16:46Z</time>
      </trkpt>
      <trkpt lat="43.46226" lon="6.9077">
        <ele>164.04</ele>
        <time>2015-11-14T13:17:00Z</time>
      </trkpt>
      <trkpt lat="43.46207" lon="6.90751">
        <ele>165</ele>
        <time>2015-11-14T13:17:17Z</time>
      </trkpt>
      <trkpt lat="43.4619" lon="6.90733">
        <ele>166.45</ele>
        <time>2015-11-14T13:17:33Z</time>
      </trkpt>
      <trkpt lat="43.46172" lon="6.90715">
        <ele>167.89</ele>
        <time>2015-11-14T13:17:49Z</time>
      </trkpt>
      <trkpt lat="43.46157" lon="6.90698">
        <ele>168.85</ele>
        <time>2015-11-14T13:18:04Z</time>
      </trkpt>
      <trkpt lat="43.46141" lon="6.90677">
        <ele>169.81</ele>
        <time>2015-11-14T13:18:22Z</time>
      </trkpt>
      <trkpt lat="43.46139" lon="6.90676">
        <ele>168.37</ele>
        <time>2015-11-14T13:18:34Z</time>
      </trkpt>
      <trkpt lat="43.46138" lon="6.90676">
        <ele>169.33</ele>
        <time>2015-11-14T13:19:03Z</time>
      </trkpt>
      <trkpt lat="43.46137" lon="6.90669">
        <ele>169.33</ele>
        <time>2015-11-14T13:19:15Z</time>
      </trkpt>
      <trkpt lat="43.46137" lon="6.90669">
        <ele>169.81</ele>
        <time>2015-11-14T13:19:38Z</time>
      </trkpt>
      <trkpt lat="43.46137" lon="6.90668">
        <ele>169.81</ele>
        <time>2015-11-14T13:19:53Z</time>
      </trkpt>
      <trkpt lat="43.46137" lon="6.90668">
        <ele>169.81</ele>
        <time>2015-11-14T13:20:10Z</time>
      </trkpt>
      <trkpt lat="43.46137" lon="6.90669">
        <ele>168.85</ele>
        <time>2015-11-14T13:20:26Z</time>
      </trkpt>
      <trkpt lat="43.46135" lon="6.9067">
        <ele>168.85</ele>
        <time>2015-11-14T13:20:59Z</time>
      </trkpt>
      <trkpt lat="43.46136" lon="6.90668">
        <ele>168.37</ele>
        <time>2015-11-14T13:21:38Z</time>
      </trkpt>
      <trkpt lat="43.46134" lon="6.90669">
        <ele>168.37</ele>
        <time>2015-11-14T13:22:11Z</time>
      </trkpt>
      <trkpt lat="43.46134" lon="6.90669">
        <ele>168.37</ele>
        <time>2015-11-14T13:22:13Z</time>
      </trkpt>
      <trkpt lat="43.46133" lon="6.90668">
        <ele>168.37</ele>
        <time>2015-11-14T13:22:16Z</time>
      </trkpt>
      <trkpt lat="43.4613" lon="6.90665">
        <ele>168.37</ele>
        <time>2015-11-14T13:22:20Z</time>
      </trkpt>
      <trkpt lat="43.46115" lon="6.90647">
        <ele>169.33</ele>
        <time>2015-11-14T13:22:38Z</time>
      </trkpt>
      <trkpt lat="43.46102" lon="6.90632">
        <ele>169.33</ele>
        <time>2015-11-14T13:22:51Z</time>
      </trkpt>
      <trkpt lat="43.46084" lon="6.90618">
        <ele>169.33</ele>
        <time>2015-11-14T13:23:07Z</time>
      </trkpt>
      <trkpt lat="43.46066" lon="6.9061">
        <ele>169.33</ele>
        <time>2015-11-14T13:23:21Z</time>
      </trkpt>
      <trkpt lat="43.46048" lon="6.90606">
        <ele>167.89</ele>
        <time>2015-11-14T13:23:35Z</time>
      </trkpt>
      <trkpt lat="43.46035" lon="6.9059">
        <ele>167.89</ele>
        <time>2015-11-14T13:23:51Z</time>
      </trkpt>
      <trkpt lat="43.4605" lon="6.90567">
        <ele>167.89</ele>
        <time>2015-11-14T13:24:09Z</time>
      </trkpt>
      <trkpt lat="43.46062" lon="6.90552">
        <ele>169.33</ele>
        <time>2015-11-14T13:24:21Z</time>
      </trkpt>
      <trkpt lat="43.46074" lon="6.90526">
        <ele>169.81</ele>
        <time>2015-11-14T13:24:37Z</time>
      </trkpt>
      <trkpt lat="43.46081" lon="6.90496">
        <ele>170.77</ele>
        <time>2015-11-14T13:24:53Z</time>
      </trkpt>
      <trkpt lat="43.46086" lon="6.90467">
        <ele>171.73</ele>
        <time>2015-11-14T13:25:09Z</time>
      </trkpt>
      <trkpt lat="43.46086" lon="6.90431">
        <ele>172.69</ele>
        <time>2015-11-14T13:25:28Z</time>
      </trkpt>
      <trkpt lat="43.46071" lon="6.90417">
        <ele>173.17</ele>
        <time>2015-11-14T13:25:42Z</time>
      </trkpt>
      <trkpt lat="43.46061" lon="6.90413">
        <ele>173.17</ele>
        <time>2015-11-14T13:25:50Z</time>
      </trkpt>
      <trkpt lat="43.46049" lon="6.90406">
        <ele>173.17</ele>
        <time>2015-11-14T13:26:02Z</time>
      </trkpt>
      <trkpt lat="43.46044" lon="6.90403">
        <ele>173.17</ele>
        <time>2015-11-14T13:26:10Z</time>
      </trkpt>
      <trkpt lat="43.46048" lon="6.90406">
        <ele>173.17</ele>
        <time>2015-11-14T13:26:14Z</time>
      </trkpt>
      <trkpt lat="43.46069" lon="6.90419">
        <ele>173.17</ele>
        <time>2015-11-14T13:26:31Z</time>
      </trkpt>
      <trkpt lat="43.46085" lon="6.90432">
        <ele>173.17</ele>
        <time>2015-11-14T13:26:46Z</time>
      </trkpt>
      <trkpt lat="43.46087" lon="6.90449">
        <ele>173.17</ele>
        <time>2015-11-14T13:26:57Z</time>
      </trkpt>
      <trkpt lat="43.4608" lon="6.90479">
        <ele>171.25</ele>
        <time>2015-11-14T13:27:14Z</time>
      </trkpt>
      <trkpt lat="43.46075" lon="6.90508">
        <ele>170.29</ele>
        <time>2015-11-14T13:27:30Z</time>
      </trkpt>
      <trkpt lat="43.46067" lon="6.90537">
        <ele>169.33</ele>
        <time>2015-11-14T13:27:47Z</time>
      </trkpt>
      <trkpt lat="43.46051" lon="6.90557">
        <ele>168.37</ele>
        <time>2015-11-14T13:28:03Z</time>
      </trkpt>
      <trkpt lat="43.46035" lon="6.9058">
        <ele>167.89</ele>
        <time>2015-11-14T13:28:20Z</time>
      </trkpt>
      <trkpt lat="43.46044" lon="6.90606">
        <ele>167.89</ele>
        <time>2015-11-14T13:28:34Z</time>
      </trkpt>
      <trkpt lat="43.46068" lon="6.90614">
        <ele>167.89</ele>
        <time>2015-11-14T13:28:51Z</time>
      </trkpt>
      <trkpt lat="43.46081" lon="6.90621">
        <ele>167.89</ele>
        <time>2015-11-14T13:29:01Z</time>
      </trkpt>
      <trkpt lat="43.46083" lon="6.90623">
        <ele>167.89</ele>
        <time>2015-11-14T13:29:03Z</time>
      </trkpt>
      <trkpt lat="43.46102" lon="6.90638">
        <ele>167.89</ele>
        <time>2015-11-14T13:29:18Z</time>
      </trkpt>
      <trkpt lat="43.46106" lon="6.90642">
        <ele>167.89</ele>
        <time>2015-11-14T13:29:22Z</time>
      </trkpt>
      <trkpt lat="43.46125" lon="6.90665">
        <ele>168.85</ele>
        <time>2015-11-14T13:29:39Z</time>
      </trkpt>
      <trkpt lat="43.4613" lon="6.90679">
        <ele>169.33</ele>
        <time>2015-11-14T13:29:53Z</time>
      </trkpt>
      <trkpt lat="43.46118" lon="6.90668">
        <ele>171.25</ele>
        <time>2015-11-14T13:30:07Z</time>
      </trkpt>
      <trkpt lat="43.46107" lon="6.90662">
        <ele>173.66</ele>
        <time>2015-11-14T13:30:20Z</time>
      </trkpt>
      <trkpt lat="43.46091" lon="6.90651">
        <ele>176.06</ele>
        <time>2015-11-14T13:30:37Z</time>
      </trkpt>
      <trkpt lat="43.46078" lon="6.90647">
        <ele>177.98</ele>
        <time>2015-11-14T13:30:51Z</time>
      </trkpt>
      <trkpt lat="43.46066" lon="6.90643">
        <ele>180.87</ele>
        <time>2015-11-14T13:31:04Z</time>
      </trkpt>
      <trkpt lat="43.46054" lon="6.90647">
        <ele>183.75</ele>
        <time>2015-11-14T13:31:21Z</time>
      </trkpt>
      <trkpt lat="43.46044" lon="6.9065">
        <ele>186.15</ele>
        <time>2015-11-14T13:31:34Z</time>
      </trkpt>
      <trkpt lat="43.46038" lon="6.90652">
        <ele>188.08</ele>
        <time>2015-11-14T13:31:46Z</time>
      </trkpt>
      <trkpt lat="43.46043" lon="6.90665">
        <ele>190.96</ele>
        <time>2015-11-14T13:31:58Z</time>
      </trkpt>
      <trkpt lat="43.46049" lon="6.90678">
        <ele>193.36</ele>
        <time>2015-11-14T13:32:12Z</time>
      </trkpt>
      <trkpt lat="43.46049" lon="6.90695">
        <ele>195.77</ele>
        <time>2015-11-14T13:32:26Z</time>
      </trkpt>
      <trkpt lat="43.4605" lon="6.90714">
        <ele>197.69</ele>
        <time>2015-11-14T13:32:40Z</time>
      </trkpt>
      <trkpt lat="43.4605" lon="6.90725">
        <ele>198.65</ele>
        <time>2015-11-14T13:32:47Z</time>
      </trkpt>
      <trkpt lat="43.46047" lon="6.90734">
        <ele>200.09</ele>
        <time>2015-11-14T13:32:59Z</time>
      </trkpt>
      <trkpt lat="43.46046" lon="6.90732">
        <ele>200.57</ele>
        <time>2015-11-14T13:33:01Z</time>
      </trkpt>
      <trkpt lat="43.46041" lon="6.90718">
        <ele>203.46</ele>
        <time>2015-11-14T13:33:15Z</time>
      </trkpt>
      <trkpt lat="43.46031" lon="6.9071">
        <ele>205.38</ele>
        <time>2015-11-14T13:33:28Z</time>
      </trkpt>
      <trkpt lat="43.46025" lon="6.90706">
        <ele>207.3</ele>
        <time>2015-11-14T13:33:38Z</time>
      </trkpt>
      <trkpt lat="43.46014" lon="6.907">
        <ele>209.7</ele>
        <time>2015-11-14T13:33:53Z</time>
      </trkpt>
      <trkpt lat="43.46012" lon="6.90699">
        <ele>210.19</ele>
        <time>2015-11-14T13:33:55Z</time>
      </trkpt>
      <trkpt lat="43.46" lon="6.90697">
        <ele>213.55</ele>
        <time>2015-11-14T13:34:09Z</time>
      </trkpt>
      <trkpt lat="43.45993" lon="6.907">
        <ele>215.47</ele>
        <time>2015-11-14T13:34:19Z</time>
      </trkpt>
      <trkpt lat="43.4599" lon="6.90701">
        <ele>215.47</ele>
        <time>2015-11-14T13:34:22Z</time>
      </trkpt>
      <trkpt lat="43.45981" lon="6.90706">
        <ele>218.84</ele>
        <time>2015-11-14T13:34:36Z</time>
      </trkpt>
      <trkpt lat="43.45979" lon="6.90707">
        <ele>219.32</ele>
        <time>2015-11-14T13:34:38Z</time>
      </trkpt>
      <trkpt lat="43.45966" lon="6.90709">
        <ele>222.2</ele>
        <time>2015-11-14T13:34:51Z</time>
      </trkpt>
      <trkpt lat="43.4596" lon="6.90712">
        <ele>224.12</ele>
        <time>2015-11-14T13:34:57Z</time>
      </trkpt>
      <trkpt lat="43.45958" lon="6.90713">
        <ele>224.61</ele>
        <time>2015-11-14T13:34:59Z</time>
      </trkpt>
      <trkpt lat="43.45947" lon="6.90716">
        <ele>227.01</ele>
        <time>2015-11-14T13:35:12Z</time>
      </trkpt>
      <trkpt lat="43.45937" lon="6.90717">
        <ele>229.41</ele>
        <time>2015-11-14T13:35:23Z</time>
      </trkpt>
      <trkpt lat="43.45934" lon="6.90718">
        <ele>229.89</ele>
        <time>2015-11-14T13:35:42Z</time>
      </trkpt>
      <trkpt lat="43.45922" lon="6.90717">
        <ele>232.78</ele>
        <time>2015-11-14T13:35:55Z</time>
      </trkpt>
      <trkpt lat="43.45913" lon="6.9072">
        <ele>235.18</ele>
        <time>2015-11-14T13:36:07Z</time>
      </trkpt>
      <trkpt lat="43.45903" lon="6.90723">
        <ele>237.58</ele>
        <time>2015-11-14T13:36:20Z</time>
      </trkpt>
      <trkpt lat="43.45894" lon="6.90724">
        <ele>241.43</ele>
        <time>2015-11-14T13:36:32Z</time>
      </trkpt>
      <trkpt lat="43.45894" lon="6.90725">
        <ele>241.43</ele>
        <time>2015-11-14T13:36:33Z</time>
      </trkpt>
      <trkpt lat="43.45897" lon="6.90734">
        <ele>242.39</ele>
        <time>2015-11-14T13:36:40Z</time>
      </trkpt>
      <trkpt lat="43.45902" lon="6.90751">
        <ele>244.31</ele>
        <time>2015-11-14T13:36:52Z</time>
      </trkpt>
      <trkpt lat="43.45905" lon="6.90769">
        <ele>245.27</ele>
        <time>2015-11-14T13:37:03Z</time>
      </trkpt>
      <trkpt lat="43.45902" lon="6.90775">
        <ele>246.23</ele>
        <time>2015-11-14T13:37:08Z</time>
      </trkpt>
      <trkpt lat="43.45891" lon="6.90758">
        <ele>247.68</ele>
        <time>2015-11-14T13:37:23Z</time>
      </trkpt>
      <trkpt lat="43.4588" lon="6.90745">
        <ele>250.56</ele>
        <time>2015-11-14T13:37:38Z</time>
      </trkpt>
      <trkpt lat="43.4587" lon="6.90735">
        <ele>252.48</ele>
        <time>2015-11-14T13:37:50Z</time>
      </trkpt>
      <trkpt lat="43.45859" lon="6.90724">
        <ele>253.93</ele>
        <time>2015-11-14T13:38:02Z</time>
      </trkpt>
      <trkpt lat="43.4585" lon="6.90712">
        <ele>256.33</ele>
        <time>2015-11-14T13:38:14Z</time>
      </trkpt>
      <trkpt lat="43.45839" lon="6.90695">
        <ele>258.73</ele>
        <time>2015-11-14T13:38:29Z</time>
      </trkpt>
      <trkpt lat="43.45833" lon="6.90683">
        <ele>259.69</ele>
        <time>2015-11-14T13:38:38Z</time>
      </trkpt>
      <trkpt lat="43.45833" lon="6.90681">
        <ele>260.65</ele>
        <time>2015-11-14T13:38:40Z</time>
      </trkpt>
      <trkpt lat="43.45821" lon="6.90662">
        <ele>263.54</ele>
        <time>2015-11-14T13:38:55Z</time>
      </trkpt>
      <trkpt lat="43.4582" lon="6.90658">
        <ele>264.02</ele>
        <time>2015-11-14T13:38:58Z</time>
      </trkpt>
      <trkpt lat="43.45811" lon="6.90641">
        <ele>266.42</ele>
        <time>2015-11-14T13:39:12Z</time>
      </trkpt>
      <trkpt lat="43.45808" lon="6.90634">
        <ele>266.9</ele>
        <time>2015-11-14T13:39:17Z</time>
      </trkpt>
      <trkpt lat="43.45799" lon="6.90615">
        <ele>269.79</ele>
        <time>2015-11-14T13:39:32Z</time>
      </trkpt>
      <trkpt lat="43.45794" lon="6.90603">
        <ele>271.71</ele>
        <time>2015-11-14T13:39:44Z</time>
      </trkpt>
      <trkpt lat="43.45792" lon="6.90596">
        <ele>272.19</ele>
        <time>2015-11-14T13:39:49Z</time>
      </trkpt>
      <trkpt lat="43.45786" lon="6.90586">
        <ele>273.63</ele>
        <time>2015-11-14T13:40:02Z</time>
      </trkpt>
      <trkpt lat="43.4578" lon="6.90571">
        <ele>275.56</ele>
        <time>2015-11-14T13:40:15Z</time>
      </trkpt>
      <trkpt lat="43.45779" lon="6.90563">
        <ele>276.52</ele>
        <time>2015-11-14T13:40:22Z</time>
      </trkpt>
      <trkpt lat="43.45772" lon="6.90547">
        <ele>278.92</ele>
        <time>2015-11-14T13:40:36Z</time>
      </trkpt>
      <trkpt lat="43.45763" lon="6.90535">
        <ele>281.32</ele>
        <time>2015-11-14T13:40:48Z</time>
      </trkpt>
      <trkpt lat="43.45762" lon="6.90531">
        <ele>281.8</ele>
        <time>2015-11-14T13:40:55Z</time>
      </trkpt>
      <trkpt lat="43.45762" lon="6.90522">
        <ele>282.77</ele>
        <time>2015-11-14T13:41:01Z</time>
      </trkpt>
      <trkpt lat="43.45765" lon="6.90502">
        <ele>285.65</ele>
        <time>2015-11-14T13:41:14Z</time>
      </trkpt>
      <trkpt lat="43.45758" lon="6.90495">
        <ele>288.53</ele>
        <time>2015-11-14T13:41:27Z</time>
      </trkpt>
      <trkpt lat="43.45753" lon="6.90501">
        <ele>289.49</ele>
        <time>2015-11-14T13:41:34Z</time>
      </trkpt>
      <trkpt lat="43.45752" lon="6.90505">
        <ele>289.97</ele>
        <time>2015-11-14T13:41:37Z</time>
      </trkpt>
      <trkpt lat="43.45743" lon="6.90525">
        <ele>292.38</ele>
        <time>2015-11-14T13:41:54Z</time>
      </trkpt>
      <trkpt lat="43.45742" lon="6.90528">
        <ele>293.34</ele>
        <time>2015-11-14T13:41:56Z</time>
      </trkpt>
      <trkpt lat="43.45741" lon="6.90534">
        <ele>294.3</ele>
        <time>2015-11-14T13:42:01Z</time>
      </trkpt>
      <trkpt lat="43.45738" lon="6.90547">
        <ele>297.18</ele>
        <time>2015-11-14T13:42:15Z</time>
      </trkpt>
      <trkpt lat="43.45736" lon="6.90533">
        <ele>299.59</ele>
        <time>2015-11-14T13:42:27Z</time>
      </trkpt>
      <trkpt lat="43.45733" lon="6.90525">
        <ele>301.51</ele>
        <time>2015-11-14T13:42:38Z</time>
      </trkpt>
      <trkpt lat="43.45731" lon="6.9052">
        <ele>302.47</ele>
        <time>2015-11-14T13:42:43Z</time>
      </trkpt>
      <trkpt lat="43.4573" lon="6.90502">
        <ele>304.88</ele>
        <time>2015-11-14T13:42:57Z</time>
      </trkpt>
      <trkpt lat="43.45731" lon="6.90494">
        <ele>306.8</ele>
        <time>2015-11-14T13:43:02Z</time>
      </trkpt>
      <trkpt lat="43.45729" lon="6.90488">
        <ele>308.24</ele>
        <time>2015-11-14T13:43:08Z</time>
      </trkpt>
      <trkpt lat="43.45729" lon="6.90469">
        <ele>310.64</ele>
        <time>2015-11-14T13:43:23Z</time>
      </trkpt>
      <trkpt lat="43.45728" lon="6.9045">
        <ele>313.53</ele>
        <time>2015-11-14T13:43:37Z</time>
      </trkpt>
      <trkpt lat="43.45727" lon="6.90433">
        <ele>316.41</ele>
        <time>2015-11-14T13:43:50Z</time>
      </trkpt>
      <trkpt lat="43.45727" lon="6.90429">
        <ele>316.89</ele>
        <time>2015-11-14T13:44:03Z</time>
      </trkpt>
      <trkpt lat="43.45725" lon="6.90424">
        <ele>317.37</ele>
        <time>2015-11-14T13:44:07Z</time>
      </trkpt>
      <trkpt lat="43.45726" lon="6.90416">
        <ele>318.33</ele>
        <time>2015-11-14T13:44:13Z</time>
      </trkpt>
      <trkpt lat="43.45726" lon="6.90406">
        <ele>320.26</ele>
        <time>2015-11-14T13:44:21Z</time>
      </trkpt>
      <trkpt lat="43.45726" lon="6.90401">
        <ele>321.22</ele>
        <time>2015-11-14T13:44:25Z</time>
      </trkpt>
      <trkpt lat="43.45724" lon="6.90396">
        <ele>321.7</ele>
        <time>2015-11-14T13:44:29Z</time>
      </trkpt>
      <trkpt lat="43.45722" lon="6.90377">
        <ele>324.58</ele>
        <time>2015-11-14T13:44:42Z</time>
      </trkpt>
      <trkpt lat="43.45721" lon="6.90369">
        <ele>326.02</ele>
        <time>2015-11-14T13:44:48Z</time>
      </trkpt>
      <trkpt lat="43.45719" lon="6.90364">
        <ele>326.99</ele>
        <time>2015-11-14T13:44:52Z</time>
      </trkpt>
      <trkpt lat="43.45714" lon="6.90348">
        <ele>329.87</ele>
        <time>2015-11-14T13:45:06Z</time>
      </trkpt>
      <trkpt lat="43.45713" lon="6.90345">
        <ele>330.35</ele>
        <time>2015-11-14T13:45:09Z</time>
      </trkpt>
      <trkpt lat="43.45704" lon="6.90329">
        <ele>333.71</ele>
        <time>2015-11-14T13:45:24Z</time>
      </trkpt>
      <trkpt lat="43.457" lon="6.90319">
        <ele>335.16</ele>
        <time>2015-11-14T13:45:33Z</time>
      </trkpt>
      <trkpt lat="43.45695" lon="6.9031">
        <ele>337.08</ele>
        <time>2015-11-14T13:45:43Z</time>
      </trkpt>
      <trkpt lat="43.45688" lon="6.90295">
        <ele>339.96</ele>
        <time>2015-11-14T13:45:58Z</time>
      </trkpt>
      <trkpt lat="43.45684" lon="6.90282">
        <ele>342.85</ele>
        <time>2015-11-14T13:46:12Z</time>
      </trkpt>
      <trkpt lat="43.45679" lon="6.90288">
        <ele>344.29</ele>
        <time>2015-11-14T13:46:23Z</time>
      </trkpt>
      <trkpt lat="43.45678" lon="6.90293">
        <ele>345.25</ele>
        <time>2015-11-14T13:46:27Z</time>
      </trkpt>
      <trkpt lat="43.45677" lon="6.90296">
        <ele>345.73</ele>
        <time>2015-11-14T13:46:29Z</time>
      </trkpt>
      <trkpt lat="43.45675" lon="6.90303">
        <ele>346.69</ele>
        <time>2015-11-14T13:46:34Z</time>
      </trkpt>
      <trkpt lat="43.45673" lon="6.9032">
        <ele>349.1</ele>
        <time>2015-11-14T13:46:47Z</time>
      </trkpt>
      <trkpt lat="43.4567" lon="6.90335">
        <ele>351.98</ele>
        <time>2015-11-14T13:47:00Z</time>
      </trkpt>
      <trkpt lat="43.45666" lon="6.90349">
        <ele>354.38</ele>
        <time>2015-11-14T13:47:13Z</time>
      </trkpt>
      <trkpt lat="43.45662" lon="6.90366">
        <ele>357.27</ele>
        <time>2015-11-14T13:47:28Z</time>
      </trkpt>
      <trkpt lat="43.45659" lon="6.90374">
        <ele>358.71</ele>
        <time>2015-11-14T13:47:36Z</time>
      </trkpt>
      <trkpt lat="43.45657" lon="6.90376">
        <ele>359.19</ele>
        <time>2015-11-14T13:47:38Z</time>
      </trkpt>
      <trkpt lat="43.45651" lon="6.90393">
        <ele>362.07</ele>
        <time>2015-11-14T13:47:52Z</time>
      </trkpt>
      <trkpt lat="43.45646" lon="6.90409">
        <ele>364.96</ele>
        <time>2015-11-14T13:48:06Z</time>
      </trkpt>
      <trkpt lat="43.45642" lon="6.90423">
        <ele>366.88</ele>
        <time>2015-11-14T13:48:17Z</time>
      </trkpt>
      <trkpt lat="43.45642" lon="6.90425">
        <ele>367.36</ele>
        <time>2015-11-14T13:48:19Z</time>
      </trkpt>
      <trkpt lat="43.45633" lon="6.90445">
        <ele>368.8</ele>
        <time>2015-11-14T13:48:34Z</time>
      </trkpt>
      <trkpt lat="43.45625" lon="6.90461">
        <ele>371.69</ele>
        <time>2015-11-14T13:48:49Z</time>
      </trkpt>
      <trkpt lat="43.45624" lon="6.90464">
        <ele>372.17</ele>
        <time>2015-11-14T13:48:52Z</time>
      </trkpt>
      <trkpt lat="43.45624" lon="6.90466">
        <ele>373.13</ele>
        <time>2015-11-14T13:48:54Z</time>
      </trkpt>
      <trkpt lat="43.45618" lon="6.90482">
        <ele>375.53</ele>
        <time>2015-11-14T13:49:08Z</time>
      </trkpt>
      <trkpt lat="43.45612" lon="6.90497">
        <ele>377.94</ele>
        <time>2015-11-14T13:49:22Z</time>
      </trkpt>
      <trkpt lat="43.4561" lon="6.90502">
        <ele>379.38</ele>
        <time>2015-11-14T13:49:28Z</time>
      </trkpt>
      <trkpt lat="43.45605" lon="6.90514">
        <ele>382.26</ele>
        <time>2015-11-14T13:49:41Z</time>
      </trkpt>
      <trkpt lat="43.45601" lon="6.90528">
        <ele>384.66</ele>
        <time>2015-11-14T13:49:55Z</time>
      </trkpt>
      <trkpt lat="43.45596" lon="6.90543">
        <ele>387.55</ele>
        <time>2015-11-14T13:50:08Z</time>
      </trkpt>
      <trkpt lat="43.45594" lon="6.90557">
        <ele>388.99</ele>
        <time>2015-11-14T13:50:18Z</time>
      </trkpt>
      <trkpt lat="43.45593" lon="6.90563">
        <ele>389.95</ele>
        <time>2015-11-14T13:50:23Z</time>
      </trkpt>
      <trkpt lat="43.45592" lon="6.9058">
        <ele>392.84</ele>
        <time>2015-11-14T13:50:37Z</time>
      </trkpt>
      <trkpt lat="43.45592" lon="6.90593">
        <ele>395.24</ele>
        <time>2015-11-14T13:50:49Z</time>
      </trkpt>
      <trkpt lat="43.45591" lon="6.90601">
        <ele>396.2</ele>
        <time>2015-11-14T13:50:55Z</time>
      </trkpt>
      <trkpt lat="43.45589" lon="6.90618">
        <ele>398.6</ele>
        <time>2015-11-14T13:51:09Z</time>
      </trkpt>
      <trkpt lat="43.45587" lon="6.90635">
        <ele>401.97</ele>
        <time>2015-11-14T13:51:23Z</time>
      </trkpt>
      <trkpt lat="43.45583" lon="6.90644">
        <ele>403.89</ele>
        <time>2015-11-14T13:51:35Z</time>
      </trkpt>
      <trkpt lat="43.45581" lon="6.90656">
        <ele>406.29</ele>
        <time>2015-11-14T13:51:46Z</time>
      </trkpt>
      <trkpt lat="43.45577" lon="6.90663">
        <ele>408.22</ele>
        <time>2015-11-14T13:51:56Z</time>
      </trkpt>
      <trkpt lat="43.45574" lon="6.90677">
        <ele>411.1</ele>
        <time>2015-11-14T13:52:09Z</time>
      </trkpt>
      <trkpt lat="43.45569" lon="6.90689">
        <ele>413.5</ele>
        <time>2015-11-14T13:52:21Z</time>
      </trkpt>
      <trkpt lat="43.45563" lon="6.90694">
        <ele>415.43</ele>
        <time>2015-11-14T13:52:30Z</time>
      </trkpt>
      <trkpt lat="43.4556" lon="6.90692">
        <ele>415.91</ele>
        <time>2015-11-14T13:52:34Z</time>
      </trkpt>
      <trkpt lat="43.45554" lon="6.90688">
        <ele>417.35</ele>
        <time>2015-11-14T13:52:42Z</time>
      </trkpt>
      <trkpt lat="43.45552" lon="6.90689">
        <ele>417.83</ele>
        <time>2015-11-14T13:52:45Z</time>
      </trkpt>
      <trkpt lat="43.45537" lon="6.90687">
        <ele>419.75</ele>
        <time>2015-11-14T13:53:00Z</time>
      </trkpt>
      <trkpt lat="43.45534" lon="6.90684">
        <ele>420.71</ele>
        <time>2015-11-14T13:53:07Z</time>
      </trkpt>
      <trkpt lat="43.45529" lon="6.90684">
        <ele>421.68</ele>
        <time>2015-11-14T13:53:12Z</time>
      </trkpt>
      <trkpt lat="43.4552" lon="6.90682">
        <ele>423.12</ele>
        <time>2015-11-14T13:53:21Z</time>
      </trkpt>
      <trkpt lat="43.45518" lon="6.90681">
        <ele>423.12</ele>
        <time>2015-11-14T13:53:23Z</time>
      </trkpt>
      <trkpt lat="43.45506" lon="6.90678">
        <ele>426</ele>
        <time>2015-11-14T13:53:37Z</time>
      </trkpt>
      <trkpt lat="43.45494" lon="6.90675">
        <ele>427.92</ele>
        <time>2015-11-14T13:53:50Z</time>
      </trkpt>
      <trkpt lat="43.45474" lon="6.90671">
        <ele>430.33</ele>
        <time>2015-11-14T13:54:08Z</time>
      </trkpt>
      <trkpt lat="43.45468" lon="6.90669">
        <ele>431.29</ele>
        <time>2015-11-14T13:54:14Z</time>
      </trkpt>
      <trkpt lat="43.45464" lon="6.90664">
        <ele>432.25</ele>
        <time>2015-11-14T13:54:20Z</time>
      </trkpt>
      <trkpt lat="43.45459" lon="6.90661">
        <ele>433.21</ele>
        <time>2015-11-14T13:54:25Z</time>
      </trkpt>
      <trkpt lat="43.45446" lon="6.90646">
        <ele>435.61</ele>
        <time>2015-11-14T13:54:42Z</time>
      </trkpt>
      <trkpt lat="43.45442" lon="6.90643">
        <ele>436.1</ele>
        <time>2015-11-14T13:54:46Z</time>
      </trkpt>
      <trkpt lat="43.45435" lon="6.90636">
        <ele>438.02</ele>
        <time>2015-11-14T13:54:55Z</time>
      </trkpt>
      <trkpt lat="43.45434" lon="6.90629">
        <ele>438.5</ele>
        <time>2015-11-14T13:55:07Z</time>
      </trkpt>
      <trkpt lat="43.45434" lon="6.90628">
        <ele>438.5</ele>
        <time>2015-11-14T13:55:08Z</time>
      </trkpt>
      <trkpt lat="43.4544" lon="6.90626">
        <ele>439.46</ele>
        <time>2015-11-14T13:55:16Z</time>
      </trkpt>
      <trkpt lat="43.45446" lon="6.90625">
        <ele>442.34</ele>
        <time>2015-11-14T13:55:26Z</time>
      </trkpt>
      <trkpt lat="43.45455" lon="6.90622">
        <ele>445.23</ele>
        <time>2015-11-14T13:55:40Z</time>
      </trkpt>
      <trkpt lat="43.45457" lon="6.9062">
        <ele>445.23</ele>
        <time>2015-11-14T13:55:57Z</time>
      </trkpt>
      <trkpt lat="43.45457" lon="6.90619">
        <ele>445.23</ele>
        <time>2015-11-14T13:55:59Z</time>
      </trkpt>
      <trkpt lat="43.45465" lon="6.90614">
        <ele>448.59</ele>
        <time>2015-11-14T13:56:11Z</time>
      </trkpt>
      <trkpt lat="43.45474" lon="6.90609">
        <ele>451.48</ele>
        <time>2015-11-14T13:56:23Z</time>
      </trkpt>
      <trkpt lat="43.45483" lon="6.90609">
        <ele>453.88</ele>
        <time>2015-11-14T13:56:35Z</time>
      </trkpt>
      <trkpt lat="43.45489" lon="6.90608">
        <ele>456.76</ele>
        <time>2015-11-14T13:56:48Z</time>
      </trkpt>
      <trkpt lat="43.45494" lon="6.90612">
        <ele>458.69</ele>
        <time>2015-11-14T13:57:00Z</time>
      </trkpt>
      <trkpt lat="43.45494" lon="6.90612">
        <ele>457.24</ele>
        <time>2015-11-14T13:57:09Z</time>
      </trkpt>
      <trkpt lat="43.45494" lon="6.90612">
        <ele>457.24</ele>
        <time>2015-11-14T13:57:10Z</time>
      </trkpt>
      <trkpt lat="43.45493" lon="6.90612">
        <ele>458.21</ele>
        <time>2015-11-14T13:57:44Z</time>
      </trkpt>
      <trkpt lat="43.45494" lon="6.90612">
        <ele>458.21</ele>
        <time>2015-11-14T13:58:19Z</time>
      </trkpt>
      <trkpt lat="43.45494" lon="6.90613">
        <ele>457.72</ele>
        <time>2015-11-14T13:59:05Z</time>
      </trkpt>
      <trkpt lat="43.45493" lon="6.90613">
        <ele>457.72</ele>
        <time>2015-11-14T13:59:46Z</time>
      </trkpt>
      <trkpt lat="43.45494" lon="6.90613">
        <ele>457.72</ele>
        <time>2015-11-14T14:00:29Z</time>
      </trkpt>
      <trkpt lat="43.45494" lon="6.90613">
        <ele>457.72</ele>
        <time>2015-11-14T14:01:19Z</time>
      </trkpt>
      <trkpt lat="43.45494" lon="6.90611">
        <ele>457.24</ele>
        <time>2015-11-14T14:01:52Z</time>
      </trkpt>
      <trkpt lat="43.45493" lon="6.90613">
        <ele>457.24</ele>
        <time>2015-11-14T14:02:27Z</time>
      </trkpt>
      <trkpt lat="43.45493" lon="6.90613">
        <ele>457.24</ele>
        <time>2015-11-14T14:02:52Z</time>
      </trkpt>
      <trkpt lat="43.45493" lon="6.90613">
        <ele>457.24</ele>
        <time>2015-11-14T14:03:10Z</time>
      </trkpt>
      <trkpt lat="43.45493" lon="6.90615">
        <ele>457.24</ele>
        <time>2015-11-14T14:03:42Z</time>
      </trkpt>
      <trkpt lat="43.45493" lon="6.90615">
        <ele>457.24</ele>
        <time>2015-11-14T14:04:12Z</time>
      </trkpt>
      <trkpt lat="43.45493" lon="6.90613">
        <ele>457.24</ele>
        <time>2015-11-14T14:04:40Z</time>
      </trkpt>
      <trkpt lat="43.45493" lon="6.90613">
        <ele>456.76</ele>
        <time>2015-11-14T14:05:12Z</time>
      </trkpt>
      <trkpt lat="43.45493" lon="6.90613">
        <ele>456.76</ele>
        <time>2015-11-14T14:05:34Z</time>
      </trkpt>
      <trkpt lat="43.45493" lon="6.90614">
        <ele>456.76</ele>
        <time>2015-11-14T14:06:01Z</time>
      </trkpt>
      <trkpt lat="43.45493" lon="6.90614">
        <ele>456.76</ele>
        <time>2015-11-14T14:06:27Z</time>
      </trkpt>
      <trkpt lat="43.45493" lon="6.90614">
        <ele>456.76</ele>
        <time>2015-11-14T14:06:54Z</time>
      </trkpt>
      <trkpt lat="43.45493" lon="6.90613">
        <ele>456.76</ele>
        <time>2015-11-14T14:07:28Z</time>
      </trkpt>
      <trkpt lat="43.45493" lon="6.90614">
        <ele>456.76</ele>
        <time>2015-11-14T14:07:52Z</time>
      </trkpt>
      <trkpt lat="43.45492" lon="6.90614">
        <ele>456.76</ele>
        <time>2015-11-14T14:08:15Z</time>
      </trkpt>
      <trkpt lat="43.45493" lon="6.90613">
        <ele>456.28</ele>
        <time>2015-11-14T14:08:46Z</time>
      </trkpt>
      <trkpt lat="43.45493" lon="6.90613">
        <ele>456.28</ele>
        <time>2015-11-14T14:09:15Z</time>
      </trkpt>
      <trkpt lat="43.45493" lon="6.90613">
        <ele>456.28</ele>
        <time>2015-11-14T14:09:43Z</time>
      </trkpt>
      <trkpt lat="43.45493" lon="6.90613">
        <ele>456.28</ele>
        <time>2015-11-14T14:10:10Z</time>
      </trkpt>
      <trkpt lat="43.45493" lon="6.90613">
        <ele>456.28</ele>
        <time>2015-11-14T14:10:40Z</time>
      </trkpt>
      <trkpt lat="43.45493" lon="6.90613">
        <ele>456.28</ele>
        <time>2015-11-14T14:11:13Z</time>
      </trkpt>
      <trkpt lat="43.45493" lon="6.90613">
        <ele>456.76</ele>
        <time>2015-11-14T14:11:43Z</time>
      </trkpt>
      <trkpt lat="43.45495" lon="6.90604">
        <ele>457.24</ele>
        <time>2015-11-14T14:11:53Z</time>
      </trkpt>
      <trkpt lat="43.45496" lon="6.90603">
        <ele>457.24</ele>
        <time>2015-11-14T14:11:55Z</time>
      </trkpt>
      <trkpt lat="43.45496" lon="6.906">
        <ele>455.8</ele>
        <time>2015-11-14T14:11:57Z</time>
      </trkpt>
      <trkpt lat="43.45494" lon="6.90598">
        <ele>455.8</ele>
        <time>2015-11-14T14:12:08Z</time>
      </trkpt>
      <trkpt lat="43.45495" lon="6.90598">
        <ele>455.8</ele>
        <time>2015-11-14T14:12:42Z</time>
      </trkpt>
      <trkpt lat="43.45495" lon="6.90598">
        <ele>455.8</ele>
        <time>2015-11-14T14:13:14Z</time>
      </trkpt>
      <trkpt lat="43.45494" lon="6.90598">
        <ele>455.8</ele>
        <time>2015-11-14T14:13:44Z</time>
      </trkpt>
      <trkpt lat="43.45495" lon="6.90599">
        <ele>455.8</ele>
        <time>2015-11-14T14:14:23Z</time>
      </trkpt>
      <trkpt lat="43.45495" lon="6.90599">
        <ele>455.32</ele>
        <time>2015-11-14T14:15:08Z</time>
      </trkpt>
      <trkpt lat="43.45495" lon="6.90598">
        <ele>456.76</ele>
        <time>2015-11-14T14:15:39Z</time>
      </trkpt>
      <trkpt lat="43.45491" lon="6.90604">
        <ele>457.24</ele>
        <time>2015-11-14T14:15:52Z</time>
      </trkpt>
      <trkpt lat="43.45489" lon="6.90602">
        <ele>455.8</ele>
        <time>2015-11-14T14:16:00Z</time>
      </trkpt>
      <trkpt lat="43.45483" lon="6.90605">
        <ele>453.88</ele>
        <time>2015-11-14T14:16:12Z</time>
      </trkpt>
      <trkpt lat="43.45477" lon="6.90605">
        <ele>451.48</ele>
        <time>2015-11-14T14:16:24Z</time>
      </trkpt>
      <trkpt lat="43.45475" lon="6.90607">
        <ele>451</ele>
        <time>2015-11-14T14:16:35Z</time>
      </trkpt>
      <trkpt lat="43.45473" lon="6.90607">
        <ele>451</ele>
        <time>2015-11-14T14:16:50Z</time>
      </trkpt>
      <trkpt lat="43.4547" lon="6.9061">
        <ele>450.52</ele>
        <time>2015-11-14T14:17:03Z</time>
      </trkpt>
      <trkpt lat="43.45468" lon="6.9061">
        <ele>449.55</ele>
        <time>2015-11-14T14:17:05Z</time>
      </trkpt>
      <trkpt lat="43.45464" lon="6.90612">
        <ele>449.07</ele>
        <time>2015-11-14T14:17:12Z</time>
      </trkpt>
      <trkpt lat="43.45457" lon="6.90615">
        <ele>445.71</ele>
        <time>2015-11-14T14:17:25Z</time>
      </trkpt>
      <trkpt lat="43.45448" lon="6.90622">
        <ele>443.31</ele>
        <time>2015-11-14T14:17:38Z</time>
      </trkpt>
      <trkpt lat="43.45441" lon="6.90623">
        <ele>440.42</ele>
        <time>2015-11-14T14:17:50Z</time>
      </trkpt>
      <trkpt lat="43.45438" lon="6.90624">
        <ele>439.94</ele>
        <time>2015-11-14T14:17:54Z</time>
      </trkpt>
      <trkpt lat="43.45435" lon="6.90626">
        <ele>438.98</ele>
        <time>2015-11-14T14:17:58Z</time>
      </trkpt>
      <trkpt lat="43.45428" lon="6.90627">
        <ele>438.02</ele>
        <time>2015-11-14T14:18:12Z</time>
      </trkpt>
      <trkpt lat="43.45429" lon="6.90625">
        <ele>438.02</ele>
        <time>2015-11-14T14:18:19Z</time>
      </trkpt>
      <trkpt lat="43.45431" lon="6.90619">
        <ele>437.06</ele>
        <time>2015-11-14T14:18:24Z</time>
      </trkpt>
      <trkpt lat="43.45434" lon="6.90611">
        <ele>434.65</ele>
        <time>2015-11-14T14:18:33Z</time>
      </trkpt>
      <trkpt lat="43.45437" lon="6.90599">
        <ele>432.73</ele>
        <time>2015-11-14T14:18:44Z</time>
      </trkpt>
      <trkpt lat="43.45439" lon="6.90594">
        <ele>431.77</ele>
        <time>2015-11-14T14:18:49Z</time>
      </trkpt>
      <trkpt lat="43.45442" lon="6.90586">
        <ele>430.33</ele>
        <time>2015-11-14T14:18:55Z</time>
      </trkpt>
      <trkpt lat="43.45445" lon="6.90573">
        <ele>428.4</ele>
        <time>2015-11-14T14:19:04Z</time>
      </trkpt>
      <trkpt lat="43.45446" lon="6.9057">
        <ele>427.44</ele>
        <time>2015-11-14T14:19:06Z</time>
      </trkpt>
      <trkpt lat="43.45449" lon="6.90562">
        <ele>426.48</ele>
        <time>2015-11-14T14:19:11Z</time>
      </trkpt>
      <trkpt lat="43.45449" lon="6.90553">
        <ele>425.04</ele>
        <time>2015-11-14T14:19:17Z</time>
      </trkpt>
      <trkpt lat="43.45453" lon="6.90543">
        <ele>423.12</ele>
        <time>2015-11-14T14:19:24Z</time>
      </trkpt>
      <trkpt lat="43.45456" lon="6.90531">
        <ele>421.19</ele>
        <time>2015-11-14T14:19:31Z</time>
      </trkpt>
      <trkpt lat="43.45463" lon="6.90513">
        <ele>418.79</ele>
        <time>2015-11-14T14:19:44Z</time>
      </trkpt>
      <trkpt lat="43.45465" lon="6.90496">
        <ele>415.91</ele>
        <time>2015-11-14T14:19:58Z</time>
      </trkpt>
      <trkpt lat="43.45465" lon="6.90493">
        <ele>415.43</ele>
        <time>2015-11-14T14:20:01Z</time>
      </trkpt>
      <trkpt lat="43.45466" lon="6.90489">
        <ele>414.95</ele>
        <time>2015-11-14T14:20:04Z</time>
      </trkpt>
      <trkpt lat="43.45467" lon="6.9047">
        <ele>412.06</ele>
        <time>2015-11-14T14:20:16Z</time>
      </trkpt>
      <trkpt lat="43.4547" lon="6.9045">
        <ele>409.18</ele>
        <time>2015-11-14T14:20:28Z</time>
      </trkpt>
      <trkpt lat="43.45471" lon="6.90438">
        <ele>407.26</ele>
        <time>2015-11-14T14:20:35Z</time>
      </trkpt>
      <trkpt lat="43.45471" lon="6.90435">
        <ele>406.77</ele>
        <time>2015-11-14T14:20:37Z</time>
      </trkpt>
      <trkpt lat="43.45472" lon="6.90425">
        <ele>405.33</ele>
        <time>2015-11-14T14:20:43Z</time>
      </trkpt>
      <trkpt lat="43.45476" lon="6.90408">
        <ele>402.45</ele>
        <time>2015-11-14T14:20:54Z</time>
      </trkpt>
      <trkpt lat="43.45482" lon="6.90383">
        <ele>399.08</ele>
        <time>2015-11-14T14:21:07Z</time>
      </trkpt>
      <trkpt lat="43.45482" lon="6.90377">
        <ele>398.12</ele>
        <time>2015-11-14T14:21:10Z</time>
      </trkpt>
      <trkpt lat="43.45481" lon="6.90352">
        <ele>394.28</ele>
        <time>2015-11-14T14:21:23Z</time>
      </trkpt>
      <trkpt lat="43.45484" lon="6.90327">
        <ele>390.91</ele>
        <time>2015-11-14T14:21:36Z</time>
      </trkpt>
      <trkpt lat="43.45488" lon="6.90316">
        <ele>388.99</ele>
        <time>2015-11-14T14:21:44Z</time>
      </trkpt>
      <trkpt lat="43.45502" lon="6.90305">
        <ele>385.15</ele>
        <time>2015-11-14T14:21:57Z</time>
      </trkpt>
      <trkpt lat="43.45503" lon="6.90302">
        <ele>384.66</ele>
        <time>2015-11-14T14:21:59Z</time>
      </trkpt>
      <trkpt lat="43.45507" lon="6.90299">
        <ele>384.18</ele>
        <time>2015-11-14T14:22:02Z</time>
      </trkpt>
      <trkpt lat="43.45512" lon="6.90298">
        <ele>382.74</ele>
        <time>2015-11-14T14:22:07Z</time>
      </trkpt>
      <trkpt lat="43.45512" lon="6.90294">
        <ele>381.78</ele>
        <time>2015-11-14T14:22:09Z</time>
      </trkpt>
      <trkpt lat="43.45506" lon="6.90289">
        <ele>380.82</ele>
        <time>2015-11-14T14:22:15Z</time>
      </trkpt>
      <trkpt lat="43.45504" lon="6.90287">
        <ele>380.34</ele>
        <time>2015-11-14T14:22:17Z</time>
      </trkpt>
      <trkpt lat="43.455" lon="6.90283">
        <ele>379.38</ele>
        <time>2015-11-14T14:22:21Z</time>
      </trkpt>
      <trkpt lat="43.45497" lon="6.90279">
        <ele>377.94</ele>
        <time>2015-11-14T14:22:25Z</time>
      </trkpt>
      <trkpt lat="43.45488" lon="6.90272">
        <ele>376.01</ele>
        <time>2015-11-14T14:22:33Z</time>
      </trkpt>
      <trkpt lat="43.45472" lon="6.90261">
        <ele>373.13</ele>
        <time>2015-11-14T14:22:45Z</time>
      </trkpt>
      <trkpt lat="43.45462" lon="6.90251">
        <ele>370.73</ele>
        <time>2015-11-14T14:22:53Z</time>
      </trkpt>
      <trkpt lat="43.45451" lon="6.90237">
        <ele>369.28</ele>
        <time>2015-11-14T14:23:09Z</time>
      </trkpt>
      <trkpt lat="43.45442" lon="6.90224">
        <ele>367.84</ele>
        <time>2015-11-14T14:23:24Z</time>
      </trkpt>
      <trkpt lat="43.45434" lon="6.90226">
        <ele>367.84</ele>
        <time>2015-11-14T14:23:38Z</time>
      </trkpt>
      <trkpt lat="43.45434" lon="6.90226">
        <ele>367.84</ele>
        <time>2015-11-14T14:23:56Z</time>
      </trkpt>
      <trkpt lat="43.45435" lon="6.90221">
        <ele>367.84</ele>
        <time>2015-11-14T14:24:17Z</time>
      </trkpt>
      <trkpt lat="43.45436" lon="6.90222">
        <ele>367.36</ele>
        <time>2015-11-14T14:24:43Z</time>
      </trkpt>
      <trkpt lat="43.45437" lon="6.90221">
        <ele>367.36</ele>
        <time>2015-11-14T14:25:08Z</time>
      </trkpt>
      <trkpt lat="43.45436" lon="6.90223">
        <ele>366.88</ele>
        <time>2015-11-14T14:25:31Z</time>
      </trkpt>
      <trkpt lat="43.45436" lon="6.90226">
        <ele>366.88</ele>
        <time>2015-11-14T14:25:51Z</time>
      </trkpt>
      <trkpt lat="43.45439" lon="6.90227">
        <ele>366.88</ele>
        <time>2015-11-14T14:26:20Z</time>
      </trkpt>
      <trkpt lat="43.45437" lon="6.90227">
        <ele>366.88</ele>
        <time>2015-11-14T14:26:41Z</time>
      </trkpt>
      <trkpt lat="43.45437" lon="6.90225">
        <ele>366.88</ele>
        <time>2015-11-14T14:27:06Z</time>
      </trkpt>
      <trkpt lat="43.45436" lon="6.90225">
        <ele>366.88</ele>
        <time>2015-11-14T14:27:23Z</time>
      </trkpt>
      <trkpt lat="43.45438" lon="6.90224">
        <ele>366.88</ele>
        <time>2015-11-14T14:27:45Z</time>
      </trkpt>
      <trkpt lat="43.45447" lon="6.90223">
        <ele>364.48</ele>
        <time>2015-11-14T14:28:00Z</time>
      </trkpt>
      <trkpt lat="43.45455" lon="6.90223">
        <ele>362.55</ele>
        <time>2015-11-14T14:28:10Z</time>
      </trkpt>
      <trkpt lat="43.45463" lon="6.90225">
        <ele>360.15</ele>
        <time>2015-11-14T14:28:20Z</time>
      </trkpt>
      <trkpt lat="43.45477" lon="6.90222">
        <ele>357.75</ele>
        <time>2015-11-14T14:28:35Z</time>
      </trkpt>
      <trkpt lat="43.45481" lon="6.90222">
        <ele>356.31</ele>
        <time>2015-11-14T14:28:40Z</time>
      </trkpt>
      <trkpt lat="43.45484" lon="6.90222">
        <ele>355.83</ele>
        <time>2015-11-14T14:28:43Z</time>
      </trkpt>
      <trkpt lat="43.45484" lon="6.90213">
        <ele>353.9</ele>
        <time>2015-11-14T14:28:51Z</time>
      </trkpt>
      <trkpt lat="43.4548" lon="6.90201">
        <ele>351.5</ele>
        <time>2015-11-14T14:29:01Z</time>
      </trkpt>
      <trkpt lat="43.45476" lon="6.90191">
        <ele>349.58</ele>
        <time>2015-11-14T14:29:09Z</time>
      </trkpt>
      <trkpt lat="43.45471" lon="6.90173">
        <ele>346.69</ele>
        <time>2015-11-14T14:29:23Z</time>
      </trkpt>
      <trkpt lat="43.45471" lon="6.90168">
        <ele>345.73</ele>
        <time>2015-11-14T14:29:27Z</time>
      </trkpt>
      <trkpt lat="43.4547" lon="6.9016">
        <ele>344.77</ele>
        <time>2015-11-14T14:29:33Z</time>
      </trkpt>
      <trkpt lat="43.45467" lon="6.90152">
        <ele>343.81</ele>
        <time>2015-11-14T14:29:38Z</time>
      </trkpt>
      <trkpt lat="43.45464" lon="6.90143">
        <ele>341.89</ele>
        <time>2015-11-14T14:29:45Z</time>
      </trkpt>
      <trkpt lat="43.45463" lon="6.90129">
        <ele>339.96</ele>
        <time>2015-11-14T14:29:55Z</time>
      </trkpt>
      <trkpt lat="43.45464" lon="6.90109">
        <ele>336.6</ele>
        <time>2015-11-14T14:30:09Z</time>
      </trkpt>
      <trkpt lat="43.45466" lon="6.90105">
        <ele>336.12</ele>
        <time>2015-11-14T14:30:13Z</time>
      </trkpt>
      <trkpt lat="43.45468" lon="6.901">
        <ele>335.16</ele>
        <time>2015-11-14T14:30:17Z</time>
      </trkpt>
      <trkpt lat="43.45465" lon="6.90084">
        <ele>332.75</ele>
        <time>2015-11-14T14:30:29Z</time>
      </trkpt>
      <trkpt lat="43.45458" lon="6.90067">
        <ele>330.83</ele>
        <time>2015-11-14T14:30:38Z</time>
      </trkpt>
      <trkpt lat="43.45455" lon="6.90058">
        <ele>328.43</ele>
        <time>2015-11-14T14:30:46Z</time>
      </trkpt>
      <trkpt lat="43.45455" lon="6.90055">
        <ele>328.43</ele>
        <time>2015-11-14T14:30:48Z</time>
      </trkpt>
      <trkpt lat="43.45454" lon="6.90049">
        <ele>327.95</ele>
        <time>2015-11-14T14:30:52Z</time>
      </trkpt>
      <trkpt lat="43.45448" lon="6.90024">
        <ele>326.5</ele>
        <time>2015-11-14T14:31:07Z</time>
      </trkpt>
      <trkpt lat="43.45447" lon="6.9002">
        <ele>326.02</ele>
        <time>2015-11-14T14:31:10Z</time>
      </trkpt>
      <trkpt lat="43.45446" lon="6.90008">
        <ele>324.58</ele>
        <time>2015-11-14T14:31:17Z</time>
      </trkpt>
      <trkpt lat="43.45443" lon="6.89988">
        <ele>323.14</ele>
        <time>2015-11-14T14:31:29Z</time>
      </trkpt>
      <trkpt lat="43.45443" lon="6.89975">
        <ele>322.18</ele>
        <time>2015-11-14T14:31:37Z</time>
      </trkpt>
      <trkpt lat="43.45441" lon="6.89967">
        <ele>321.22</ele>
        <time>2015-11-14T14:31:43Z</time>
      </trkpt>
      <trkpt lat="43.45439" lon="6.8994">
        <ele>318.81</ele>
        <time>2015-11-14T14:31:59Z</time>
      </trkpt>
      <trkpt lat="43.45439" lon="6.89939">
        <ele>318.81</ele>
        <time>2015-11-14T14:32:00Z</time>
      </trkpt>
      <trkpt lat="43.45436" lon="6.89928">
        <ele>317.85</ele>
        <time>2015-11-14T14:32:06Z</time>
      </trkpt>
      <trkpt lat="43.45429" lon="6.89908">
        <ele>316.41</ele>
        <time>2015-11-14T14:32:19Z</time>
      </trkpt>
      <trkpt lat="43.45429" lon="6.89895">
        <ele>314.97</ele>
        <time>2015-11-14T14:32:29Z</time>
      </trkpt>
      <trkpt lat="43.4543" lon="6.89885">
        <ele>314.49</ele>
        <time>2015-11-14T14:32:35Z</time>
      </trkpt>
      <trkpt lat="43.45429" lon="6.89868">
        <ele>312.57</ele>
        <time>2015-11-14T14:32:45Z</time>
      </trkpt>
      <trkpt lat="43.45433" lon="6.89849">
        <ele>310.64</ele>
        <time>2015-11-14T14:32:58Z</time>
      </trkpt>
      <trkpt lat="43.45435" lon="6.89836">
        <ele>310.16</ele>
        <time>2015-11-14T14:33:06Z</time>
      </trkpt>
      <trkpt lat="43.45435" lon="6.89831">
        <ele>309.2</ele>
        <time>2015-11-14T14:33:09Z</time>
      </trkpt>
      <trkpt lat="43.45439" lon="6.89817">
        <ele>307.28</ele>
        <time>2015-11-14T14:33:19Z</time>
      </trkpt>
      <trkpt lat="43.45451" lon="6.89795">
        <ele>305.36</ele>
        <time>2015-11-14T14:33:33Z</time>
      </trkpt>
      <trkpt lat="43.45456" lon="6.89786">
        <ele>304.88</ele>
        <time>2015-11-14T14:33:39Z</time>
      </trkpt>
      <trkpt lat="43.45464" lon="6.89774">
        <ele>303.91</ele>
        <time>2015-11-14T14:33:47Z</time>
      </trkpt>
      <trkpt lat="43.45472" lon="6.89757">
        <ele>301.51</ele>
        <time>2015-11-14T14:33:59Z</time>
      </trkpt>
      <trkpt lat="43.45488" lon="6.89732">
        <ele>299.11</ele>
        <time>2015-11-14T14:34:12Z</time>
      </trkpt>
      <trkpt lat="43.45496" lon="6.89702">
        <ele>295.74</ele>
        <time>2015-11-14T14:34:21Z</time>
      </trkpt>
      <trkpt lat="43.455" lon="6.89672">
        <ele>292.86</ele>
        <time>2015-11-14T14:34:35Z</time>
      </trkpt>
      <trkpt lat="43.45498" lon="6.89644">
        <ele>289.97</ele>
        <time>2015-11-14T14:34:50Z</time>
      </trkpt>
      <trkpt lat="43.45489" lon="6.8961">
        <ele>287.57</ele>
        <time>2015-11-14T14:35:04Z</time>
      </trkpt>
      <trkpt lat="43.45471" lon="6.8959">
        <ele>284.21</ele>
        <time>2015-11-14T14:35:17Z</time>
      </trkpt>
      <trkpt lat="43.45463" lon="6.89586">
        <ele>283.25</ele>
        <time>2015-11-14T14:35:22Z</time>
      </trkpt>
      <trkpt lat="43.45438" lon="6.89579">
        <ele>280.36</ele>
        <time>2015-11-14T14:35:38Z</time>
      </trkpt>
      <trkpt lat="43.45431" lon="6.89577">
        <ele>279.88</ele>
        <time>2015-11-14T14:35:43Z</time>
      </trkpt>
      <trkpt lat="43.45412" lon="6.89571">
        <ele>277</ele>
        <time>2015-11-14T14:35:57Z</time>
      </trkpt>
      <trkpt lat="43.45405" lon="6.89568">
        <ele>276.52</ele>
        <time>2015-11-14T14:36:02Z</time>
      </trkpt>
      <trkpt lat="43.45395" lon="6.89566">
        <ele>275.56</ele>
        <time>2015-11-14T14:36:09Z</time>
      </trkpt>
      <trkpt lat="43.45391" lon="6.89566">
        <ele>275.07</ele>
        <time>2015-11-14T14:36:12Z</time>
      </trkpt>
      <trkpt lat="43.4537" lon="6.89569">
        <ele>272.19</ele>
        <time>2015-11-14T14:36:28Z</time>
      </trkpt>
      <trkpt lat="43.45362" lon="6.89569">
        <ele>271.23</ele>
        <time>2015-11-14T14:36:33Z</time>
      </trkpt>
      <trkpt lat="43.45354" lon="6.89565">
        <ele>268.83</ele>
        <time>2015-11-14T14:36:41Z</time>
      </trkpt>
      <trkpt lat="43.45346" lon="6.89565">
        <ele>268.35</ele>
        <time>2015-11-14T14:36:47Z</time>
      </trkpt>
      <trkpt lat="43.45339" lon="6.89563">
        <ele>267.86</ele>
        <time>2015-11-14T14:36:52Z</time>
      </trkpt>
      <trkpt lat="43.45323" lon="6.89559">
        <ele>264.98</ele>
        <time>2015-11-14T14:37:04Z</time>
      </trkpt>
      <trkpt lat="43.45305" lon="6.89558">
        <ele>263.06</ele>
        <time>2015-11-14T14:37:18Z</time>
      </trkpt>
      <trkpt lat="43.45304" lon="6.89558">
        <ele>262.58</ele>
        <time>2015-11-14T14:37:31Z</time>
      </trkpt>
      <trkpt lat="43.45308" lon="6.89555">
        <ele>261.14</ele>
        <time>2015-11-14T14:37:47Z</time>
      </trkpt>
      <trkpt lat="43.4531" lon="6.89554">
        <ele>260.17</ele>
        <time>2015-11-14T14:37:51Z</time>
      </trkpt>
      <trkpt lat="43.45329" lon="6.89547">
        <ele>257.77</ele>
        <time>2015-11-14T14:38:07Z</time>
      </trkpt>
      <trkpt lat="43.45341" lon="6.89542">
        <ele>255.85</ele>
        <time>2015-11-14T14:38:17Z</time>
      </trkpt>
      <trkpt lat="43.45356" lon="6.89534">
        <ele>252.48</ele>
        <time>2015-11-14T14:38:32Z</time>
      </trkpt>
      <trkpt lat="43.45375" lon="6.89524">
        <ele>249.6</ele>
        <time>2015-11-14T14:38:48Z</time>
      </trkpt>
      <trkpt lat="43.45383" lon="6.89518">
        <ele>248.16</ele>
        <time>2015-11-14T14:38:54Z</time>
      </trkpt>
      <trkpt lat="43.45404" lon="6.89508">
        <ele>244.79</ele>
        <time>2015-11-14T14:39:10Z</time>
      </trkpt>
      <trkpt lat="43.45409" lon="6.89507">
        <ele>244.31</ele>
        <time>2015-11-14T14:39:15Z</time>
      </trkpt>
      <trkpt lat="43.45415" lon="6.89505">
        <ele>243.35</ele>
        <time>2015-11-14T14:39:20Z</time>
      </trkpt>
      <trkpt lat="43.45431" lon="6.89505">
        <ele>240.95</ele>
        <time>2015-11-14T14:39:33Z</time>
      </trkpt>
      <trkpt lat="43.45441" lon="6.89501">
        <ele>239.02</ele>
        <time>2015-11-14T14:39:42Z</time>
      </trkpt>
      <trkpt lat="43.4546" lon="6.89496">
        <ele>236.14</ele>
        <time>2015-11-14T14:39:57Z</time>
      </trkpt>
      <trkpt lat="43.45478" lon="6.89488">
        <ele>233.26</ele>
        <time>2015-11-14T14:40:10Z</time>
      </trkpt>
      <trkpt lat="43.45498" lon="6.89479">
        <ele>230.37</ele>
        <time>2015-11-14T14:40:25Z</time>
      </trkpt>
      <trkpt lat="43.45517" lon="6.89474">
        <ele>227.01</ele>
        <time>2015-11-14T14:40:39Z</time>
      </trkpt>
      <trkpt lat="43.45518" lon="6.89473">
        <ele>227.01</ele>
        <time>2015-11-14T14:40:58Z</time>
      </trkpt>
      <trkpt lat="43.45519" lon="6.89474">
        <ele>227.01</ele>
        <time>2015-11-14T14:41:09Z</time>
      </trkpt>
      <trkpt lat="43.45531" lon="6.89474">
        <ele>225.09</ele>
        <time>2015-11-14T14:41:19Z</time>
      </trkpt>
      <trkpt lat="43.45545" lon="6.89476">
        <ele>222.68</ele>
        <time>2015-11-14T14:41:29Z</time>
      </trkpt>
      <trkpt lat="43.45557" lon="6.89476">
        <ele>220.28</ele>
        <time>2015-11-14T14:41:39Z</time>
      </trkpt>
      <trkpt lat="43.45578" lon="6.8949">
        <ele>217.4</ele>
        <time>2015-11-14T14:41:56Z</time>
      </trkpt>
      <trkpt lat="43.45595" lon="6.89507">
        <ele>214.03</ele>
        <time>2015-11-14T14:42:11Z</time>
      </trkpt>
      <trkpt lat="43.456" lon="6.8951">
        <ele>213.55</ele>
        <time>2015-11-14T14:42:15Z</time>
      </trkpt>
      <trkpt lat="43.45614" lon="6.89527">
        <ele>210.19</ele>
        <time>2015-11-14T14:42:32Z</time>
      </trkpt>
      <trkpt lat="43.45627" lon="6.89542">
        <ele>208.26</ele>
        <time>2015-11-14T14:42:47Z</time>
      </trkpt>
      <trkpt lat="43.45639" lon="6.89559">
        <ele>205.38</ele>
        <time>2015-11-14T14:43:01Z</time>
      </trkpt>
      <trkpt lat="43.45649" lon="6.89574">
        <ele>203.46</ele>
        <time>2015-11-14T14:43:16Z</time>
      </trkpt>
      <trkpt lat="43.45651" lon="6.89582">
        <ele>202.01</ele>
        <time>2015-11-14T14:43:22Z</time>
      </trkpt>
      <trkpt lat="43.45655" lon="6.89606">
        <ele>199.61</ele>
        <time>2015-11-14T14:43:38Z</time>
      </trkpt>
      <trkpt lat="43.45655" lon="6.89628">
        <ele>197.69</ele>
        <time>2015-11-14T14:43:51Z</time>
      </trkpt>
      <trkpt lat="43.45656" lon="6.89635">
        <ele>197.21</ele>
        <time>2015-11-14T14:43:55Z</time>
      </trkpt>
      <trkpt lat="43.45656" lon="6.89653">
        <ele>195.28</ele>
        <time>2015-11-14T14:44:05Z</time>
      </trkpt>
      <trkpt lat="43.45657" lon="6.89656">
        <ele>195.28</ele>
        <time>2015-11-14T14:44:07Z</time>
      </trkpt>
      <trkpt lat="43.45656" lon="6.89674">
        <ele>193.84</ele>
        <time>2015-11-14T14:44:21Z</time>
      </trkpt>
      <trkpt lat="43.45656" lon="6.89694">
        <ele>192.4</ele>
        <time>2015-11-14T14:44:34Z</time>
      </trkpt>
      <trkpt lat="43.45655" lon="6.89709">
        <ele>190.96</ele>
        <time>2015-11-14T14:44:44Z</time>
      </trkpt>
      <trkpt lat="43.45654" lon="6.89729">
        <ele>188.56</ele>
        <time>2015-11-14T14:44:57Z</time>
      </trkpt>
      <trkpt lat="43.45649" lon="6.89744">
        <ele>187.11</ele>
        <time>2015-11-14T14:45:08Z</time>
      </trkpt>
      <trkpt lat="43.4565" lon="6.8975">
        <ele>187.11</ele>
        <time>2015-11-14T14:45:12Z</time>
      </trkpt>
      <trkpt lat="43.4565" lon="6.89753">
        <ele>186.63</ele>
        <time>2015-11-14T14:45:14Z</time>
      </trkpt>
      <trkpt lat="43.45649" lon="6.89774">
        <ele>184.23</ele>
        <time>2015-11-14T14:45:29Z</time>
      </trkpt>
      <trkpt lat="43.45646" lon="6.89787">
        <ele>183.75</ele>
        <time>2015-11-14T14:45:42Z</time>
      </trkpt>
      <trkpt lat="43.45641" lon="6.89798">
        <ele>184.71</ele>
        <time>2015-11-14T14:45:54Z</time>
      </trkpt>
      <trkpt lat="43.45646" lon="6.89808">
        <ele>185.19</ele>
        <time>2015-11-14T14:46:07Z</time>
      </trkpt>
      <trkpt lat="43.45649" lon="6.89815">
        <ele>185.19</ele>
        <time>2015-11-14T14:46:22Z</time>
      </trkpt>
      <trkpt lat="43.4565" lon="6.89815">
        <ele>185.19</ele>
        <time>2015-11-14T14:46:46Z</time>
      </trkpt>
      <trkpt lat="43.45654" lon="6.89817">
        <ele>185.19</ele>
        <time>2015-11-14T14:47:01Z</time>
      </trkpt>
      <trkpt lat="43.45653" lon="6.89823">
        <ele>186.15</ele>
        <time>2015-11-14T14:47:14Z</time>
      </trkpt>
      <trkpt lat="43.45651" lon="6.89825">
        <ele>186.15</ele>
        <time>2015-11-14T14:47:35Z</time>
      </trkpt>
      <trkpt lat="43.45648" lon="6.89823">
        <ele>186.15</ele>
        <time>2015-11-14T14:48:00Z</time>
      </trkpt>
      <trkpt lat="43.45644" lon="6.89825">
        <ele>188.08</ele>
        <time>2015-11-14T14:48:13Z</time>
      </trkpt>
      <trkpt lat="43.45641" lon="6.89825">
        <ele>188.08</ele>
        <time>2015-11-14T14:48:26Z</time>
      </trkpt>
      <trkpt lat="43.45639" lon="6.89829">
        <ele>188.08</ele>
        <time>2015-11-14T14:48:40Z</time>
      </trkpt>
      <trkpt lat="43.45642" lon="6.89834">
        <ele>188.08</ele>
        <time>2015-11-14T14:48:53Z</time>
      </trkpt>
      <trkpt lat="43.4564" lon="6.89837">
        <ele>188.08</ele>
        <time>2015-11-14T14:49:08Z</time>
      </trkpt>
      <trkpt lat="43.45641" lon="6.89836">
        <ele>188.08</ele>
        <time>2015-11-14T14:49:26Z</time>
      </trkpt>
      <trkpt lat="43.45642" lon="6.89836">
        <ele>187.59</ele>
        <time>2015-11-14T14:49:43Z</time>
      </trkpt>
      <trkpt lat="43.45647" lon="6.89833">
        <ele>187.59</ele>
        <time>2015-11-14T14:50:08Z</time>
      </trkpt>
      <trkpt lat="43.45652" lon="6.89842">
        <ele>188.56</ele>
        <time>2015-11-14T14:50:22Z</time>
      </trkpt>
      <trkpt lat="43.45656" lon="6.89845">
        <ele>189.52</ele>
        <time>2015-11-14T14:50:28Z</time>
      </trkpt>
      <trkpt lat="43.4567" lon="6.89845">
        <ele>191.92</ele>
        <time>2015-11-14T14:50:41Z</time>
      </trkpt>
      <trkpt lat="43.45683" lon="6.89845">
        <ele>193.36</ele>
        <time>2015-11-14T14:50:52Z</time>
      </trkpt>
      <trkpt lat="43.45685" lon="6.89845">
        <ele>193.36</ele>
        <time>2015-11-14T14:50:54Z</time>
      </trkpt>
      <trkpt lat="43.45697" lon="6.89845">
        <ele>194.8</ele>
        <time>2015-11-14T14:51:05Z</time>
      </trkpt>
      <trkpt lat="43.45706" lon="6.89844">
        <ele>196.25</ele>
        <time>2015-11-14T14:51:19Z</time>
      </trkpt>
      <trkpt lat="43.45704" lon="6.89846">
        <ele>196.73</ele>
        <time>2015-11-14T14:51:32Z</time>
      </trkpt>
      <trkpt lat="43.45702" lon="6.89846">
        <ele>196.73</ele>
        <time>2015-11-14T14:51:34Z</time>
      </trkpt>
      <trkpt lat="43.45693" lon="6.89853">
        <ele>199.13</ele>
        <time>2015-11-14T14:51:46Z</time>
      </trkpt>
      <trkpt lat="43.45689" lon="6.89859">
        <ele>201.53</ele>
        <time>2015-11-14T14:51:54Z</time>
      </trkpt>
      <trkpt lat="43.4568" lon="6.89868">
        <ele>204.42</ele>
        <time>2015-11-14T14:52:08Z</time>
      </trkpt>
      <trkpt lat="43.45679" lon="6.8987">
        <ele>204.42</ele>
        <time>2015-11-14T14:52:10Z</time>
      </trkpt>
      <trkpt lat="43.45673" lon="6.89879">
        <ele>207.78</ele>
        <time>2015-11-14T14:52:22Z</time>
      </trkpt>
      <trkpt lat="43.45668" lon="6.89887">
        <ele>210.19</ele>
        <time>2015-11-14T14:52:33Z</time>
      </trkpt>
      <trkpt lat="43.4567" lon="6.89889">
        <ele>210.67</ele>
        <time>2015-11-14T14:52:37Z</time>
      </trkpt>
      <trkpt lat="43.45682" lon="6.89893">
        <ele>213.07</ele>
        <time>2015-11-14T14:52:51Z</time>
      </trkpt>
      <trkpt lat="43.45694" lon="6.89896">
        <ele>215.95</ele>
        <time>2015-11-14T14:53:04Z</time>
      </trkpt>
      <trkpt lat="43.45707" lon="6.89901">
        <ele>218.36</ele>
        <time>2015-11-14T14:53:18Z</time>
      </trkpt>
      <trkpt lat="43.45714" lon="6.89905">
        <ele>221.24</ele>
        <time>2015-11-14T14:53:27Z</time>
      </trkpt>
      <trkpt lat="43.45716" lon="6.89908">
        <ele>222.68</ele>
        <time>2015-11-14T14:53:33Z</time>
      </trkpt>
      <trkpt lat="43.45708" lon="6.8991">
        <ele>223.64</ele>
        <time>2015-11-14T14:53:41Z</time>
      </trkpt>
      <trkpt lat="43.45706" lon="6.89911">
        <ele>224.12</ele>
        <time>2015-11-14T14:53:43Z</time>
      </trkpt>
      <trkpt lat="43.45705" lon="6.89914">
        <ele>224.61</ele>
        <time>2015-11-14T14:53:46Z</time>
      </trkpt>
      <trkpt lat="43.45706" lon="6.89918">
        <ele>226.05</ele>
        <time>2015-11-14T14:53:52Z</time>
      </trkpt>
      <trkpt lat="43.45711" lon="6.89919">
        <ele>227.01</ele>
        <time>2015-11-14T14:53:58Z</time>
      </trkpt>
      <trkpt lat="43.45715" lon="6.89927">
        <ele>229.89</ele>
        <time>2015-11-14T14:54:07Z</time>
      </trkpt>
      <trkpt lat="43.45717" lon="6.89928">
        <ele>229.89</ele>
        <time>2015-11-14T14:54:09Z</time>
      </trkpt>
      <trkpt lat="43.4572" lon="6.89929">
        <ele>230.85</ele>
        <time>2015-11-14T14:54:12Z</time>
      </trkpt>
      <trkpt lat="43.45723" lon="6.89934">
        <ele>233.26</ele>
        <time>2015-11-14T14:54:20Z</time>
      </trkpt>
      <trkpt lat="43.45731" lon="6.8994">
        <ele>236.14</ele>
        <time>2015-11-14T14:54:31Z</time>
      </trkpt>
      <trkpt lat="43.4574" lon="6.89946">
        <ele>238.54</ele>
        <time>2015-11-14T14:54:42Z</time>
      </trkpt>
      <trkpt lat="43.45747" lon="6.89956">
        <ele>241.91</ele>
        <time>2015-11-14T14:54:54Z</time>
      </trkpt>
      <trkpt lat="43.45752" lon="6.89965">
        <ele>244.79</ele>
        <time>2015-11-14T14:55:05Z</time>
      </trkpt>
      <trkpt lat="43.45757" lon="6.8997">
        <ele>246.23</ele>
        <time>2015-11-14T14:55:10Z</time>
      </trkpt>
      <trkpt lat="43.45765" lon="6.89985">
        <ele>248.16</ele>
        <time>2015-11-14T14:55:21Z</time>
      </trkpt>
      <trkpt lat="43.45767" lon="6.89987">
        <ele>248.64</ele>
        <time>2015-11-14T14:55:23Z</time>
      </trkpt>
      <trkpt lat="43.4577" lon="6.90005">
        <ele>251.52</ele>
        <time>2015-11-14T14:55:35Z</time>
      </trkpt>
      <trkpt lat="43.45767" lon="6.90022">
        <ele>254.89</ele>
        <time>2015-11-14T14:55:47Z</time>
      </trkpt>
      <trkpt lat="43.45767" lon="6.90025">
        <ele>255.37</ele>
        <time>2015-11-14T14:55:50Z</time>
      </trkpt>
      <trkpt lat="43.45764" lon="6.9003">
        <ele>256.81</ele>
        <time>2015-11-14T14:55:55Z</time>
      </trkpt>
      <trkpt lat="43.45763" lon="6.90032">
        <ele>258.25</ele>
        <time>2015-11-14T14:55:57Z</time>
      </trkpt>
      <trkpt lat="43.4576" lon="6.90042">
        <ele>261.14</ele>
        <time>2015-11-14T14:56:06Z</time>
      </trkpt>
      <trkpt lat="43.45755" lon="6.90038">
        <ele>264.5</ele>
        <time>2015-11-14T14:56:16Z</time>
      </trkpt>
      <trkpt lat="43.45752" lon="6.90034">
        <ele>266.42</ele>
        <time>2015-11-14T14:56:22Z</time>
      </trkpt>
      <trkpt lat="43.45743" lon="6.90028">
        <ele>269.79</ele>
        <time>2015-11-14T14:56:34Z</time>
      </trkpt>
      <trkpt lat="43.45741" lon="6.90021">
        <ele>272.67</ele>
        <time>2015-11-14T14:56:45Z</time>
      </trkpt>
      <trkpt lat="43.45732" lon="6.90018">
        <ele>276.52</ele>
        <time>2015-11-14T14:56:57Z</time>
      </trkpt>
      <trkpt lat="43.45732" lon="6.90017">
        <ele>276.52</ele>
        <time>2015-11-14T14:56:58Z</time>
      </trkpt>
      <trkpt lat="43.45731" lon="6.90016">
        <ele>276.52</ele>
        <time>2015-11-14T14:57:00Z</time>
      </trkpt>
      <trkpt lat="43.45727" lon="6.90013">
        <ele>278.44</ele>
        <time>2015-11-14T14:57:07Z</time>
      </trkpt>
      <trkpt lat="43.45726" lon="6.90006">
        <ele>282.28</ele>
        <time>2015-11-14T14:57:18Z</time>
      </trkpt>
      <trkpt lat="43.45722" lon="6.90007">
        <ele>283.25</ele>
        <time>2015-11-14T14:57:24Z</time>
      </trkpt>
      <trkpt lat="43.45717" lon="6.90008">
        <ele>284.69</ele>
        <time>2015-11-14T14:57:29Z</time>
      </trkpt>
      <trkpt lat="43.4571" lon="6.9001">
        <ele>287.09</ele>
        <time>2015-11-14T14:57:39Z</time>
      </trkpt>
      <trkpt lat="43.4571" lon="6.9001">
        <ele>287.09</ele>
        <time>2015-11-14T14:57:40Z</time>
      </trkpt>
      <trkpt lat="43.45707" lon="6.90005">
        <ele>285.65</ele>
        <time>2015-11-14T14:57:44Z</time>
      </trkpt>
      <trkpt lat="43.45708" lon="6.89996">
        <ele>284.21</ele>
        <time>2015-11-14T14:57:55Z</time>
      </trkpt>
      <trkpt lat="43.45709" lon="6.89993">
        <ele>284.21</ele>
        <time>2015-11-14T14:57:57Z</time>
      </trkpt>
      <trkpt lat="43.45718" lon="6.89981">
        <ele>282.77</ele>
        <time>2015-11-14T14:58:11Z</time>
      </trkpt>
      <trkpt lat="43.45718" lon="6.8998">
        <ele>284.21</ele>
        <time>2015-11-14T14:58:13Z</time>
      </trkpt>
      <trkpt lat="43.45719" lon="6.89978">
        <ele>285.17</ele>
        <time>2015-11-14T14:58:16Z</time>
      </trkpt>
      <trkpt lat="43.45719" lon="6.89973">
        <ele>285.17</ele>
        <time>2015-11-14T14:58:18Z</time>
      </trkpt>
      <trkpt lat="43.45714" lon="6.89969">
        <ele>285.17</ele>
        <time>2015-11-14T14:58:31Z</time>
      </trkpt>
      <trkpt lat="43.45716" lon="6.8997">
        <ele>285.17</ele>
        <time>2015-11-14T14:58:33Z</time>
      </trkpt>
      <trkpt lat="43.45716" lon="6.89974">
        <ele>285.65</ele>
        <time>2015-11-14T14:58:50Z</time>
      </trkpt>
      <trkpt lat="43.45716" lon="6.89974">
        <ele>285.65</ele>
        <time>2015-11-14T14:59:08Z</time>
      </trkpt>
      <trkpt lat="43.45713" lon="6.89971">
        <ele>285.65</ele>
        <time>2015-11-14T14:59:27Z</time>
      </trkpt>
      <trkpt lat="43.45708" lon="6.89968">
        <ele>284.21</ele>
        <time>2015-11-14T14:59:40Z</time>
      </trkpt>
      <trkpt lat="43.45706" lon="6.89968">
        <ele>281.32</ele>
        <time>2015-11-14T14:59:56Z</time>
      </trkpt>
      <trkpt lat="43.45702" lon="6.89968">
        <ele>277.48</ele>
        <time>2015-11-14T15:00:05Z</time>
      </trkpt>
      <trkpt lat="43.45697" lon="6.8997">
        <ele>276.04</ele>
        <time>2015-11-14T15:00:18Z</time>
      </trkpt>
      <trkpt lat="43.45696" lon="6.89971">
        <ele>276.04</ele>
        <time>2015-11-14T15:00:47Z</time>
      </trkpt>
      <trkpt lat="43.45696" lon="6.89968">
        <ele>276.04</ele>
        <time>2015-11-14T15:01:04Z</time>
      </trkpt>
      <trkpt lat="43.45699" lon="6.89966">
        <ele>275.56</ele>
        <time>2015-11-14T15:01:20Z</time>
      </trkpt>
      <trkpt lat="43.45699" lon="6.89963">
        <ele>275.07</ele>
        <time>2015-11-14T15:01:41Z</time>
      </trkpt>
      <trkpt lat="43.45698" lon="6.89964">
        <ele>275.07</ele>
        <time>2015-11-14T15:01:50Z</time>
      </trkpt>
      <trkpt lat="43.45698" lon="6.89969">
        <ele>276.04</ele>
        <time>2015-11-14T15:01:59Z</time>
      </trkpt>
      <trkpt lat="43.45696" lon="6.89979">
        <ele>276.04</ele>
        <time>2015-11-14T15:02:19Z</time>
      </trkpt>
      <trkpt lat="43.45698" lon="6.89976">
        <ele>276.52</ele>
        <time>2015-11-14T15:03:32Z</time>
      </trkpt>
      <trkpt lat="43.45702" lon="6.89969">
        <ele>279.4</ele>
        <time>2015-11-14T15:03:45Z</time>
      </trkpt>
      <trkpt lat="43.45707" lon="6.89969">
        <ele>282.77</ele>
        <time>2015-11-14T15:03:54Z</time>
      </trkpt>
      <trkpt lat="43.45712" lon="6.89968">
        <ele>284.69</ele>
        <time>2015-11-14T15:04:07Z</time>
      </trkpt>
      <trkpt lat="43.45715" lon="6.89969">
        <ele>284.69</ele>
        <time>2015-11-14T15:04:22Z</time>
      </trkpt>
      <trkpt lat="43.45716" lon="6.89976">
        <ele>283.25</ele>
        <time>2015-11-14T15:04:34Z</time>
      </trkpt>
      <trkpt lat="43.45716" lon="6.89978">
        <ele>282.77</ele>
        <time>2015-11-14T15:04:36Z</time>
      </trkpt>
      <trkpt lat="43.45712" lon="6.89982">
        <ele>282.77</ele>
        <time>2015-11-14T15:04:40Z</time>
      </trkpt>
      <trkpt lat="43.45709" lon="6.89984">
        <ele>282.77</ele>
        <time>2015-11-14T15:04:43Z</time>
      </trkpt>
      <trkpt lat="43.45708" lon="6.8999">
        <ele>283.73</ele>
        <time>2015-11-14T15:04:47Z</time>
      </trkpt>
      <trkpt lat="43.45708" lon="6.89994">
        <ele>284.69</ele>
        <time>2015-11-14T15:04:52Z</time>
      </trkpt>
      <trkpt lat="43.45707" lon="6.89998">
        <ele>285.65</ele>
        <time>2015-11-14T15:04:56Z</time>
      </trkpt>
      <trkpt lat="43.45714" lon="6.90004">
        <ele>286.61</ele>
        <time>2015-11-14T15:05:09Z</time>
      </trkpt>
      <trkpt lat="43.45715" lon="6.90004">
        <ele>285.17</ele>
        <time>2015-11-14T15:05:11Z</time>
      </trkpt>
      <trkpt lat="43.4572" lon="6.9001">
        <ele>282.28</ele>
        <time>2015-11-14T15:05:23Z</time>
      </trkpt>
      <trkpt lat="43.45723" lon="6.9001">
        <ele>280.36</ele>
        <time>2015-11-14T15:05:33Z</time>
      </trkpt>
      <trkpt lat="43.45727" lon="6.90014">
        <ele>277</ele>
        <time>2015-11-14T15:05:42Z</time>
      </trkpt>
      <trkpt lat="43.45728" lon="6.90015">
        <ele>276.52</ele>
        <time>2015-11-14T15:05:43Z</time>
      </trkpt>
      <trkpt lat="43.45735" lon="6.90019">
        <ele>273.63</ele>
        <time>2015-11-14T15:05:53Z</time>
      </trkpt>
      <trkpt lat="43.45739" lon="6.90023">
        <ele>271.23</ele>
        <time>2015-11-14T15:06:03Z</time>
      </trkpt>
      <trkpt lat="43.45744" lon="6.90028">
        <ele>268.35</ele>
        <time>2015-11-14T15:06:11Z</time>
      </trkpt>
      <trkpt lat="43.45746" lon="6.90032">
        <ele>267.38</ele>
        <time>2015-11-14T15:06:14Z</time>
      </trkpt>
      <trkpt lat="43.45752" lon="6.90037">
        <ele>264.5</ele>
        <time>2015-11-14T15:06:22Z</time>
      </trkpt>
      <trkpt lat="43.45753" lon="6.90038">
        <ele>264.5</ele>
        <time>2015-11-14T15:06:23Z</time>
      </trkpt>
      <trkpt lat="43.45759" lon="6.90044">
        <ele>260.17</ele>
        <time>2015-11-14T15:06:32Z</time>
      </trkpt>
      <trkpt lat="43.4576" lon="6.90043">
        <ele>260.17</ele>
        <time>2015-11-14T15:06:33Z</time>
      </trkpt>
      <trkpt lat="43.45761" lon="6.90035">
        <ele>256.81</ele>
        <time>2015-11-14T15:06:41Z</time>
      </trkpt>
      <trkpt lat="43.45766" lon="6.90027">
        <ele>254.41</ele>
        <time>2015-11-14T15:06:49Z</time>
      </trkpt>
      <trkpt lat="43.45769" lon="6.90018">
        <ele>252</ele>
        <time>2015-11-14T15:06:54Z</time>
      </trkpt>
      <trkpt lat="43.4577" lon="6.9001">
        <ele>251.04</ele>
        <time>2015-11-14T15:06:58Z</time>
      </trkpt>
      <trkpt lat="43.45769" lon="6.89987">
        <ele>247.68</ele>
        <time>2015-11-14T15:07:10Z</time>
      </trkpt>
      <trkpt lat="43.45767" lon="6.89983">
        <ele>247.68</ele>
        <time>2015-11-14T15:07:12Z</time>
      </trkpt>
      <trkpt lat="43.45766" lon="6.89977">
        <ele>246.72</ele>
        <time>2015-11-14T15:07:15Z</time>
      </trkpt>
      <trkpt lat="43.45755" lon="6.89963">
        <ele>243.35</ele>
        <time>2015-11-14T15:07:27Z</time>
      </trkpt>
      <trkpt lat="43.45754" lon="6.89959">
        <ele>242.87</ele>
        <time>2015-11-14T15:07:30Z</time>
      </trkpt>
      <trkpt lat="43.4575" lon="6.89951">
        <ele>239.99</ele>
        <time>2015-11-14T15:07:38Z</time>
      </trkpt>
      <trkpt lat="43.45748" lon="6.89947">
        <ele>239.51</ele>
        <time>2015-11-14T15:07:41Z</time>
      </trkpt>
      <trkpt lat="43.45738" lon="6.89938">
        <ele>236.62</ele>
        <time>2015-11-14T15:07:52Z</time>
      </trkpt>
      <trkpt lat="43.45732" lon="6.89933">
        <ele>234.7</ele>
        <time>2015-11-14T15:07:58Z</time>
      </trkpt>
      <trkpt lat="43.4573" lon="6.89932">
        <ele>234.22</ele>
        <time>2015-11-14T15:08:00Z</time>
      </trkpt>
      <trkpt lat="43.45725" lon="6.89922">
        <ele>230.85</ele>
        <time>2015-11-14T15:08:10Z</time>
      </trkpt>
      <trkpt lat="43.45724" lon="6.89921">
        <ele>230.37</ele>
        <time>2015-11-14T15:08:11Z</time>
      </trkpt>
      <trkpt lat="43.45716" lon="6.89914">
        <ele>227.01</ele>
        <time>2015-11-14T15:08:22Z</time>
      </trkpt>
      <trkpt lat="43.45715" lon="6.89912">
        <ele>226.53</ele>
        <time>2015-11-14T15:08:25Z</time>
      </trkpt>
      <trkpt lat="43.45706" lon="6.89909">
        <ele>225.09</ele>
        <time>2015-11-14T15:08:31Z</time>
      </trkpt>
      <trkpt lat="43.45709" lon="6.89903">
        <ele>222.68</ele>
        <time>2015-11-14T15:08:39Z</time>
      </trkpt>
      <trkpt lat="43.45714" lon="6.89903">
        <ele>222.2</ele>
        <time>2015-11-14T15:08:43Z</time>
      </trkpt>
      <trkpt lat="43.45717" lon="6.89902">
        <ele>221.72</ele>
        <time>2015-11-14T15:08:45Z</time>
      </trkpt>
      <trkpt lat="43.45718" lon="6.89897">
        <ele>220.76</ele>
        <time>2015-11-14T15:08:48Z</time>
      </trkpt>
      <trkpt lat="43.4571" lon="6.89891">
        <ele>217.88</ele>
        <time>2015-11-14T15:08:57Z</time>
      </trkpt>
      <trkpt lat="43.45709" lon="6.89889">
        <ele>217.4</ele>
        <time>2015-11-14T15:08:59Z</time>
      </trkpt>
      <trkpt lat="43.45695" lon="6.89883">
        <ele>214.03</ele>
        <time>2015-11-14T15:09:10Z</time>
      </trkpt>
      <trkpt lat="43.4568" lon="6.89881">
        <ele>210.67</ele>
        <time>2015-11-14T15:09:21Z</time>
      </trkpt>
      <trkpt lat="43.4567" lon="6.89878">
        <ele>208.26</ele>
        <time>2015-11-14T15:09:31Z</time>
      </trkpt>
      <trkpt lat="43.45674" lon="6.89873">
        <ele>206.34</ele>
        <time>2015-11-14T15:09:36Z</time>
      </trkpt>
      <trkpt lat="43.45677" lon="6.89871">
        <ele>204.9</ele>
        <time>2015-11-14T15:09:40Z</time>
      </trkpt>
      <trkpt lat="43.4568" lon="6.89867">
        <ele>203.46</ele>
        <time>2015-11-14T15:09:44Z</time>
      </trkpt>
      <trkpt lat="43.45683" lon="6.89861">
        <ele>202.49</ele>
        <time>2015-11-14T15:09:48Z</time>
      </trkpt>
      <trkpt lat="43.45692" lon="6.8985">
        <ele>199.13</ele>
        <time>2015-11-14T15:09:59Z</time>
      </trkpt>
      <trkpt lat="43.45698" lon="6.89844">
        <ele>196.25</ele>
        <time>2015-11-14T15:10:07Z</time>
      </trkpt>
      <trkpt lat="43.45704" lon="6.89842">
        <ele>194.8</ele>
        <time>2015-11-14T15:10:13Z</time>
      </trkpt>
      <trkpt lat="43.45692" lon="6.89834">
        <ele>192.4</ele>
        <time>2015-11-14T15:10:25Z</time>
      </trkpt>
      <trkpt lat="43.45672" lon="6.89832">
        <ele>189.52</ele>
        <time>2015-11-14T15:10:40Z</time>
      </trkpt>
      <trkpt lat="43.45654" lon="6.89832">
        <ele>186.63</ele>
        <time>2015-11-14T15:10:53Z</time>
      </trkpt>
      <trkpt lat="43.4565" lon="6.89829">
        <ele>184.23</ele>
        <time>2015-11-14T15:11:02Z</time>
      </trkpt>
      <trkpt lat="43.45652" lon="6.89829">
        <ele>183.75</ele>
        <time>2015-11-14T15:11:04Z</time>
      </trkpt>
      <trkpt lat="43.45656" lon="6.89825">
        <ele>180.87</ele>
        <time>2015-11-14T15:11:12Z</time>
      </trkpt>
      <trkpt lat="43.4566" lon="6.89823">
        <ele>179.9</ele>
        <time>2015-11-14T15:11:16Z</time>
      </trkpt>
      <trkpt lat="43.45681" lon="6.89813">
        <ele>179.42</ele>
        <time>2015-11-14T15:11:31Z</time>
      </trkpt>
      <trkpt lat="43.45707" lon="6.89804">
        <ele>178.94</ele>
        <time>2015-11-14T15:11:48Z</time>
      </trkpt>
      <trkpt lat="43.45721" lon="6.89794">
        <ele>177.02</ele>
        <time>2015-11-14T15:12:00Z</time>
      </trkpt>
      <trkpt lat="43.45731" lon="6.89786">
        <ele>174.14</ele>
        <time>2015-11-14T15:12:11Z</time>
      </trkpt>
      <trkpt lat="43.45729" lon="6.89778">
        <ele>173.17</ele>
        <time>2015-11-14T15:12:16Z</time>
      </trkpt>
      <trkpt lat="43.4571" lon="6.8978">
        <ele>171.73</ele>
        <time>2015-11-14T15:12:31Z</time>
      </trkpt>
      <trkpt lat="43.45708" lon="6.89781">
        <ele>171.73</ele>
        <time>2015-11-14T15:12:33Z</time>
      </trkpt>
      <trkpt lat="43.45688" lon="6.89786">
        <ele>170.77</ele>
        <time>2015-11-14T15:12:48Z</time>
      </trkpt>
      <trkpt lat="43.45678" lon="6.89777">
        <ele>169.81</ele>
        <time>2015-11-14T15:12:58Z</time>
      </trkpt>
      <trkpt lat="43.45683" lon="6.89753">
        <ele>168.85</ele>
        <time>2015-11-14T15:13:12Z</time>
      </trkpt>
      <trkpt lat="43.45691" lon="6.89729">
        <ele>167.41</ele>
        <time>2015-11-14T15:13:29Z</time>
      </trkpt>
      <trkpt lat="43.4569" lon="6.89726">
        <ele>167.41</ele>
        <time>2015-11-14T15:13:42Z</time>
      </trkpt>
      <trkpt lat="43.45692" lon="6.89725">
        <ele>166.93</ele>
        <time>2015-11-14T15:13:56Z</time>
      </trkpt>
      <trkpt lat="43.45692" lon="6.89721">
        <ele>166.93</ele>
        <time>2015-11-14T15:14:09Z</time>
      </trkpt>
      <trkpt lat="43.45692" lon="6.89721">
        <ele>166.45</ele>
        <time>2015-11-14T15:14:22Z</time>
      </trkpt>
      <trkpt lat="43.45693" lon="6.89722">
        <ele>166.45</ele>
        <time>2015-11-14T15:14:37Z</time>
      </trkpt>
      <trkpt lat="43.45694" lon="6.89719">
        <ele>166.45</ele>
        <time>2015-11-14T15:14:42Z</time>
      </trkpt>
      <trkpt lat="43.45697" lon="6.89714">
        <ele>166.45</ele>
        <time>2015-11-14T15:14:48Z</time>
      </trkpt>
      <trkpt lat="43.45702" lon="6.89702">
        <ele>165.48</ele>
        <time>2015-11-14T15:15:00Z</time>
      </trkpt>
      <trkpt lat="43.45704" lon="6.89699">
        <ele>165.48</ele>
        <time>2015-11-14T15:15:03Z</time>
      </trkpt>
      <trkpt lat="43.45709" lon="6.89672">
        <ele>164.52</ele>
        <time>2015-11-14T15:15:19Z</time>
      </trkpt>
      <trkpt lat="43.45711" lon="6.89645">
        <ele>163.08</ele>
        <time>2015-11-14T15:15:34Z</time>
      </trkpt>
      <trkpt lat="43.45712" lon="6.89642">
        <ele>163.08</ele>
        <time>2015-11-14T15:15:36Z</time>
      </trkpt>
      <trkpt lat="43.45713" lon="6.89636">
        <ele>162.6</ele>
        <time>2015-11-14T15:15:40Z</time>
      </trkpt>
      <trkpt lat="43.45716" lon="6.89623">
        <ele>162.12</ele>
        <time>2015-11-14T15:15:47Z</time>
      </trkpt>
      <trkpt lat="43.45727" lon="6.89587">
        <ele>160.68</ele>
        <time>2015-11-14T15:15:59Z</time>
      </trkpt>
      <trkpt lat="43.45743" lon="6.89551">
        <ele>158.75</ele>
        <time>2015-11-14T15:16:10Z</time>
      </trkpt>
      <trkpt lat="43.4575" lon="6.89516">
        <ele>157.31</ele>
        <time>2015-11-14T15:16:21Z</time>
      </trkpt>
      <trkpt lat="43.45726" lon="6.89486">
        <ele>155.39</ele>
        <time>2015-11-14T15:16:33Z</time>
      </trkpt>
      <trkpt lat="43.45711" lon="6.89466">
        <ele>153.47</ele>
        <time>2015-11-14T15:16:41Z</time>
      </trkpt>
      <trkpt lat="43.45711" lon="6.89428">
        <ele>152.03</ele>
        <time>2015-11-14T15:16:51Z</time>
      </trkpt>
      <trkpt lat="43.45699" lon="6.89392">
        <ele>150.58</ele>
        <time>2015-11-14T15:17:01Z</time>
      </trkpt>
      <trkpt lat="43.45684" lon="6.89352">
        <ele>148.18</ele>
        <time>2015-11-14T15:17:12Z</time>
      </trkpt>
      <trkpt lat="43.45676" lon="6.89319">
        <ele>146.26</ele>
        <time>2015-11-14T15:17:21Z</time>
      </trkpt>
      <trkpt lat="43.45665" lon="6.89281">
        <ele>144.82</ele>
        <time>2015-11-14T15:17:31Z</time>
      </trkpt>
      <trkpt lat="43.45643" lon="6.89259">
        <ele>142.89</ele>
        <time>2015-11-14T15:17:40Z</time>
      </trkpt>
      <trkpt lat="43.45614" lon="6.89267">
        <ele>141.45</ele>
        <time>2015-11-14T15:17:50Z</time>
      </trkpt>
      <trkpt lat="43.45588" lon="6.89286">
        <ele>140.01</ele>
        <time>2015-11-14T15:18:00Z</time>
      </trkpt>
      <trkpt lat="43.45583" lon="6.89288">
        <ele>139.53</ele>
        <time>2015-11-14T15:18:02Z</time>
      </trkpt>
      <trkpt lat="43.45551" lon="6.89289">
        <ele>138.57</ele>
        <time>2015-11-14T15:18:13Z</time>
      </trkpt>
      <trkpt lat="43.45523" lon="6.89295">
        <ele>137.61</ele>
        <time>2015-11-14T15:18:23Z</time>
      </trkpt>
      <trkpt lat="43.4551" lon="6.89292">
        <ele>136.64</ele>
        <time>2015-11-14T15:18:28Z</time>
      </trkpt>
      <trkpt lat="43.4551" lon="6.89266">
        <ele>135.2</ele>
        <time>2015-11-14T15:18:36Z</time>
      </trkpt>
      <trkpt lat="43.45529" lon="6.89233">
        <ele>134.72</ele>
        <time>2015-11-14T15:18:47Z</time>
      </trkpt>
      <trkpt lat="43.45543" lon="6.89206">
        <ele>133.76</ele>
        <time>2015-11-14T15:18:56Z</time>
      </trkpt>
      <trkpt lat="43.45563" lon="6.89178">
        <ele>132.8</ele>
        <time>2015-11-14T15:19:06Z</time>
      </trkpt>
      <trkpt lat="43.45573" lon="6.89139">
        <ele>132.32</ele>
        <time>2015-11-14T15:19:16Z</time>
      </trkpt>
      <trkpt lat="43.45572" lon="6.89103">
        <ele>131.36</ele>
        <time>2015-11-14T15:19:25Z</time>
      </trkpt>
      <trkpt lat="43.45564" lon="6.89061">
        <ele>130.4</ele>
        <time>2015-11-14T15:19:36Z</time>
      </trkpt>
      <trkpt lat="43.45564" lon="6.89025">
        <ele>129.43</ele>
        <time>2015-11-14T15:19:45Z</time>
      </trkpt>
      <trkpt lat="43.45563" lon="6.89013">
        <ele>129.43</ele>
        <time>2015-11-14T15:19:48Z</time>
      </trkpt>
      <trkpt lat="43.45557" lon="6.88998">
        <ele>129.43</ele>
        <time>2015-11-14T15:19:52Z</time>
      </trkpt>
      <trkpt lat="43.45538" lon="6.88966">
        <ele>127.99</ele>
        <time>2015-11-14T15:20:02Z</time>
      </trkpt>
      <trkpt lat="43.45526" lon="6.88947">
        <ele>127.51</ele>
        <time>2015-11-14T15:20:08Z</time>
      </trkpt>
      <trkpt lat="43.45524" lon="6.88936">
        <ele>126.55</ele>
        <time>2015-11-14T15:20:11Z</time>
      </trkpt>
      <trkpt lat="43.45539" lon="6.88923">
        <ele>126.55</ele>
        <time>2015-11-14T15:20:22Z</time>
      </trkpt>
      <trkpt lat="43.45561" lon="6.88918">
        <ele>126.07</ele>
        <time>2015-11-14T15:20:38Z</time>
      </trkpt>
      <trkpt lat="43.45577" lon="6.88895">
        <ele>125.11</ele>
        <time>2015-11-14T15:20:52Z</time>
      </trkpt>
      <trkpt lat="43.45588" lon="6.88859">
        <ele>123.67</ele>
        <time>2015-11-14T15:21:10Z</time>
      </trkpt>
      <trkpt lat="43.45604" lon="6.88824">
        <ele>123.19</ele>
        <time>2015-11-14T15:21:28Z</time>
      </trkpt>
      <trkpt lat="43.45621" lon="6.88789">
        <ele>122.22</ele>
        <time>2015-11-14T15:21:47Z</time>
      </trkpt>
      <trkpt lat="43.4563" lon="6.88759">
        <ele>121.26</ele>
        <time>2015-11-14T15:22:02Z</time>
      </trkpt>
      <trkpt lat="43.45621" lon="6.88718">
        <ele>119.82</ele>
        <time>2015-11-14T15:22:19Z</time>
      </trkpt>
      <trkpt lat="43.45626" lon="6.88709">
        <ele>119.82</ele>
        <time>2015-11-14T15:22:22Z</time>
      </trkpt>
      <trkpt lat="43.45662" lon="6.88697">
        <ele>118.86</ele>
        <time>2015-11-14T15:22:35Z</time>
      </trkpt>
      <trkpt lat="43.45691" lon="6.88684">
        <ele>117.42</ele>
        <time>2015-11-14T15:22:46Z</time>
      </trkpt>
      <trkpt lat="43.45712" lon="6.88649">
        <ele>116.46</ele>
        <time>2015-11-14T15:22:57Z</time>
      </trkpt>
      <trkpt lat="43.45728" lon="6.88614">
        <ele>114.53</ele>
        <time>2015-11-14T15:23:07Z</time>
      </trkpt>
      <trkpt lat="43.45724" lon="6.88571">
        <ele>113.09</ele>
        <time>2015-11-14T15:23:18Z</time>
      </trkpt>
      <trkpt lat="43.45709" lon="6.88533">
        <ele>110.69</ele>
        <time>2015-11-14T15:23:28Z</time>
      </trkpt>
      <trkpt lat="43.45695" lon="6.88494">
        <ele>109.25</ele>
        <time>2015-11-14T15:23:38Z</time>
      </trkpt>
      <trkpt lat="43.4568" lon="6.88457">
        <ele>106.84</ele>
        <time>2015-11-14T15:23:48Z</time>
      </trkpt>
      <trkpt lat="43.45665" lon="6.88423">
        <ele>104.92</ele>
        <time>2015-11-14T15:23:57Z</time>
      </trkpt>
      <trkpt lat="43.45645" lon="6.88388">
        <ele>103.48</ele>
        <time>2015-11-14T15:24:07Z</time>
      </trkpt>
      <trkpt lat="43.45632" lon="6.88368">
        <ele>102.04</ele>
        <time>2015-11-14T15:24:13Z</time>
      </trkpt>
      <trkpt lat="43.45611" lon="6.88334">
        <ele>100.11</ele>
        <time>2015-11-14T15:24:23Z</time>
      </trkpt>
      <trkpt lat="43.45589" lon="6.88299">
        <ele>97.23</ele>
        <time>2015-11-14T15:24:33Z</time>
      </trkpt>
      <trkpt lat="43.45583" lon="6.88273">
        <ele>95.79</ele>
        <time>2015-11-14T15:24:39Z</time>
      </trkpt>
      <trkpt lat="43.45588" lon="6.88237">
        <ele>93.87</ele>
        <time>2015-11-14T15:24:48Z</time>
      </trkpt>
      <trkpt lat="43.45565" lon="6.88227">
        <ele>91.94</ele>
        <time>2015-11-14T15:24:57Z</time>
      </trkpt>
      <trkpt lat="43.45563" lon="6.88227">
        <ele>91.94</ele>
        <time>2015-11-14T15:24:58Z</time>
      </trkpt>
      <trkpt lat="43.4554" lon="6.88241">
        <ele>89.54</ele>
        <time>2015-11-14T15:25:11Z</time>
      </trkpt>
      <trkpt lat="43.45515" lon="6.88236">
        <ele>87.14</ele>
        <time>2015-11-14T15:25:22Z</time>
      </trkpt>
      <trkpt lat="43.45492" lon="6.88217">
        <ele>86.18</ele>
        <time>2015-11-14T15:25:31Z</time>
      </trkpt>
      <trkpt lat="43.45465" lon="6.88219">
        <ele>83.77</ele>
        <time>2015-11-14T15:25:40Z</time>
      </trkpt>
      <trkpt lat="43.45443" lon="6.8824">
        <ele>82.33</ele>
        <time>2015-11-14T15:25:49Z</time>
      </trkpt>
      <trkpt lat="43.45438" lon="6.88246">
        <ele>82.33</ele>
        <time>2015-11-14T15:25:51Z</time>
      </trkpt>
      <trkpt lat="43.45423" lon="6.88242">
        <ele>80.41</ele>
        <time>2015-11-14T15:25:58Z</time>
      </trkpt>
      <trkpt lat="43.45427" lon="6.88215">
        <ele>78.97</ele>
        <time>2015-11-14T15:26:05Z</time>
      </trkpt>
      <trkpt lat="43.45437" lon="6.88184">
        <ele>77.52</ele>
        <time>2015-11-14T15:26:13Z</time>
      </trkpt>
      <trkpt lat="43.45446" lon="6.88141">
        <ele>75.6</ele>
        <time>2015-11-14T15:26:23Z</time>
      </trkpt>
      <trkpt lat="43.45447" lon="6.88103">
        <ele>74.16</ele>
        <time>2015-11-14T15:26:32Z</time>
      </trkpt>
      <trkpt lat="43.45443" lon="6.88061">
        <ele>71.76</ele>
        <time>2015-11-14T15:26:42Z</time>
      </trkpt>
      <trkpt lat="43.45433" lon="6.88022">
        <ele>70.31</ele>
        <time>2015-11-14T15:26:52Z</time>
      </trkpt>
      <trkpt lat="43.45423" lon="6.87995">
        <ele>68.87</ele>
        <time>2015-11-14T15:27:01Z</time>
      </trkpt>
      <trkpt lat="43.45414" lon="6.87971">
        <ele>67.43</ele>
        <time>2015-11-14T15:27:14Z</time>
      </trkpt>
      <trkpt lat="43.4541" lon="6.87963">
        <ele>66.47</ele>
        <time>2015-11-14T15:27:27Z</time>
      </trkpt>
      <trkpt lat="43.45409" lon="6.87963">
        <ele>66.47</ele>
        <time>2015-11-14T15:27:33Z</time>
      </trkpt>
      <trkpt lat="43.45407" lon="6.87963">
        <ele>66.47</ele>
        <time>2015-11-14T15:27:35Z</time>
      </trkpt>
      <trkpt lat="43.45404" lon="6.87963">
        <ele>66.47</ele>
        <time>2015-11-14T15:27:38Z</time>
      </trkpt>
      <trkpt lat="43.45395" lon="6.8796">
        <ele>65.99</ele>
        <time>2015-11-14T15:27:51Z</time>
      </trkpt>
      <trkpt lat="43.45395" lon="6.87961">
        <ele>65.99</ele>
        <time>2015-11-14T15:28:12Z</time>
      </trkpt>
      <trkpt lat="43.45395" lon="6.87959">
        <ele>65.99</ele>
        <time>2015-11-14T15:28:14Z</time>
      </trkpt>
      <trkpt lat="43.45395" lon="6.87956">
        <ele>65.99</ele>
        <time>2015-11-14T15:28:16Z</time>
      </trkpt>
      <trkpt lat="43.45396" lon="6.87945">
        <ele>65.51</ele>
        <time>2015-11-14T15:28:30Z</time>
      </trkpt>
      <trkpt lat="43.45393" lon="6.87946">
        <ele>65.51</ele>
        <time>2015-11-14T15:28:41Z</time>
      </trkpt>
      <trkpt lat="43.45389" lon="6.87946">
        <ele>65.51</ele>
        <time>2015-11-14T15:28:56Z</time>
      </trkpt>
      <trkpt lat="43.4539" lon="6.87947">
        <ele>65.51</ele>
        <time>2015-11-14T15:29:26Z</time>
      </trkpt>
      <trkpt lat="43.45393" lon="6.87947">
        <ele>65.51</ele>
        <time>2015-11-14T15:29:47Z</time>
      </trkpt>
      <trkpt lat="43.45391" lon="6.87947">
        <ele>65.51</ele>
        <time>2015-11-14T15:29:57Z</time>
      </trkpt>
      <trkpt lat="43.45388" lon="6.87945">
        <ele>65.03</ele>
        <time>2015-11-14T15:30:05Z</time>
      </trkpt>
      <trkpt lat="43.45382" lon="6.87935">
        <ele>63.58</ele>
        <time>2015-11-14T15:30:11Z</time>
      </trkpt>
      <trkpt lat="43.45377" lon="6.87899">
        <ele>59.74</ele>
        <time>2015-11-14T15:30:22Z</time>
      </trkpt>
      <trkpt lat="43.45377" lon="6.87896">
        <ele>59.74</ele>
        <time>2015-11-14T15:30:23Z</time>
      </trkpt>
      <trkpt lat="43.4539" lon="6.87844">
        <ele>56.86</ele>
        <time>2015-11-14T15:30:36Z</time>
      </trkpt>
      <trkpt lat="43.4539" lon="6.87805">
        <ele>53.97</ele>
        <time>2015-11-14T15:30:47Z</time>
      </trkpt>
      <trkpt lat="43.45391" lon="6.87798">
        <ele>53.49</ele>
        <time>2015-11-14T15:30:49Z</time>
      </trkpt>
      <trkpt lat="43.45404" lon="6.87764">
        <ele>52.05</ele>
        <time>2015-11-14T15:30:59Z</time>
      </trkpt>
      <trkpt lat="43.45418" lon="6.87741">
        <ele>49.65</ele>
        <time>2015-11-14T15:31:07Z</time>
      </trkpt>
      <trkpt lat="43.45434" lon="6.87709">
        <ele>48.2</ele>
        <time>2015-11-14T15:31:17Z</time>
      </trkpt>
      <trkpt lat="43.45438" lon="6.87695">
        <ele>47.24</ele>
        <time>2015-11-14T15:31:21Z</time>
      </trkpt>
      <trkpt lat="43.45441" lon="6.87658">
        <ele>45.8</ele>
        <time>2015-11-14T15:31:32Z</time>
      </trkpt>
      <trkpt lat="43.45447" lon="6.8762">
        <ele>43.88</ele>
        <time>2015-11-14T15:31:42Z</time>
      </trkpt>
      <trkpt lat="43.45451" lon="6.87581">
        <ele>41.47</ele>
        <time>2015-11-14T15:31:51Z</time>
      </trkpt>
      <trkpt lat="43.45447" lon="6.87565">
        <ele>41.47</ele>
        <time>2015-11-14T15:31:55Z</time>
      </trkpt>
      <trkpt lat="43.45427" lon="6.87542">
        <ele>39.55</ele>
        <time>2015-11-14T15:32:04Z</time>
      </trkpt>
      <trkpt lat="43.45426" lon="6.87533">
        <ele>39.07</ele>
        <time>2015-11-14T15:32:10Z</time>
      </trkpt>
      <trkpt lat="43.45426" lon="6.87507">
        <ele>37.15</ele>
        <time>2015-11-14T15:32:26Z</time>
      </trkpt>
      <trkpt lat="43.45428" lon="6.87484">
        <ele>36.67</ele>
        <time>2015-11-14T15:32:37Z</time>
      </trkpt>
      <trkpt lat="43.4543" lon="6.87458">
        <ele>34.74</ele>
        <time>2015-11-14T15:32:50Z</time>
      </trkpt>
      <trkpt lat="43.4543" lon="6.87441">
        <ele>34.26</ele>
        <time>2015-11-14T15:32:57Z</time>
      </trkpt>
      <trkpt lat="43.45432" lon="6.87421">
        <ele>32.82</ele>
        <time>2015-11-14T15:33:04Z</time>
      </trkpt>
      <trkpt lat="43.45443" lon="6.87388">
        <ele>30.9</ele>
        <time>2015-11-14T15:33:17Z</time>
      </trkpt>
      <trkpt lat="43.45451" lon="6.87376">
        <ele>30.42</ele>
        <time>2015-11-14T15:33:21Z</time>
      </trkpt>
      <trkpt lat="43.45462" lon="6.87344">
        <ele>28.02</ele>
        <time>2015-11-14T15:33:32Z</time>
      </trkpt>
      <trkpt lat="43.45464" lon="6.87321">
        <ele>27.05</ele>
        <time>2015-11-14T15:33:38Z</time>
      </trkpt>
      <trkpt lat="43.45466" lon="6.87279">
        <ele>25.61</ele>
        <time>2015-11-14T15:33:49Z</time>
      </trkpt>
      <trkpt lat="43.45461" lon="6.87252">
        <ele>24.17</ele>
        <time>2015-11-14T15:33:58Z</time>
      </trkpt>
      <trkpt lat="43.45468" lon="6.87226">
        <ele>23.69</ele>
        <time>2015-11-14T15:34:13Z</time>
      </trkpt>
      <trkpt lat="43.45469" lon="6.87217">
        <ele>23.69</ele>
        <time>2015-11-14T15:34:26Z</time>
      </trkpt>
      <trkpt lat="43.45467" lon="6.87215">
        <ele>23.69</ele>
        <time>2015-11-14T15:34:35Z</time>
      </trkpt>
      <trkpt lat="43.45462" lon="6.87233">
        <ele>23.69</ele>
        <time>2015-11-14T15:34:49Z</time>
      </trkpt>
      <trkpt lat="43.45459" lon="6.87237">
        <ele>23.69</ele>
        <time>2015-11-14T15:34:52Z</time>
      </trkpt>
      <trkpt lat="43.45454" lon="6.87236">
        <ele>23.69</ele>
        <time>2015-11-14T15:34:56Z</time>
      </trkpt>
      <trkpt lat="43.45447" lon="6.87226">
        <ele>23.69</ele>
        <time>2015-11-14T15:35:02Z</time>
      </trkpt>
      <trkpt lat="43.45442" lon="6.87213">
        <ele>23.21</ele>
        <time>2015-11-14T15:35:07Z</time>
      </trkpt>
      <trkpt lat="43.45434" lon="6.87201">
        <ele>23.21</ele>
        <time>2015-11-14T15:35:12Z</time>
      </trkpt>
      <trkpt lat="43.45431" lon="6.87186">
        <ele>20.81</ele>
        <time>2015-11-14T15:35:18Z</time>
      </trkpt>
      <trkpt lat="43.4542" lon="6.87164">
        <ele>20.81</ele>
        <time>2015-11-14T15:35:29Z</time>
      </trkpt>
      <trkpt lat="43.45414" lon="6.87154">
        <ele>20.81</ele>
        <time>2015-11-14T15:35:37Z</time>
      </trkpt>
      <trkpt lat="43.45415" lon="6.87153">
        <ele>20.81</ele>
        <time>2015-11-14T15:35:39Z</time>
      </trkpt>
      <trkpt lat="43.45414" lon="6.8715">
        <ele>20.81</ele>
        <time>2015-11-14T15:35:41Z</time>
      </trkpt>
      <trkpt lat="43.4541" lon="6.87133">
        <ele>20.81</ele>
        <time>2015-11-14T15:35:53Z</time>
      </trkpt>
      <trkpt lat="43.45411" lon="6.87131">
        <ele>20.81</ele>
        <time>2015-11-14T15:35:54Z</time>
      </trkpt>
      <trkpt lat="43.45408" lon="6.87125">
        <ele>20.32</ele>
        <time>2015-11-14T15:36:04Z</time>
      </trkpt>
      <trkpt lat="43.45406" lon="6.87098">
        <ele>19.36</ele>
        <time>2015-11-14T15:36:18Z</time>
      </trkpt>
      <trkpt lat="43.45405" lon="6.87087">
        <ele>19.36</ele>
        <time>2015-11-14T15:36:23Z</time>
      </trkpt>
      <trkpt lat="43.45396" lon="6.87061">
        <ele>20.32</ele>
        <time>2015-11-14T15:36:37Z</time>
      </trkpt>
      <trkpt lat="43.45396" lon="6.87036">
        <ele>20.32</ele>
        <time>2015-11-14T15:36:50Z</time>
      </trkpt>
      <trkpt lat="43.45386" lon="6.87018">
        <ele>23.69</ele>
        <time>2015-11-14T15:37:05Z</time>
      </trkpt>
      <trkpt lat="43.45378" lon="6.87011">
        <ele>24.65</ele>
        <time>2015-11-14T15:37:16Z</time>
      </trkpt>
      <trkpt lat="43.45377" lon="6.87006">
        <ele>22.73</ele>
        <time>2015-11-14T15:37:26Z</time>
      </trkpt>
      <trkpt lat="43.45377" lon="6.87006">
        <ele>23.69</ele>
        <time>2015-11-14T15:37:40Z</time>
      </trkpt>
      <trkpt lat="43.45377" lon="6.87007">
        <ele>23.21</ele>
        <time>2015-11-14T15:38:00Z</time>
      </trkpt>
      <trkpt lat="43.45376" lon="6.87007">
        <ele>23.21</ele>
        <time>2015-11-14T15:38:15Z</time>
      </trkpt>
      <trkpt lat="43.45378" lon="6.87">
        <ele>23.21</ele>
        <time>2015-11-14T15:38:29Z</time>
      </trkpt>
      <trkpt lat="43.45377" lon="6.8699">
        <ele>22.25</ele>
        <time>2015-11-14T15:38:39Z</time>
      </trkpt>
      <trkpt lat="43.45393" lon="6.8697">
        <ele>19.84</ele>
        <time>2015-11-14T15:38:57Z</time>
      </trkpt>
      <trkpt lat="43.454" lon="6.8694">
        <ele>19.36</ele>
        <time>2015-11-14T15:39:13Z</time>
      </trkpt>
      <trkpt lat="43.45401" lon="6.86914">
        <ele>18.88</ele>
        <time>2015-11-14T15:39:30Z</time>
      </trkpt>
      <trkpt lat="43.45402" lon="6.86914">
        <ele>18.88</ele>
        <time>2015-11-14T15:39:33Z</time>
      </trkpt>
      <trkpt lat="43.45409" lon="6.86918">
        <ele>18.88</ele>
        <time>2015-11-14T15:39:40Z</time>
      </trkpt>
      <trkpt lat="43.45427" lon="6.86925">
        <ele>18.88</ele>
        <time>2015-11-14T15:39:57Z</time>
      </trkpt>
      <trkpt lat="43.45442" lon="6.86941">
        <ele>20.81</ele>
        <time>2015-11-14T15:40:12Z</time>
      </trkpt>
      <trkpt lat="43.45455" lon="6.86958">
        <ele>23.21</ele>
        <time>2015-11-14T15:40:26Z</time>
      </trkpt>
      <trkpt lat="43.45465" lon="6.8698">
        <ele>23.21</ele>
        <time>2015-11-14T15:40:40Z</time>
      </trkpt>
      <trkpt lat="43.45471" lon="6.86989">
        <ele>23.21</ele>
        <time>2015-11-14T15:40:53Z</time>
      </trkpt>
      <trkpt lat="43.45471" lon="6.86989">
        <ele>23.21</ele>
        <time>2015-11-14T15:40:57Z</time>
      </trkpt>
      <trkpt lat="43.45477" lon="6.86994">
        <ele>23.21</ele>
        <time>2015-11-14T15:41:09Z</time>
      </trkpt>
      <trkpt lat="43.45482" lon="6.86997">
        <ele>23.21</ele>
        <time>2015-11-14T15:41:21Z</time>
      </trkpt>
      <trkpt lat="43.45483" lon="6.87">
        <ele>23.21</ele>
        <time>2015-11-14T15:41:23Z</time>
      </trkpt>
      <trkpt lat="43.45485" lon="6.87004">
        <ele>23.21</ele>
        <time>2015-11-14T15:41:28Z</time>
      </trkpt>
      <trkpt lat="43.4549" lon="6.87029">
        <ele>23.21</ele>
        <time>2015-11-14T15:41:45Z</time>
      </trkpt>
      <trkpt lat="43.45491" lon="6.87031">
        <ele>23.21</ele>
        <time>2015-11-14T15:41:49Z</time>
      </trkpt>
      <trkpt lat="43.45484" lon="6.8702">
        <ele>23.21</ele>
        <time>2015-11-14T15:42:02Z</time>
      </trkpt>
      <trkpt lat="43.45485" lon="6.87005">
        <ele>23.21</ele>
        <time>2015-11-14T15:42:18Z</time>
      </trkpt>
      <trkpt lat="43.45483" lon="6.87001">
        <ele>23.21</ele>
        <time>2015-11-14T15:42:25Z</time>
      </trkpt>
      <trkpt lat="43.45474" lon="6.86994">
        <ele>23.21</ele>
        <time>2015-11-14T15:42:34Z</time>
      </trkpt>
      <trkpt lat="43.45465" lon="6.86978">
        <ele>23.21</ele>
        <time>2015-11-14T15:42:49Z</time>
      </trkpt>
      <trkpt lat="43.45456" lon="6.86959">
        <ele>23.21</ele>
        <time>2015-11-14T15:43:05Z</time>
      </trkpt>
      <trkpt lat="43.45456" lon="6.86952">
        <ele>23.21</ele>
        <time>2015-11-14T15:43:15Z</time>
      </trkpt>
      <trkpt lat="43.45458" lon="6.86932">
        <ele>23.69</ele>
        <time>2015-11-14T15:43:31Z</time>
      </trkpt>
      <trkpt lat="43.45465" lon="6.86931">
        <ele>25.61</ele>
        <time>2015-11-14T15:43:43Z</time>
      </trkpt>
      <trkpt lat="43.45472" lon="6.86933">
        <ele>28.5</ele>
        <time>2015-11-14T15:43:55Z</time>
      </trkpt>
      <trkpt lat="43.4548" lon="6.86929">
        <ele>31.38</ele>
        <time>2015-11-14T15:44:10Z</time>
      </trkpt>
      <trkpt lat="43.45484" lon="6.86927">
        <ele>33.3</ele>
        <time>2015-11-14T15:44:25Z</time>
      </trkpt>
      <trkpt lat="43.45488" lon="6.86929">
        <ele>36.67</ele>
        <time>2015-11-14T15:44:37Z</time>
      </trkpt>
      <trkpt lat="43.45496" lon="6.86926">
        <ele>40.03</ele>
        <time>2015-11-14T15:44:51Z</time>
      </trkpt>
      <trkpt lat="43.45499" lon="6.86923">
        <ele>40.51</ele>
        <time>2015-11-14T15:44:58Z</time>
      </trkpt>
      <trkpt lat="43.45505" lon="6.86923">
        <ele>41.47</ele>
        <time>2015-11-14T15:45:03Z</time>
      </trkpt>
      <trkpt lat="43.45524" lon="6.86923">
        <ele>42.92</ele>
        <time>2015-11-14T15:45:18Z</time>
      </trkpt>
      <trkpt lat="43.45531" lon="6.86919">
        <ele>43.4</ele>
        <time>2015-11-14T15:45:24Z</time>
      </trkpt>
      <trkpt lat="43.45553" lon="6.8691">
        <ele>44.84</ele>
        <time>2015-11-14T15:45:41Z</time>
      </trkpt>
      <trkpt lat="43.45561" lon="6.86905">
        <ele>45.32</ele>
        <time>2015-11-14T15:45:48Z</time>
      </trkpt>
      <trkpt lat="43.4558" lon="6.86895">
        <ele>46.76</ele>
        <time>2015-11-14T15:46:04Z</time>
      </trkpt>
      <trkpt lat="43.45601" lon="6.86888">
        <ele>48.68</ele>
        <time>2015-11-14T15:46:20Z</time>
      </trkpt>
      <trkpt lat="43.45618" lon="6.86888">
        <ele>50.13</ele>
        <time>2015-11-14T15:46:33Z</time>
      </trkpt>
      <trkpt lat="43.45622" lon="6.86887">
        <ele>50.61</ele>
        <time>2015-11-14T15:46:36Z</time>
      </trkpt>
      <trkpt lat="43.45624" lon="6.86887">
        <ele>51.09</ele>
        <time>2015-11-14T15:46:38Z</time>
      </trkpt>
      <trkpt lat="43.45628" lon="6.86868">
        <ele>52.53</ele>
        <time>2015-11-14T15:46:52Z</time>
      </trkpt>
      <trkpt lat="43.45648" lon="6.86868">
        <ele>53.01</ele>
        <time>2015-11-14T15:47:11Z</time>
      </trkpt>
      <trkpt lat="43.4565" lon="6.86866">
        <ele>51.57</ele>
        <time>2015-11-14T15:47:21Z</time>
      </trkpt>
      <trkpt lat="43.45652" lon="6.86865">
        <ele>51.57</ele>
        <time>2015-11-14T15:47:59Z</time>
      </trkpt>
      <trkpt lat="43.45654" lon="6.86864">
        <ele>52.05</ele>
        <time>2015-11-14T15:48:23Z</time>
      </trkpt>
      <trkpt lat="43.45652" lon="6.86864">
        <ele>51.57</ele>
        <time>2015-11-14T15:48:52Z</time>
      </trkpt>
      <trkpt lat="43.45652" lon="6.86866">
        <ele>51.57</ele>
        <time>2015-11-14T15:49:23Z</time>
      </trkpt>
      <trkpt lat="43.45653" lon="6.86864">
        <ele>51.57</ele>
        <time>2015-11-14T15:49:57Z</time>
      </trkpt>
      <trkpt lat="43.45651" lon="6.86863">
        <ele>51.57</ele>
        <time>2015-11-14T15:50:25Z</time>
      </trkpt>
      <trkpt lat="43.45654" lon="6.86861">
        <ele>51.57</ele>
        <time>2015-11-14T15:50:58Z</time>
      </trkpt>
      <trkpt lat="43.45654" lon="6.86861">
        <ele>51.57</ele>
        <time>2015-11-14T15:51:26Z</time>
      </trkpt>
      <trkpt lat="43.45652" lon="6.86865">
        <ele>51.57</ele>
        <time>2015-11-14T15:52:00Z</time>
      </trkpt>
      <trkpt lat="43.45651" lon="6.86862">
        <ele>51.57</ele>
        <time>2015-11-14T15:52:45Z</time>
      </trkpt>
      <trkpt lat="43.45652" lon="6.86863">
        <ele>52.53</ele>
        <time>2015-11-14T15:53:17Z</time>
      </trkpt>
      <trkpt lat="43.45652" lon="6.86863">
        <ele>52.53</ele>
        <time>2015-11-14T15:53:39Z</time>
      </trkpt>
      <trkpt lat="43.45651" lon="6.86864">
        <ele>53.01</ele>
        <time>2015-11-14T15:54:06Z</time>
      </trkpt>
      <trkpt lat="43.45651" lon="6.86862">
        <ele>53.97</ele>
        <time>2015-11-14T15:54:28Z</time>
      </trkpt>
    </trkseg>
  </trk>
</gpx>